[[{"header":{"parameterUnit":"m.s-1","parameterCategory":1,"la1":31.0,"la2":29.5877,"lo1":-88.7671,"lo2":-86.6584,"dy":0.0162,"dx":0.0185,"nx":115,"ny":88,"refTime":"2024-07-10T18:00:00:Z","depth":0,"parameterNumber":2,"parameterNumberName":"U-component_of_WINDS"},"data":[0.0,0.0,0.0,0.0,0.0,0.0,0.0,0.0,0.0,0.0,0.0,0.0,0.0,0.0,0.0,0.0,0.0,0.0,0.0,0.0,0.0,0.0,0.0,0.0,0.0,0.0,0.0,0.0,0.0,0.0,0.0,0.0,0.0,0.0,0.0,0.0,0.0,0.0,0.0,0.0,0.0,0.0,0.0,0.0,0.0,0.0,0.0,0.0,0.0,0.0,0.0,0.0,0.0,0.0,0.0,0.0,0.0,0.0,0.0,0.0,0.0,0.0,0.0,0.0,0.0,0.0,0.0,0.0,0.0,0.0,0.0,0.0,0.0,0.0,0.0,0.0,0.0,0.0,0.0,0.0,0.0,0.0,0.0,0.0,0.0,0.0,0.0,0.0,0.0,0.0,0.0,0.0,0.0,0.0,0.0,0.0,0.0,0.0,0.0,0.0,0.0,0.0,0.0,0.0,0.0,0.0,0.0,0.0,0.0,0.0,0.0,0.0,0.0,0.0,0.0,0.0,0.0,0.0,0.0,0.0,0.0,0.0,0.0,0.0,0.0,0.0,0.0,0.0,0.0,0.0,0.0,0.0,0.0,0.0,0.0,0.0,0.0,0.0,0.0,0.0,0.0,0.0,0.0,0.0,0.0,0.0,0.0,0.0,0.0,0.0,0.0,0.0,0.0,0.0,0.0,0.0,0.0,0.0,0.0,0.0,0.0,0.0,0.0,0.0,0.0,0.0,0.0,0.0,0.0,0.0,0.0,0.0,0.0,0.0,0.0,0.0,0.0,0.0,0.0,0.0,0.0,0.0,0.0,0.0,0.0,0.0,0.0,0.0,0.0,0.0,0.0,0.0,0.0,0.0,0.0,0.0,0.0,0.0,0.0,0.0,0.0,0.0,0.0,0.0,0.0,0.0,0.0,0.0,0.0,0.0,0.0,0.0,0.0,0.0,0.0,0.0,0.0,0.0,0.0,0.0,0.0,0.0,0.0,0.0,0.0,0.0,0.0,0.0,0.0,0.0,0.0,0.0,0.0,0.0,0.0,0.0,0.0,0.0,0.0,0.0,0.0,0.0,0.0,0.0,0.0,0.0,0.0,0.0,0.0,0.0,0.0,0.0,0.0,0.0,0.0,0.0,0.0,0.0,0.0,0.0,0.0,0.0,0.0,0.0,0.0,0.0,0.0,0.0,0.0,0.0,0.0,0.0,0.0,0.0,0.0,0.0,0.0,0.0,0.0,0.0,0.0,0.0,0.0,0.0,0.0,0.0,0.0,0.0,0.0,0.0,0.0,0.0,0.0,0.0,0.0,0.0,0.0,0.0,0.0,0.0,0.0,0.0,0.0,0.0,0.0,0.0,0.0,0.0,0.0,0.0,0.0,0.0,0.0,0.0,0.0,0.0,0.0,0.0,0.0,0.0,0.0,0.0,0.0,0.0,0.0,0.0,0.0,0.0,0.0,0.0,0.0,0.0,0.0,0.0,0.0,0.0,0.0,0.0,0.0,0.0,0.0,0.0,0.0,0.0,0.0,0.0,0.0,0.0,0.0,0.0,0.0,0.0,0.0,0.0,0.0,0.0,0.0,0.0,0.0,0.0,0.0,0.0,0.0,0.0,0.0,0.0,0.0,0.0,0.0,0.0,0.0,0.0,0.0,0.0,0.0,0.0,0.0,0.0,0.0,0.0,0.0,0.0,0.0,0.0,0.0,0.0,0.0,0.0,0.0,0.0,0.0,0.0,0.0,0.0,0.0,0.0,0.0,0.0,0.0,0.0,0.0,0.0,0.0,0.0,0.0,0.0,0.0,0.0,0.0,0.0,0.0,0.0,0.0,0.0,0.0,0.0,0.0,0.0,0.0,0.0,0.0,0.0,0.0,0.0,0.0,0.0,0.0,0.0,0.0,0.0,0.0,0.0,0.0,0.0,0.0,0.0,0.0,0.0,0.0,0.0,0.0,0.0,0.0,0.0,0.0,0.0,0.0,0.0,0.0,0.0,0.0,0.0,0.0,0.0,0.0,0.0,0.0,0.0,0.0,0.0,0.0,0.0,0.0,0.0,0.0,0.0,0.0,0.0,0.0,0.0,0.0,0.0,0.0,0.0,0.0,0.0,0.0,0.0,0.0,0.0,0.0,0.0,0.0,0.0,0.0,0.0,0.0,0.0,0.0,0.0,0.0,0.0,0.0,0.0,0.0,0.0,0.0,0.0,0.0,0.0,0.0,0.0,0.0,0.0,0.0,0.0,0.0,0.0,0.0,0.0,0.0,0.0,0.0,0.0,0.0,0.0,0.0,0.0,0.0,0.0,0.0,0.0,0.0,0.0,0.0,0.0,0.0,0.0,0.0,0.0,0.0,0.0,0.0,0.0,0.0,0.0,0.0,0.0,0.0,0.0,0.0,0.0,0.0,0.0,0.0,0.0,0.0,0.0,0.0,0.0,0.0,0.0,0.0,0.0,0.0,0.0,0.0,0.0,0.0,0.0,0.0,0.0,0.0,0.0,0.0,0.0,0.0,0.0,0.0,0.0,0.0,0.0,0.0,0.0,0.0,0.0,0.0,0.0,0.0,0.0,0.0,0.0,0.0,0.0,0.0,0.0,0.0,0.0,0.0,0.0,0.0,0.0,0.0,0.0,0.0,0.0,0.0,0.0,0.0,0.0,0.0,0.0,0.0,0.0,0.0,0.0,0.0,0.0,0.0,0.0,0.0,0.0,0.0,0.0,0.0,0.0,0.0,0.0,0.0,0.0,0.0,0.0,0.0,0.0,0.0,0.0,0.0,0.0,0.0,0.0,0.0,0.0,0.0,0.0,0.0,0.0,0.0,0.0,0.0,0.0,0.0,0.0,0.0,0.0,0.0,0.0,0.0,0.0,0.0,0.0,0.0,0.0,0.0,0.0,0.0,0.0,0.0,0.0,0.0,0.0,0.0,0.0,0.0,0.0,0.0,0.0,0.0,0.0,0.0,0.0,0.0,0.0,0.0,0.0,0.0,0.0,0.0,0.0,0.0,0.0,0.0,0.0,0.0,0.0,0.0,0.0,0.0,0.0,0.0,0.0,0.0,0.0,0.0,0.0,0.0,0.0,0.0,0.0,0.0,0.0,0.0,0.0,0.0,0.0,0.0,0.0,0.0,0.0,0.0,0.0,0.0,0.0,0.0,0.0,0.0,0.0,0.0,0.0,0.0,0.0,0.0,0.0,0.0,0.0,0.0,0.0,0.0,0.0,0.0,0.0,0.0,0.0,0.0,0.0,0.0,0.0,0.0,0.0,0.0,0.0,0.0,0.0,0.0,0.0,0.0,0.0,0.0,0.0,0.0,0.0,0.0,0.0,0.0,0.0,0.0,0.0,0.0,0.0,0.0,0.0,0.0,0.0,0.0,0.0,0.0,0.0,0.0,0.0,0.0,0.0,0.0,0.0,0.0,0.0,0.0,0.0,0.0,0.0,0.0,0.0,0.0,0.0,0.0,0.0,0.0,0.0,0.0,0.0,0.0,0.0,0.0,0.0,0.0,0.0,0.0,0.0,0.0,0.0,0.0,0.0,0.0,0.0,0.0,0.0,0.0,0.0,0.0,0.0,0.0,0.0,0.0,0.0,0.0,0.0,0.0,0.0,0.0,0.0,0.0,0.0,0.0,0.0,0.0,0.0,0.0,0.0,0.0,0.0,0.0,0.0,0.0,0.0,0.0,0.0,0.0,0.0,0.0,0.0,0.0,0.0,0.0,0.0,0.0,0.0,0.0,0.0,0.0,0.0,0.0,0.0,0.0,0.0,0.0,0.0,0.0,0.0,0.0,0.0,0.0,0.0,0.0,0.0,0.0,0.0,0.0,0.0,0.0,0.0,0.0,0.0,0.0,0.0,0.0,0.0,0.0,0.0,0.0,0.0,0.0,0.0,0.0,0.0,0.0,0.0,0.0,0.0,0.0,0.0,0.0,0.0,0.0,0.0,0.0,0.0,0.0,0.0,0.0,0.0,0.0,0.0,0.0,0.0,0.0,0.0,0.0,0.0,0.0,0.0,0.0,0.0,0.0,0.0,0.0,0.0,0.0,0.0,0.0,0.0,0.0,0.0,0.0,0.0,0.0,0.0,0.0,0.0,0.0,0.0,0.0,0.0,0.0,0.0,0.0,0.0,0.0,0.0,0.0,0.0,0.0,0.0,0.0,0.0,0.0,0.0,0.0,0.0,0.0,0.0,0.0,0.0,0.0,0.0,0.0,0.0,0.0,0.0,0.0,0.0,0.0,0.0,0.0,0.0,0.0,0.0,0.0,0.0,-0.9234,0.0,0.0,0.0,0.0,0.0,0.0,0.0,0.0,0.0,0.0,0.0,0.0,0.0,0.0,0.0,0.0,0.0,0.0,0.0,0.0,0.0,0.0,0.0,0.0,0.0,0.0,0.0,0.0,0.0,0.0,0.0,0.0,0.0,0.0,0.0,0.0,0.0,0.0,0.0,0.0,0.0,0.0,0.0,0.0,0.0,0.0,0.0,0.0,0.0,0.0,0.0,0.0,0.0,0.0,0.0,0.0,0.0,0.0,0.0,0.0,0.0,0.0,0.0,0.0,0.0,0.0,0.0,0.0,0.0,0.0,0.0,0.0,0.0,0.0,0.0,0.0,0.0,0.0,0.0,0.0,0.0,0.0,0.0,0.0,0.0,0.0,0.0,0.0,0.0,0.0,0.0,0.0,0.0,0.0,0.0,0.0,0.0,0.0,0.0,0.0,0.0,0.0,0.0,0.0,0.0,0.0,0.0,0.0,0.0,0.0,-1.1173,-1.0842,-1.0915,-1.0361,-0.9169,0.0,0.0,0.0,0.0,0.0,0.0,0.0,0.0,0.0,0.0,0.0,0.0,0.0,0.0,0.0,0.0,0.0,0.0,0.0,0.0,0.0,0.0,0.0,0.0,0.0,0.0,0.0,0.0,0.0,0.0,0.0,0.0,0.0,0.0,0.0,0.0,0.0,0.0,0.0,0.0,0.0,0.0,0.0,0.0,0.0,0.0,0.0,0.0,0.0,0.0,0.0,0.0,0.0,0.0,0.0,0.0,0.0,0.0,0.0,0.0,0.0,0.0,0.0,0.0,0.0,0.0,0.0,0.0,0.0,0.0,0.0,0.0,0.0,0.0,0.0,0.0,0.0,0.0,0.0,0.0,0.0,0.0,0.0,0.0,0.0,0.0,0.0,0.0,0.0,0.0,0.0,0.0,0.0,0.0,0.0,0.0,0.0,0.0,0.0,0.0,0.0,0.0,0.0,0.0,0.0,0.0,0.0,0.0,0.0,0.0,0.0,0.0,-1.1057,-1.0588,-0.9282,0.0,0.0,0.0,0.0,0.0,0.0,0.0,0.0,0.0,0.0,0.0,0.0,0.0,0.0,0.0,0.0,0.0,0.0,0.0,0.0,0.0,0.0,0.0,0.0,0.0,0.0,0.0,0.0,0.0,0.0,0.0,0.0,0.0,0.0,0.0,0.0,0.0,0.0,0.0,0.0,0.0,0.0,0.0,0.0,0.0,0.0,0.0,0.0,0.0,0.0,0.0,0.0,0.0,0.0,0.0,0.0,0.0,0.0,0.0,0.0,0.0,0.0,0.0,0.0,0.0,0.0,0.0,0.0,0.0,0.0,0.0,0.0,0.0,0.0,0.0,0.0,0.0,0.0,0.0,0.0,0.0,0.0,0.0,0.0,0.0,0.0,0.0,0.0,0.0,0.0,0.0,0.0,0.0,0.0,0.0,0.0,0.0,0.0,0.0,0.0,0.0,0.0,0.0,0.0,0.0,0.0,0.0,0.0,0.0,0.0,-1.0889,-1.0966,-1.135,0.0,-0.9945,0.0,0.0,0.0,0.0,0.0,0.0,0.0,0.0,0.0,0.0,0.0,0.0,0.0,0.0,0.0,0.0,0.0,0.0,0.0,0.0,0.0,0.0,0.0,0.0,0.0,0.0,0.0,0.0,0.0,0.0,0.0,0.0,0.0,0.0,0.0,0.0,0.0,0.0,0.0,0.0,0.0,0.0,0.0,0.0,0.0,0.0,0.0,0.0,0.0,0.0,0.0,0.0,0.0,0.0,0.0,0.0,0.0,0.0,0.0,0.0,0.0,0.0,0.0,0.0,0.0,0.0,0.0,0.0,0.0,0.0,0.0,0.0,0.0,0.0,0.0,0.0,0.0,0.0,0.0,0.0,0.0,0.0,0.0,0.0,0.0,0.0,0.0,0.0,0.0,0.0,0.0,0.0,0.0,0.0,0.0,0.0,0.0,0.0,0.0,0.0,0.0,0.0,0.0,0.0,0.0,0.0,0.0,0.0,0.0,0.0,-1.147,-1.1175,-1.1025,-1.066,0.0,0.0,0.0,0.0,0.0,0.0,0.0,0.0,0.0,0.0,0.0,0.0,0.0,0.0,0.0,0.0,0.0,0.0,0.0,0.0,0.0,0.0,0.0,0.0,0.0,0.0,0.0,0.0,0.0,0.0,0.0,0.0,0.0,0.0,0.0,0.0,0.0,0.0,0.0,0.0,0.0,0.0,0.0,0.0,0.0,0.0,0.0,0.0,0.0,0.0,0.0,0.0,0.0,0.0,0.0,0.0,0.0,0.0,0.0,0.0,0.0,0.0,0.0,0.0,0.0,0.0,0.0,0.0,0.0,0.0,0.0,0.0,0.0,0.0,0.0,0.0,0.0,0.0,0.0,0.0,0.0,0.0,0.0,0.0,0.0,0.0,0.0,0.0,0.0,0.0,0.0,0.0,0.0,0.0,0.0,0.0,0.0,0.0,0.0,0.0,0.0,0.0,0.0,0.0,0.0,0.0,0.0,0.0,0.0,0.0,-1.1858,0.0,-1.1594,-1.0985,-1.054,-1.0142,0.0,0.0,0.0,0.0,0.0,0.0,0.0,0.0,0.0,0.0,0.0,0.0,0.0,0.0,0.0,0.0,0.0,0.0,0.0,0.0,0.0,0.0,0.0,0.0,0.0,0.0,0.0,0.0,0.0,0.0,0.0,0.0,0.0,0.0,0.0,0.0,0.0,0.0,0.0,0.0,0.0,0.0,0.0,0.0,0.0,0.0,0.0,0.0,0.0,0.0,0.0,0.0,0.0,0.0,0.0,0.0,0.0,0.0,0.0,0.0,0.0,0.0,0.0,0.0,0.0,0.0,0.0,0.0,0.0,0.0,0.0,0.0,0.0,0.0,0.0,0.0,0.0,0.0,0.0,0.0,0.0,0.0,0.0,0.0,0.0,0.0,0.0,0.0,0.0,0.0,0.0,0.0,0.0,0.0,0.0,0.0,0.0,0.0,0.0,0.0,0.0,0.0,0.0,0.0,0.0,0.0,0.0,0.0,0.0,-1.229,-1.2085,-1.2258,-1.1547,-1.0858,0.0,0.0,0.0,0.0,0.0,0.0,0.0,0.0,0.0,0.0,0.0,0.0,0.0,0.0,0.0,0.0,0.0,0.0,0.0,0.0,0.0,0.0,0.0,0.0,0.0,0.0,0.0,0.0,0.0,0.0,0.0,0.0,0.0,0.0,0.0,0.0,0.0,0.0,0.0,0.0,0.0,0.0,0.0,0.0,0.0,0.0,0.0,0.0,0.0,0.0,0.0,0.0,0.0,0.0,0.0,0.0,0.0,0.0,0.0,0.0,0.0,0.0,0.0,0.0,0.0,0.0,0.0,0.0,0.0,0.0,0.0,0.0,0.0,0.0,0.0,0.0,0.0,0.0,0.0,0.0,0.0,0.0,0.0,0.0,0.0,0.0,0.0,0.0,0.0,0.0,0.0,0.0,0.0,0.0,0.0,0.0,0.0,0.0,0.0,0.0,0.0,0.0,0.0,0.0,0.0,0.0,0.0,0.0,0.0,-1.2165,-1.1995,-1.2278,-1.3128,-1.1889,-1.1079,0.0,0.0,0.0,0.0,0.0,0.0,0.0,0.0,0.0,0.0,0.0,0.0,0.0,0.0,0.0,0.0,0.0,0.0,0.0,0.0,0.0,0.0,0.0,0.0,0.0,0.0,0.0,0.0,0.0,0.0,0.0,0.0,0.0,0.0,0.0,0.0,0.0,0.0,0.0,0.0,0.0,0.0,0.0,0.0,0.0,0.0,0.0,0.0,0.0,0.0,0.0,0.0,0.0,0.0,0.0,0.0,0.0,0.0,0.0,0.0,0.0,0.0,0.0,0.0,0.0,0.0,0.0,0.0,0.0,0.0,0.0,0.0,0.0,0.0,0.0,0.0,0.0,0.0,0.0,0.0,0.0,0.0,0.0,0.0,0.0,0.0,0.0,0.0,0.0,0.0,0.0,0.0,0.0,0.0,0.0,0.0,0.0,0.0,0.0,0.0,0.0,0.0,0.0,0.0,0.0,0.0,0.0,0.0,0.0,-1.2395,0.0,-1.2919,0.0,-1.2278,-1.1303,0.0,0.0,0.0,0.0,0.0,0.0,0.0,0.0,0.0,0.0,0.0,0.0,0.0,0.0,0.0,0.0,0.0,0.0,0.0,0.0,0.0,0.0,0.0,0.0,0.0,0.0,0.0,0.0,0.0,0.0,0.0,0.0,0.0,0.0,0.0,0.0,0.0,0.0,0.0,0.0,0.0,0.0,0.0,0.0,0.0,0.0,0.0,0.0,0.0,0.0,0.0,0.0,0.0,0.0,0.0,0.0,0.0,0.0,0.0,0.0,0.0,0.0,0.0,0.0,0.0,0.0,0.0,0.0,0.0,0.0,0.0,0.0,0.0,0.0,0.0,0.0,0.0,0.0,0.0,0.0,0.0,0.0,0.0,0.0,0.0,0.0,0.0,0.0,0.0,0.0,0.0,0.0,0.0,0.0,0.0,0.0,0.0,0.0,0.0,0.0,0.0,0.0,0.0,0.0,0.0,0.0,0.0,0.0,-1.2448,-1.3695,-1.4124,-1.3879,-1.3061,-1.2637,-1.1538,0.0,0.0,0.0,0.0,0.0,0.0,0.0,0.0,0.0,0.0,0.0,0.0,0.0,0.0,0.0,0.0,0.0,0.0,0.0,0.0,0.0,0.0,0.0,0.0,0.0,0.0,0.0,0.0,0.0,0.0,0.0,0.0,0.0,0.0,0.0,0.0,0.0,0.0,0.0,0.0,0.0,0.0,0.0,0.0,0.0,0.0,0.0,0.0,0.0,0.0,0.0,0.0,0.0,0.0,0.0,0.0,0.0,0.0,0.0,0.0,0.0,0.0,0.0,0.0,0.0,0.0,0.0,0.0,0.0,0.0,0.0,0.0,0.0,0.0,0.0,0.0,0.0,0.0,0.0,0.0,0.0,0.0,0.0,0.0,0.0,0.0,0.0,0.0,0.0,0.0,0.0,0.0,0.0,0.0,0.0,0.0,0.0,0.0,0.0,0.0,0.0,0.0,0.0,0.0,0.0,0.0,0.0,0.0,0.0,-1.3114,-1.3506,-1.3658,-1.3523,-1.2512,-1.1546,0.0,0.0,0.0,0.0,0.0,0.0,0.0,0.0,0.0,0.0,0.0,0.0,0.0,0.0,0.0,0.0,0.0,0.0,0.0,0.0,0.0,0.0,0.0,0.0,0.0,0.0,0.0,0.0,0.0,0.0,0.0,0.0,0.0,0.0,0.0,0.0,0.0,0.0,0.0,0.0,0.0,0.0,0.0,0.0,0.0,0.0,0.0,0.0,0.0,0.0,0.0,0.0,0.0,0.0,0.0,0.0,0.0,0.0,0.0,0.0,0.0,0.0,0.0,0.0,0.0,0.0,0.0,0.0,0.0,0.0,0.0,0.0,0.0,0.0,0.0,0.0,0.0,0.0,0.0,0.0,0.0,0.0,0.0,0.0,0.0,0.0,0.0,0.0,0.0,0.0,0.0,0.0,0.0,0.0,0.0,0.0,0.0,0.0,0.0,0.0,0.0,0.0,0.0,0.0,0.0,0.0,0.0,0.0,0.0,-1.3578,-1.3906,-1.4033,-1.3832,-1.2865,-1.1968,-1.1192,0.0,0.0,0.0,0.0,0.0,0.0,0.0,0.0,0.0,0.0,0.0,0.0,0.0,0.0,0.0,0.0,0.0,0.0,0.0,0.0,0.0,0.0,0.0,0.0,0.0,0.0,0.0,0.0,0.0,0.0,0.0,0.0,0.0,0.0,0.0,0.0,0.0,0.0,0.0,0.0,0.0,0.0,0.0,0.0,0.0,0.0,0.0,0.0,0.0,0.0,0.0,0.0,0.0,0.0,0.0,0.0,0.0,0.0,0.0,0.0,0.0,0.0,0.0,0.0,0.0,0.0,0.0,0.0,0.0,0.0,0.0,0.0,0.0,0.0,0.0,0.0,0.0,0.0,0.0,0.0,0.0,0.0,0.0,0.0,0.0,0.0,0.0,0.0,0.0,0.0,0.0,0.0,0.0,0.0,0.0,0.0,0.0,0.0,0.0,0.0,0.0,0.0,0.0,0.0,0.0,0.0,0.0,0.0,-1.4817,-1.5081,-1.4803,-1.3989,-1.3574,-1.2716,0.0,0.0,0.0,0.0,0.0,0.0,0.0,0.0,0.0,0.0,0.0,0.0,0.0,0.0,0.0,0.0,0.0,0.0,0.0,0.0,0.0,0.0,0.0,0.0,0.0,0.0,0.0,0.0,0.0,0.0,0.0,0.0,0.0,0.0,0.0,0.0,0.0,0.0,0.0,0.0,0.0,0.0,0.0,0.0,0.0,0.0,0.0,0.0,0.0,0.0,0.0,0.0,0.0,0.0,0.0,0.0,0.0,0.0,0.0,0.0,0.0,0.0,0.0,0.0,0.0,0.0,0.0,0.0,0.0,0.0,0.0,0.0,0.0,0.0,0.0,0.0,0.0,0.0,0.0,0.0,0.0,0.0,0.0,0.0,0.0,0.0,0.0,0.0,0.0,0.0,0.0,0.0,0.0,0.0,0.0,0.0,0.0,0.0,0.0,0.0,0.0,0.0,0.0,0.0,0.0,0.0,0.0,0.0,0.0,-1.4812,-1.445,-1.4381,-1.4527,-1.3822,-1.285,0.0,0.0,0.0,0.0,0.0,0.0,0.0,0.0,0.0,0.0,0.0,0.0,0.0,0.0,0.0,0.0,0.0,0.0,0.0,0.0,0.0,0.0,0.0,0.0,0.0,0.0,0.0,0.0,0.0,0.0,0.0,0.0,0.0,0.0,0.0,0.0,0.0,0.0,0.0,0.0,0.0,0.0,0.0,0.0,0.0,0.0,0.0,0.0,0.0,0.0,0.0,0.0,0.0,0.0,0.0,0.0,0.0,0.0,0.0,0.0,0.0,0.0,0.0,0.0,0.0,0.0,0.0,0.0,0.0,0.0,0.0,0.0,0.0,0.0,0.0,0.0,0.0,0.0,0.0,0.0,0.0,0.0,0.0,0.0,0.0,0.0,0.0,0.0,0.0,0.0,0.0,0.0,0.0,0.0,0.0,0.0,0.0,0.0,0.0,0.0,0.0,0.0,0.0,0.0,0.0,0.0,0.0,0.0,-1.5039,-1.5214,-1.4188,-1.387,-1.4387,-1.337,-1.2612,0.0,0.0,0.0,0.0,0.0,0.0,0.0,0.0,0.0,0.0,0.0,0.0,0.0,0.0,0.0,0.0,0.0,0.0,0.0,0.0,0.0,0.0,0.0,0.0,0.0,0.0,0.0,0.0,0.0,0.0,0.0,0.0,0.0,0.0,0.0,0.0,0.0,0.0,0.0,0.0,0.0,0.0,0.0,0.0,0.0,0.0,0.0,0.0,0.0,0.0,0.0,0.0,0.0,0.0,0.0,0.0,0.0,0.0,0.0,0.0,0.0,0.0,0.0,0.0,0.0,0.0,0.0,0.0,0.0,0.0,0.0,0.0,0.0,0.0,0.0,0.0,0.0,0.0,0.0,0.0,0.0,0.0,0.0,0.0,0.0,0.0,0.0,0.0,0.0,0.0,0.0,0.0,0.0,0.0,0.0,0.0,0.0,0.0,0.0,0.0,0.0,0.0,0.0,0.0,0.0,0.0,0.0,0.0,-1.4707,-1.5664,-1.4167,-1.3484,-1.364,-1.2646,-1.2247,0.0,0.0,0.0,0.0,0.0,0.0,0.0,0.0,0.0,0.0,0.0,0.0,0.0,0.0,0.0,0.0,0.0,0.0,0.0,0.0,0.0,0.0,0.0,0.0,0.0,0.0,0.0,0.0,0.0,0.0,0.0,0.0,0.0,0.0,0.0,0.0,0.0,0.0,0.0,0.0,0.0,0.0,0.0,0.0,0.0,0.0,0.0,0.0,0.0,0.0,0.0,0.0,0.0,0.0,0.0,0.0,0.0,0.0,0.0,0.0,0.0,0.0,0.0,0.0,0.0,0.0,0.0,0.0,0.0,0.0,0.0,0.0,0.0,0.0,0.0,0.0,0.0,0.0,0.0,0.0,0.0,0.0,0.0,0.0,0.0,0.0,0.0,0.0,0.0,0.0,0.0,0.0,0.0,0.0,0.0,0.0,0.0,0.0,0.0,0.0,0.0,0.0,0.0,0.0,0.0,0.0,0.0,0.0,-1.6279,-1.5101,-1.4231,-1.3523,-1.3011,-1.2718,-1.2589,0.0,0.0,0.0,0.0,0.0,0.0,0.0,0.0,0.0,0.0,0.0,0.0,0.0,0.0,0.0,0.0,0.0,0.0,0.0,0.0,0.0,0.0,0.0,0.0,0.0,0.0,0.0,0.0,0.0,0.0,0.0,0.0,0.0,0.0,0.0,0.0,0.0,0.0,0.0,0.0,0.0,0.0,0.0,0.0,0.0,0.0,0.0,0.0,-0.5898,0.0,0.0,0.0,0.0,0.0,0.0,0.0,0.0,0.0,0.0,0.0,0.0,0.0,0.0,0.0,0.0,0.0,0.0,0.0,0.0,0.0,0.0,0.0,0.0,0.0,0.0,0.0,0.0,0.0,0.0,0.0,0.0,0.0,0.0,0.0,0.0,0.0,0.0,0.0,0.0,0.0,0.0,0.0,0.0,0.0,0.0,0.0,0.0,0.0,0.0,0.0,0.0,0.0,0.0,0.0,0.0,0.0,0.0,0.0,-1.6968,-1.5224,-1.4152,-1.3297,-1.2643,-1.2291,-1.2238,0.0,0.0,0.0,0.0,0.0,0.0,0.0,0.0,0.0,0.0,0.0,0.0,0.0,0.0,0.0,0.0,0.0,0.0,0.0,0.0,0.0,0.0,0.0,0.0,0.0,0.0,0.0,0.0,0.0,0.0,0.0,0.0,0.0,0.0,0.0,0.0,0.0,0.0,0.0,0.0,0.0,0.0,0.0,0.0,0.0,0.0,0.0,0.0,0.0,0.0,0.0,0.0,0.0,0.0,0.0,0.0,0.0,0.0,0.0,0.0,0.0,0.0,0.0,0.0,0.0,0.0,0.0,0.0,0.0,0.0,0.0,0.0,0.0,0.0,0.0,0.0,0.0,0.0,0.0,0.0,0.0,0.0,0.0,0.0,0.0,0.0,0.0,0.0,0.0,0.0,0.0,0.0,0.0,0.0,0.0,0.0,0.0,0.0,0.0,0.0,0.0,0.0,0.0,0.0,0.0,0.0,0.0,-1.782,-1.7077,-1.5529,-1.4139,-1.3137,-1.2503,-1.1772,-1.1756,-1.2495,0.0,0.0,0.0,0.0,0.0,0.0,0.0,0.0,0.0,0.0,0.0,0.0,0.0,0.0,0.0,0.0,0.0,0.0,0.0,0.0,0.0,0.0,0.0,0.0,0.0,0.0,0.0,0.0,0.0,0.0,0.0,0.0,0.0,0.0,0.0,0.0,0.0,0.0,-0.8482,-0.8643,0.0,0.0,0.0,0.0,0.0,0.0,0.0,0.0,-0.7118,0.0,0.0,0.0,0.0,0.0,0.0,0.0,0.0,0.0,0.0,0.0,0.0,0.0,0.0,0.0,0.0,0.0,0.0,0.0,0.0,0.0,0.0,0.0,0.0,0.0,0.0,0.0,0.0,0.0,0.0,0.0,0.0,0.0,0.0,0.0,0.0,0.0,0.0,0.0,0.0,0.0,0.0,0.0,0.0,0.0,0.0,0.0,0.0,0.0,0.0,0.0,0.0,0.0,0.0,0.0,0.0,-1.7053,-1.712,-1.6598,-1.5433,-1.4583,-1.3757,-1.2946,-1.1911,-1.1716,-1.2307,0.0,0.0,0.0,0.0,0.0,0.0,0.0,0.0,0.0,0.0,0.0,0.0,0.0,0.0,0.0,0.0,0.0,0.0,0.0,0.0,0.0,0.0,0.0,0.0,0.0,0.0,0.0,0.0,0.0,0.0,0.0,0.0,0.0,0.0,0.0,0.0,0.0,0.0,0.0,-0.933,-0.9469,0.0,0.0,0.0,0.0,0.0,0.0,0.0,0.0,-0.7108,0.0,0.0,0.0,0.0,0.0,0.0,0.0,0.0,0.0,0.0,0.0,0.0,0.0,0.0,0.0,0.0,0.0,0.0,0.0,0.0,0.0,0.0,0.0,0.0,0.0,0.0,0.0,0.0,0.0,0.0,0.0,0.0,0.0,0.0,0.0,0.0,0.0,0.0,0.0,0.0,0.0,0.0,0.0,0.0,0.0,0.0,0.0,0.0,0.0,0.0,0.0,0.0,0.0,0.0,0.0,-1.6951,-1.6365,-1.5797,-1.5438,-1.4727,-1.3849,-1.2768,-1.2046,-1.1838,0.0,0.0,0.0,0.0,0.0,0.0,0.0,0.0,0.0,0.0,0.0,0.0,0.0,0.0,0.0,0.0,0.0,0.0,0.0,0.0,0.0,0.0,0.0,0.0,0.0,0.0,0.0,0.0,0.0,0.0,0.0,0.0,0.0,0.0,0.0,0.0,0.0,0.0,0.0,0.0,-0.9563,-0.9321,-0.9469,0.0,0.0,0.0,0.0,0.0,0.0,-0.7693,-0.7465,0.0,0.0,0.0,0.0,0.0,0.0,0.0,0.0,0.0,0.0,0.0,0.0,0.0,0.0,0.0,0.0,0.0,0.0,0.0,0.0,0.0,0.0,0.0,0.0,0.0,0.0,0.0,0.0,0.0,0.0,0.0,0.0,0.0,0.0,0.0,0.0,0.0,0.0,0.0,0.0,0.0,0.0,0.0,0.0,0.0,0.0,0.0,0.0,0.0,0.0,0.0,0.0,0.0,0.0,0.0,-1.6979,-1.5779,-1.5202,-1.5431,-1.4604,-1.3664,-1.2606,-1.1972,-1.1741,0.0,0.0,0.0,0.0,0.0,0.0,0.0,0.0,0.0,0.0,0.0,0.0,0.0,0.0,0.0,0.0,0.0,0.0,0.0,0.0,0.0,0.0,0.0,0.0,0.0,0.0,0.0,0.0,0.0,0.0,0.0,0.0,0.0,0.0,0.0,0.0,0.0,0.0,0.0,0.0,0.0,-0.9421,-0.9506,-0.9099,0.0,0.0,0.0,0.0,-0.8496,-0.8103,0.0,0.0,0.0,0.0,0.0,0.0,0.0,0.0,0.0,0.0,0.0,0.0,0.0,0.0,0.0,0.0,0.0,0.0,0.0,0.0,0.0,0.0,0.0,0.0,0.0,0.0,0.0,0.0,0.0,0.0,0.0,0.0,0.0,0.0,0.0,0.0,0.0,0.0,0.0,0.0,0.0,0.0,0.0,0.0,0.0,0.0,0.0,0.0,0.0,0.0,0.0,0.0,0.0,0.0,0.0,0.0,-1.64,-1.5827,-1.5429,-1.5264,-1.4023,-1.3197,-1.2826,-1.1483,-1.0956,0.0,0.0,0.0,0.0,0.0,0.0,0.0,0.0,0.0,0.0,0.0,0.0,0.0,0.0,0.0,0.0,0.0,0.0,0.0,0.0,0.0,0.0,0.0,0.0,0.0,0.0,0.0,0.0,0.0,0.0,0.0,0.0,0.0,0.0,0.0,0.0,0.0,0.0,0.0,0.0,0.0,-1.0843,-1.1226,-1.0592,-0.9917,0.0,0.0,-0.8918,-0.8939,-0.8525,0.0,0.0,0.0,0.0,0.0,0.0,0.0,0.0,0.0,0.0,0.0,0.0,0.0,0.0,0.0,0.0,0.0,0.0,0.0,0.0,0.0,0.0,0.0,0.0,0.0,0.0,0.0,0.0,0.0,0.0,0.0,0.0,0.0,0.0,0.0,0.0,0.0,0.0,0.0,0.0,0.0,0.0,0.0,0.0,0.0,0.0,0.0,0.0,0.0,0.0,0.0,0.0,0.0,0.0,0.0,-1.4714,-1.6081,-1.5192,-1.4965,-1.5417,-1.4033,-1.2964,-1.239,-1.1529,-1.0867,0.0,0.0,0.0,0.0,0.0,0.0,0.0,0.0,0.0,0.0,0.0,0.0,0.0,0.0,0.0,0.0,0.0,0.0,0.0,0.0,0.0,0.0,0.0,0.0,0.0,0.0,0.0,0.0,0.0,0.0,0.0,0.0,0.0,0.0,0.0,0.0,0.0,0.0,0.0,0.0,0.0,0.0,-1.0854,-1.0119,0.0,0.0,0.0,-0.8918,-0.9123,0.0,0.0,0.0,0.0,0.0,0.0,0.0,0.0,0.0,0.0,0.0,0.0,0.0,0.0,0.0,0.0,0.0,0.0,0.0,0.0,0.0,0.0,0.0,0.0,0.0,0.0,0.0,0.0,0.0,0.0,0.0,0.0,0.0,0.0,0.0,0.0,0.0,0.0,0.0,0.0,0.0,0.0,0.0,0.0,0.0,0.0,0.0,0.0,0.0,0.0,0.0,0.0,0.0,0.0,0.0,0.0,0.0,-1.5996,-1.4889,-1.4662,-1.5395,-1.3833,-1.2607,-1.185,-1.1162,0.0,0.0,0.0,0.0,0.0,0.0,0.0,0.0,0.0,0.0,0.0,0.0,0.0,0.0,0.0,0.0,0.0,0.0,0.0,0.0,0.0,0.0,0.0,0.0,0.0,0.0,0.0,-0.628,0.0,0.0,0.0,0.0,0.0,0.0,0.0,0.0,0.0,0.0,0.0,0.0,0.0,0.0,-1.0641,-1.0621,-0.9992,-0.9443,0.0,0.0,-0.8918,-0.9204,-0.8994,-0.8815,0.0,0.0,0.0,0.0,0.0,0.0,0.0,0.0,0.0,0.0,0.0,0.0,0.0,0.0,0.0,0.0,0.0,0.0,0.0,0.0,0.0,0.0,0.0,0.0,0.0,0.0,0.0,0.0,0.0,0.0,0.0,0.0,0.0,0.0,0.0,0.0,0.0,0.0,0.0,0.0,0.0,0.0,0.0,0.0,0.0,0.0,0.0,0.0,0.0,0.0,0.0,0.0,0.0,0.0,0.0,-1.6198,-1.5332,-1.4912,-1.5057,-1.3084,-1.1826,-1.1444,-0.9949,-0.924,0.0,0.0,0.0,0.0,0.0,0.0,0.0,0.0,0.0,0.0,0.0,0.0,0.0,0.0,0.0,0.0,0.0,0.0,0.0,0.0,0.0,0.0,0.0,0.0,0.0,0.0,0.0,0.0,0.0,0.0,0.0,0.0,0.0,0.0,0.0,0.0,0.0,0.0,0.0,0.0,0.0,-1.1521,-1.1502,-1.1138,-1.0411,0.0,0.0,-0.9199,-0.9056,-0.9128,-0.9083,-0.8594,0.0,0.0,0.0,0.0,0.0,0.0,0.0,0.0,0.0,0.0,0.0,0.0,0.0,0.0,0.0,0.0,0.0,0.0,0.0,0.0,0.0,0.0,0.0,0.0,0.0,0.0,0.0,0.0,0.0,0.0,0.0,0.0,0.0,0.0,0.0,0.0,0.0,0.0,0.0,0.0,0.0,0.0,0.0,0.0,0.0,0.0,0.0,0.0,0.0,0.0,0.0,0.0,0.0,-1.3991,-1.5221,-1.4748,-1.446,-1.4417,-1.2587,-1.1316,-1.0741,-0.9593,-0.888,0.0,0.0,0.0,0.0,0.0,0.0,0.0,0.0,0.0,0.0,0.0,0.0,0.0,0.0,0.0,0.0,0.0,0.0,0.0,0.0,0.0,0.0,0.0,0.0,0.0,0.0,0.0,0.0,-0.6602,-0.7007,-0.7945,0.0,0.0,0.0,0.0,0.0,0.0,0.0,0.0,0.0,0.0,-1.1795,-1.1305,-1.0545,0.0,0.0,-0.9228,-0.9115,-0.9283,-0.9102,-0.8794,-0.8423,-0.8371,0.0,0.0,0.0,0.0,0.0,0.0,0.0,0.0,0.0,0.0,0.0,0.0,0.0,0.0,0.0,0.0,0.0,0.0,0.0,0.0,0.0,0.0,0.0,0.0,0.0,0.0,0.0,0.0,0.0,0.0,0.0,0.0,0.0,0.0,0.0,0.0,0.0,0.0,0.0,0.0,0.0,0.0,0.0,0.0,0.0,0.0,0.0,0.0,0.0,0.0,0.0,0.0,-1.3641,-1.4449,-1.4297,-1.4051,-1.3729,-1.2224,-1.1001,-1.0145,-0.934,-0.8643,0.0,0.0,0.0,0.0,0.0,0.0,0.0,0.0,0.0,0.0,0.0,0.0,0.0,0.0,0.0,0.0,0.0,0.0,0.0,0.0,0.0,0.0,0.0,0.0,0.0,0.0,0.0,0.0,-0.7061,-0.7509,-0.8472,0.0,0.0,0.0,0.0,0.0,0.0,0.0,0.0,0.0,0.0,-1.1882,-1.1036,-1.029,-0.9806,-0.97,-0.9305,-0.9177,-0.9489,-0.9173,-0.8814,-0.8595,0.0,0.0,0.0,0.0,0.0,0.0,0.0,0.0,0.0,0.0,0.0,0.0,0.0,0.0,0.0,0.0,0.0,0.0,0.0,0.0,0.0,0.0,0.0,0.0,0.0,0.0,0.0,0.0,0.0,0.0,-1.1776,0.0,0.0,0.0,0.0,0.0,0.0,0.0,0.0,0.0,0.0,0.0,0.0,0.0,0.0,0.0,0.0,0.0,0.0,0.0,0.0,0.0,0.0,-1.3943,-1.4121,-1.415,-1.378,-1.2927,-1.193,-1.0855,-0.9754,-0.9061,-0.8384,-0.7632,0.0,0.0,0.0,0.0,0.0,0.0,0.0,0.0,0.0,0.0,0.0,0.0,0.0,0.0,0.0,0.0,0.0,0.0,0.0,0.0,0.0,0.0,0.0,0.0,0.0,0.0,-0.7297,-0.7577,-0.7942,0.0,0.0,0.0,0.0,0.0,0.0,0.0,0.0,0.0,0.0,-1.1859,-1.1808,-1.0837,-1.0703,-1.036,-0.9526,-0.939,-0.9436,-0.9677,-0.9448,-0.9271,0.0,0.0,0.0,0.0,0.0,0.0,0.0,0.0,0.0,0.0,0.0,0.0,0.0,0.0,0.0,0.0,0.0,0.0,0.0,0.0,0.0,0.0,0.0,0.0,0.0,0.0,0.0,-1.3005,-1.307,0.0,0.0,0.0,0.0,0.0,0.0,0.0,0.0,0.0,0.0,0.0,-1.4359,-1.4083,0.0,0.0,0.0,0.0,0.0,0.0,0.0,0.0,0.0,0.0,0.0,0.0,-1.3405,-1.3137,-1.3614,-1.3365,-1.2378,-1.1251,-1.031,-0.9527,-0.8778,-0.8044,-0.7368,0.0,0.0,0.0,0.0,0.0,0.0,0.0,0.0,0.0,0.0,0.0,0.0,0.0,0.0,0.0,0.0,0.0,0.0,0.0,0.0,0.0,0.0,0.0,0.0,0.0,-0.7916,0.0,0.0,0.0,0.0,0.0,0.0,0.0,0.0,0.0,0.0,0.0,-1.2399,-1.1891,-1.1705,-1.1363,-1.0767,-1.0398,-1.0064,0.0,0.0,0.0,0.0,0.0,0.0,0.0,0.0,0.0,0.0,0.0,0.0,0.0,0.0,-0.8504,-0.8016,-0.7929,-0.7945,-0.819,0.0,0.0,0.0,0.0,0.0,0.0,0.0,0.0,0.0,0.0,0.0,0.0,0.0,0.0,-1.3776,0.0,-1.377,0.0,0.0,0.0,0.0,0.0,0.0,0.0,0.0,-1.4369,-1.4795,-1.4985,-1.4675,-1.4462,0.0,-1.4187,-1.3871,0.0,0.0,0.0,0.0,0.0,0.0,0.0,0.0,-1.3247,-1.284,-1.3207,-1.2805,-1.1564,-1.0871,-1.0077,-0.9168,-0.829,-0.7595,-0.7033,-0.7369,-0.7217,0.0,0.0,0.0,0.0,0.0,0.0,0.0,0.0,0.0,0.0,0.0,0.0,0.0,0.0,0.0,0.0,0.0,0.0,0.0,0.0,0.0,0.0,0.0,-0.8391,0.0,0.0,0.0,0.0,0.0,0.0,0.0,0.0,0.0,-1.192,-1.2454,-1.2482,-1.1606,-1.1368,-1.1128,-1.0684,0.0,0.0,0.0,0.0,0.0,0.0,0.0,-0.8704,-0.8507,-0.8357,-0.831,-0.8603,-0.8914,-0.9048,-0.8844,0.0,0.0,-0.8273,-0.8184,-0.8293,-0.8484,-0.8607,-0.8644,-0.8544,-0.8751,-0.8818,0.0,0.0,0.0,0.0,0.0,0.0,0.0,0.0,-1.4285,-1.4233,0.0,-1.4227,0.0,0.0,0.0,0.0,0.0,-1.533,0.0,0.0,-1.5149,-1.5258,-1.4917,-1.5309,-1.5268,-1.4797,-1.4994,-1.4688,-1.3945,-1.4084,0.0,0.0,0.0,0.0,0.0,0.0,-1.3409,-1.3184,-1.2975,-1.2116,-1.0634,-1.0799,-1.0208,-0.8646,-0.7676,-0.7057,-0.6723,-0.6939,-0.6785,-0.6223,-0.6432,0.0,0.0,0.0,0.0,0.0,0.0,0.0,0.0,0.0,0.0,0.0,0.0,0.0,0.0,0.0,0.0,0.0,0.0,0.0,0.0,-0.8814,0.0,0.0,0.0,0.0,0.0,0.0,0.0,0.0,0.0,0.0,-1.1361,-1.2143,-1.2227,-1.0718,0.0,0.0,0.0,0.0,-1.0514,-1.0458,-1.0083,-0.9814,-0.9758,-0.9239,-0.8768,-0.8771,0.0,0.0,-0.8748,-0.9265,-0.9386,-0.8858,-0.8856,-0.9025,-0.8735,-0.8662,-0.8725,-0.8738,-0.888,-0.905,-0.8838,-0.8931,-0.9044,-1.4929,0.0,0.0,0.0,0.0,-1.4023,-1.4162,-1.4824,-1.4115,-1.3796,-1.3796,-1.3796,0.0,0.0,0.0,0.0,0.0,0.0,-1.5012,-1.4809,-1.5453,-1.5645,-1.5491,-1.498,-1.4663,-1.4499,-1.4258,-1.3979,-1.3787,-1.4143,-1.3982,-1.3287,0.0,0.0,0.0,0.0,-1.3343,-1.2743,-1.2647,-1.2004,-1.0814,-1.035,-0.9549,-0.8268,-0.7232,-0.6791,-0.6966,-0.6635,-0.6395,-0.6179,-0.6266,0.0,0.0,0.0,0.0,0.0,0.0,0.0,0.0,0.0,0.0,0.0,0.0,0.0,0.0,0.0,0.0,0.0,0.0,0.0,-0.8574,-0.8726,-0.8924,0.0,0.0,0.0,0.0,0.0,0.0,0.0,0.0,0.0,-1.1351,-1.1548,-1.141,0.0,0.0,-1.0675,-1.0522,-1.0522,-1.0356,-1.0028,-0.9873,0.0,-0.904,-0.8781,-0.8573,-0.8421,-0.8524,-0.8517,-0.8196,-0.833,-0.8224,-0.7693,-0.7626,-0.77,-0.7645,-0.794,-0.8146,-0.8153,-0.8211,-0.8242,-0.8231,-0.8548,-0.8911,-1.4873,-1.4522,-1.4553,-1.4619,-1.4647,-1.4077,-1.4166,-1.4749,-1.4147,-1.3896,-1.3891,-1.3891,-1.3569,-1.3119,-1.3364,0.0,0.0,0.0,-1.4769,-1.4698,-1.5277,-1.543,-1.5226,-1.4753,-1.4378,-1.4155,-1.3868,-1.3635,-1.3503,-1.3814,-1.3552,-1.2811,0.0,0.0,-1.2866,-1.3248,-1.3401,-1.3208,-1.2515,-1.1494,-1.0162,-0.956,-0.8892,-0.8162,-0.7361,-0.6947,-0.6978,-0.6603,-0.6398,-0.6383,-0.6313,-0.6058,0.0,0.0,0.0,0.0,0.0,0.0,0.0,0.0,0.0,0.0,0.0,-0.6655,-0.7076,0.0,0.0,0.0,-0.8606,-0.8835,-0.8977,-0.9074,0.0,0.0,0.0,0.0,0.0,0.0,0.0,-1.1432,-1.1349,-1.1281,-1.1193,-1.1064,-1.0871,-1.0518,-1.0522,-1.0522,-1.0522,0.0,-1.0135,-0.9865,-0.9558,-0.9141,-0.8676,-0.8468,-0.8315,-0.8218,-0.8162,-0.8099,-0.7874,-0.7717,-0.7453,-0.7187,-0.7136,-0.7136,-0.7136,-0.7182,-0.7334,-0.7551,-0.7557,-0.761,-0.7557,-0.7889,-0.8109,-1.4686,-1.4253,-1.4201,-1.4247,-1.4294,-1.4258,-1.4253,-1.4258,-1.4206,-1.4217,-1.4154,-1.4212,-1.3979,-1.359,-1.3479,0.0,-1.4014,-1.4318,-1.437,-1.4222,-1.4783,-1.4789,-1.4373,-1.4518,-1.4326,-1.381,-1.3758,-1.3568,-1.3213,-1.3218,-1.2964,-1.2604,-1.3287,-1.3664,-1.3674,-1.3313,-1.3479,-1.4272,-1.2487,-1.0719,-0.9045,-0.8553,-0.8282,-0.8164,-0.7728,-0.7251,-0.6823,-0.6666,-0.6654,-0.6667,-0.64,-0.6268,-0.6229,0.0,0.0,0.0,0.0,0.0,0.0,0.0,0.0,0.0,0.0,0.0,0.0,0.0,0.0,0.0,-0.8998,0.0,-0.9811,-0.9619,0.0,0.0,0.0,-1.0103,-1.0514,-1.0577,-1.0637,-1.0959,0.0,0.0,-1.0858,-1.0613,-1.0419,-1.0368,-1.0415,-1.0415,-1.0462,-1.0035,-0.9762,-0.9662,-0.9089,-0.857,-0.8524,-0.8212,-0.8008,-0.8165,-0.7842,-0.7568,-0.7616,-0.7297,-0.7082,-0.6866,-0.6977,-0.6925,-0.6925,-0.6485,-0.6317,-0.6812,-0.6977,-0.7028,-0.7028,-0.7136,-0.7192,-1.3889,-1.3747,-1.3387,-1.3615,-1.4253,-1.3931,-1.3752,-1.3752,-1.3387,-1.3248,-1.3258,-1.3248,-1.3379,-1.3596,-1.3549,-1.3788,-1.4258,-1.4294,-1.4305,-1.4228,-1.431,-1.431,-1.4077,-1.3936,-1.381,-1.3668,-1.3409,-1.3314,-1.3218,-1.3218,-1.3158,-1.3077,-1.3204,-1.3149,-1.2848,-1.305,-1.3294,-1.3454,-1.1975,-1.0453,-0.8841,-0.8168,-0.7798,-0.7752,-0.6894,-0.6581,-0.6852,-0.632,-0.6152,-0.6446,-0.6191,-0.5856,-0.5647,-0.5647,0.0,0.0,0.0,0.0,0.0,0.0,0.0,0.0,0.0,-0.7387,-0.748,0.0,-0.7921,0.0,-0.8103,-0.8437,-0.9142,-0.9368,0.0,0.0,-1.0574,-1.0604,-1.1205,-1.103,-1.0907,-1.0987,-1.0647,-1.0356,-1.0124,-0.9777,-0.9528,-0.9524,-0.9773,-0.9976,-0.998,-0.9621,-0.9256,-0.8939,-0.8728,-0.8474,-0.8165,-0.7955,-0.8011,-0.8318,-0.7839,-0.7464,-0.7303,-0.6753,-0.6265,-0.5841,-0.5732,-0.5732,-0.5786,-0.557,-0.5567,-0.5729,-0.6109,-0.6426,-0.6428,-0.6756,-0.7082,-1.3478,-1.3248,-1.3017,-1.3205,-1.3658,-1.3382,-1.3301,-1.3248,-1.3022,-1.2886,-1.2886,-1.2886,-1.3022,-1.319,-1.319,-1.3276,-1.3409,-1.3552,-1.361,-1.3525,-1.37,-1.3689,-1.3642,-1.3505,-1.3324,-1.3195,-1.3045,-1.2895,-1.2696,-1.2691,-1.2691,-1.2691,-1.2486,-1.2236,-1.1986,-1.2633,-1.2897,-1.2687,-1.0557,-0.9099,-0.8469,-0.7962,-0.7586,-0.7415,-0.6897,-0.6613,-0.6661,-0.6277,-0.6188,-0.6372,-0.6118,-0.6011,-0.6096,-0.6018,-0.6014,0.0,0.0,0.0,0.0,0.0,0.0,0.0,0.0,0.0,0.0,0.0,-0.7866,-0.7918,-0.8222,-0.8633,-0.9093,-0.9291,-0.968,-1.044,-1.0189,-1.0135,-1.0613,-1.0419,-1.0223,-1.017,-1.0006,-0.9769,-0.9535,-0.9309,-0.9204,-0.9208,-0.9256,-0.935,-0.9458,-0.9204,-0.8837,-0.8629,-0.8418,-0.8209,-0.7901,-0.7904,-0.7898,-0.7783,-0.7351,-0.692,-0.6593,-0.605,-0.5618,-0.535,-0.5301,-0.5301,-0.5301,-0.5301,-0.5301,-0.5354,-0.5567,-0.5782,-0.5834,-0.6052,-0.6275,-1.3147,-1.2779,-1.272,-1.2681,-1.2676,-1.2676,-1.2735,-1.2779,-1.2881,-1.2886,-1.2886,-1.2881,-1.2832,-1.2735,-1.2681,-1.2534,-1.2382,-1.2666,-1.272,-1.2676,-1.2944,-1.3069,-1.3074,-1.3069,-1.2895,-1.2622,-1.2627,-1.2426,-1.2026,-1.2026,-1.1968,-1.1873,-1.141,-1.1167,-1.1217,-1.1963,-1.2159,-1.1723,-0.8897,-0.7664,-0.8044,-0.7809,-0.7514,-0.7185,-0.7101,-0.6901,-0.6453,-0.6447,-0.6462,-0.6453,-0.6231,-0.6349,-0.6939,-0.6603,-0.6555,0.0,-0.684,0.0,0.0,0.0,0.0,0.0,0.0,0.0,0.0,-0.7649,-0.7927,-0.8071,-0.8673,-0.9116,-0.9242,-0.9204,-0.9372,-0.9961,-0.9514,-0.9312,-0.9575,-0.9376,-0.9204,-0.9204,-0.9155,-0.9099,-0.9103,-0.905,-0.9054,-0.8952,-0.8735,-0.8626,-0.8893,-0.8732,-0.8471,-0.8521,-0.8106,-0.7791,-0.7738,-0.7687,-0.7464,-0.7079,-0.665,-0.6218,-0.5882,-0.5449,-0.5128,-0.5244,-0.5299,-0.5301,-0.5301,-0.5301,-0.5301,-0.5301,-0.5354,-0.5354,-0.5352,-0.5409,-0.5301,-1.2318,-1.2224,-1.1714,-1.1514,-1.151,-1.151,-1.1814,-1.2278,-1.2725,-1.2886,-1.2886,-1.2783,-1.2798,-1.2812,-1.2641,-1.2534,-1.2543,-1.2534,-1.248,-1.2372,-1.2417,-1.2412,-1.2318,-1.2318,-1.2269,-1.2224,-1.2234,-1.1923,-1.1473,-1.1423,-1.1204,-1.0724,-1.0626,-1.0576,-1.0576,0.0,0.0,0.0,-0.8487,-0.7822,-0.785,-0.7545,-0.7228,-0.6963,-0.6702,0.0,-0.6492,-0.6611,-0.6771,-0.6806,-0.6722,0.0,0.0,0.0,0.0,0.0,0.0,0.0,0.0,0.0,0.0,0.0,-0.7378,-0.7556,-0.7758,-0.795,-0.8028,-0.8047,-0.8093,-0.8379,-0.8827,-0.8876,-0.9113,-0.9619,-0.9413,-0.9248,-0.9281,-0.9246,-0.9204,-0.9208,-0.8949,-0.8732,-0.8682,-0.8368,-0.8162,-0.8162,-0.8058,-0.8055,-0.8162,-0.8106,-0.8062,-0.8005,-0.7628,-0.73,-0.7246,-0.6864,-0.6645,-0.6421,-0.6105,-0.5782,-0.5721,-0.5397,-0.5128,-0.5128,-0.5242,-0.5301,-0.5301,-0.5301,-0.5301,-0.5301,-0.5301,-0.5301,-0.5301,-0.5301,-0.5301,-1.1918,0.0,-1.136,-1.1204,0.0,-1.1204,-1.1255,-1.1314,-1.181,-1.2067,-1.2067,-1.2013,-1.2099,-1.2348,-1.1995,-1.1886,-1.1913,-1.1732,-1.156,-1.1342,-1.1397,-1.1296,-1.1246,-1.1292,-1.1246,-1.1246,-1.1238,-1.115,-1.0846,-1.0846,-1.0681,-1.0419,-1.0167,-1.0016,-1.0016,-0.9551,-0.9265,-0.9155,-0.835,-0.7779,-0.7517,-0.7189,-0.6944,-0.6636,-0.6499,0.0,0.0,0.0,0.0,0.0,0.0,0.0,0.0,0.0,0.0,-0.6682,-0.6848,-0.6705,-0.63,-0.6743,-0.7031,-0.7107,-0.7513,-0.7843,-0.8101,-0.8227,-0.8247,-0.8215,-0.8303,-0.842,-0.8567,-0.8622,-0.8629,-0.8758,-0.8657,-0.8581,-0.8559,-0.858,-0.8586,-0.853,-0.8374,-0.8265,-0.8265,-0.8052,-0.7901,-0.7904,-0.7904,-0.7791,-0.7571,-0.7738,-0.7848,-0.7571,-0.7303,-0.6972,-0.6701,-0.6428,-0.6098,-0.5875,-0.5607,-0.5393,-0.5287,-0.512,-0.5014,-0.5071,-0.5187,-0.5301,-0.5301,-0.5301,-0.5242,-0.4963,-0.4908,-0.4741,-0.4574,-0.4684,-0.4794,-1.1475,-1.101,-1.091,-1.086,-1.0864,-1.086,-1.0586,-1.0293,0.0,0.0,0.0,-1.1204,-1.1348,-1.1657,-1.1289,-1.1011,-1.0867,-1.0753,-1.0584,-1.0419,-1.0419,-1.0419,-1.0419,-1.0419,-1.0419,-1.0419,-1.0419,-1.0364,-1.0261,-1.0269,-1.0218,-1.0115,-0.9662,-0.9458,-0.9354,-0.8788,-0.8527,-0.8646,-0.8188,-0.7663,-0.7206,-0.6894,-0.6594,-0.6288,-0.6193,-0.6247,-0.6451,-0.6081,-0.5927,-0.6154,-0.6243,-0.6423,-0.677,-0.6783,-0.6869,-0.695,-0.6632,-0.6345,-0.6199,-0.6737,-0.7034,-0.7087,-0.7631,-0.8056,-0.8327,-0.8366,-0.8346,-0.8352,-0.8515,-0.8537,-0.8321,-0.8315,-0.8215,-0.7955,-0.7904,-0.7907,-0.7901,-0.7904,-0.7955,-0.7904,-0.7955,-0.7904,-0.7901,-0.7901,-0.7845,-0.7791,-0.7848,-0.7684,-0.7246,-0.7354,-0.7354,-0.7025,-0.6756,-0.6537,-0.6157,-0.588,-0.5716,-0.5224,-0.5173,-0.5009,-0.4792,-0.4794,-0.4903,-0.4963,-0.5073,-0.5016,-0.5071,-0.4906,-0.4796,-0.4405,-0.4348,-0.4184,-0.3626,-0.3849,-0.4016,-1.0481,-1.0152,-0.9677,-0.9486,-0.9482,-0.9482,-0.9582,-0.9769,-1.0289,-1.0757,-1.1204,-1.1116,-1.1192,-1.123,-1.0875,-1.0226,-0.9562,-1.0163,-1.0419,-1.0419,-1.0419,-1.0419,-1.0419,-1.0419,-1.0419,-1.0419,-1.0419,-1.0167,-0.9766,-0.971,-0.9465,-0.9057,-0.8959,-0.8798,-0.8583,-0.8659,-0.8281,-0.7402,-0.7738,-0.7695,-0.7215,-0.6781,-0.6296,-0.5817,-0.5397,-0.5198,-0.5227,-0.5491,-0.5651,-0.569,-0.6031,-0.6243,-0.6267,-0.6418,-0.6279,-0.5887,-0.6206,-0.6124,-0.5427,-0.5786,-0.6292,-0.6894,-0.7805,-0.8206,-0.7983,-0.8132,-0.8218,-0.8215,-0.8146,-0.8008,-0.7958,-0.8008,-0.8005,-0.7904,-0.7904,-0.7904,-0.7904,-0.7904,-0.7904,-0.7904,-0.7904,-0.7904,-0.7904,-0.7901,-0.7681,-0.7408,-0.7464,-0.7631,-0.7082,-0.6701,-0.6428,-0.6263,-0.588,-0.555,-0.5391,-0.5007,-0.4791,-0.4625,-0.4625,-0.4572,-0.4519,-0.4517,-0.4574,-0.4743,-0.4403,-0.4229,-0.4174,-0.3841,-0.3677,-0.3511,-0.3624,-0.3514,-0.2957,-0.2959,-0.3126,-0.9937,-0.9539,-0.9082,-0.8912,-0.8908,-0.8908,-0.8985,-0.9158,-0.9362,-0.9811,-1.032,-1.0285,-1.0297,-1.0312,-1.0138,-0.9677,-0.8989,-0.9522,-0.9662,-0.951,-0.951,-0.9514,-0.9514,-0.9562,-0.9514,-0.9566,-0.9514,-0.9409,-0.9162,-0.9162,-0.9064,-0.8808,-0.8427,-0.8103,-0.7934,-0.8378,-0.7997,-0.6748,-0.6897,-0.6774,-0.6336,-0.6126,-0.5763,-0.5323,-0.5091,-0.5064,-0.5216,-0.5085,-0.5092,-0.5193,-0.5417,-0.5559,-0.5604,-0.5664,-0.5603,-0.5437,-0.5389,-0.519,-0.4843,-0.5268,-0.5799,-0.6443,-0.6953,-0.7135,-0.697,-0.7817,-0.8321,-0.8318,-0.8218,-0.8168,-0.8062,-0.8058,-0.8008,-0.7904,-0.7904,-0.7904,-0.7904,-0.7904,-0.7904,-0.7904,-0.7904,-0.7904,-0.7904,-0.7634,-0.7413,-0.7141,-0.6864,-0.6423,-0.6152,-0.5664,-0.5391,-0.5605,-0.5441,-0.5171,-0.4899,-0.4679,-0.4517,-0.4462,-0.4236,-0.4016,-0.4016,-0.3907,-0.3739,-0.3739,-0.3568,-0.3508,-0.3506,-0.3453,-0.3177,-0.2901,-0.3013,-0.2849,-0.2406,-0.224,-0.2296,-0.9394,-0.893,-0.8685,-0.8532,-0.8439,-0.8411,-0.8396,-0.8396,-0.8399,-0.8657,-0.9061,-0.9376,-0.9552,-0.9566,-0.9569,-0.9298,-0.8918,-0.8879,-0.8794,-0.8586,-0.848,-0.8431,-0.8427,-0.8431,-0.8431,-0.8431,-0.8431,-0.8431,-0.8427,-0.8427,-0.8431,-0.8321,-0.7783,-0.7396,-0.7278,-0.774,-0.7356,-0.6199,-0.5903,-0.5765,-0.5604,-0.549,-0.5245,-0.487,-0.4751,-0.4776,-0.4965,-0.4562,-0.4467,-0.4642,-0.4689,-0.4769,-0.4841,-0.489,-0.4971,-0.499,-0.4718,-0.4462,-0.4517,-0.5007,-0.5496,-0.5932,-0.6152,-0.6209,-0.6261,-0.7235,-0.7937,-0.8099,-0.8159,-0.8218,-0.8115,-0.8115,-0.8062,-0.7901,-0.7904,-0.7904,-0.7904,-0.7904,-0.7848,-0.7738,-0.7738,-0.7631,-0.7461,-0.7136,-0.692,-0.6756,-0.5878,-0.5169,-0.5224,-0.4842,-0.468,-0.4842,-0.5005,-0.4895,-0.4405,-0.4293,-0.4184,-0.4184,-0.3683,-0.3459,-0.3347,-0.3071,-0.2904,-0.2905,-0.2845,-0.2788,-0.2787,-0.2733,-0.2567,-0.2234,-0.2237,-0.2183,-0.1851,-0.174,-0.174,-0.861,-0.8308,-0.8219,-0.8012,-0.7625,-0.7492,-0.7446,-0.7453,-0.7418,-0.7436,-0.7676,-0.8729,-0.9365,-0.9566,-0.9305,-0.9141,-0.8991,-0.8362,-0.8028,-0.7919,-0.7458,-0.7244,-0.7297,-0.7297,-0.7244,-0.73,-0.7297,-0.7354,-0.7351,-0.7351,-0.7295,-0.7187,-0.6864,-0.6694,-0.6696,-0.6701,-0.6322,-0.5439,-0.4931,-0.4979,-0.5515,-0.5198,-0.4778,-0.4372,-0.3972,-0.3714,-0.383,-0.3814,-0.3893,-0.3964,-0.4085,-0.4069,-0.4044,-0.4167,-0.4304,-0.4328,-0.4445,-0.4462,-0.4519,-0.5009,-0.5334,-0.5389,-0.5878,-0.6154,-0.6154,-0.6315,-0.6645,-0.713,-0.7628,-0.7845,-0.7952,-0.7898,-0.7794,-0.7788,-0.7791,-0.7904,-0.7848,-0.7904,-0.7738,-0.7192,-0.719,-0.6972,-0.6591,-0.6369,-0.6265,-0.6206,-0.5336,-0.4787,-0.5119,-0.4844,-0.4294,-0.4068,-0.4236,-0.4293,-0.3847,-0.368,-0.3515,-0.3069,-0.2847,-0.2792,-0.2736,-0.2737,-0.2682,-0.2347,-0.2235,-0.1956,-0.1845,-0.1623,-0.1401,-0.1344,-0.1345,-0.1402,-0.1347,-0.1291,-0.1347,-0.7763,-0.7356,-0.714,-0.6982,-0.678,-0.6748,-0.6705,-0.6702,-0.6702,-0.6793,-0.7034,-0.7539,-0.8431,-0.9482,-0.8531,-0.786,-0.7584,-0.757,-0.7412,-0.7251,-0.7116,-0.7136,-0.7136,-0.7136,-0.7136,-0.7136,-0.7136,-0.7136,-0.7136,-0.7082,-0.6974,-0.6756,-0.6317,-0.6041,-0.5823,-0.55,-0.5171,-0.4842,-0.4617,-0.4572,-0.4599,-0.4462,-0.421,-0.3924,-0.3709,-0.358,-0.3583,-0.3639,-0.3665,-0.3717,-0.3731,-0.3752,-0.3734,-0.3892,-0.4061,-0.4179,-0.4382,-0.4462,-0.4519,-0.468,-0.4844,-0.4844,-0.5062,-0.5171,-0.5228,-0.5498,-0.5769,-0.6043,-0.6537,-0.6915,-0.6918,-0.6915,-0.6918,-0.6918,-0.6915,-0.6915,-0.6864,-0.6918,-0.6804,-0.6591,-0.6537,-0.6482,-0.6209,-0.588,-0.5553,-0.5281,-0.4737,-0.4624,-0.4789,-0.4627,-0.4294,-0.3792,-0.3849,-0.3683,-0.3182,-0.3071,-0.2903,-0.2681,-0.2402,-0.2179,-0.2124,-0.1845,-0.1623,-0.1679,-0.1455,-0.1288,-0.1288,-0.1177,-0.1009,-0.0785,-0.0336,-0.028,-0.028,-0.028,-0.0392,-0.7228,-0.6882,-0.6434,-0.6188,-0.6121,-0.5996,-0.5956,-0.5956,-0.5953,-0.6104,-0.6312,-0.627,-0.7014,-0.8094,-0.7524,-0.6951,-0.6555,-0.6883,-0.6932,-0.6634,-0.6633,-0.6598,-0.6598,-0.6598,-0.6598,-0.6596,-0.6598,-0.6598,-0.6598,-0.6539,-0.6372,-0.6154,-0.5666,-0.5336,-0.5119,-0.468,-0.4462,-0.4517,-0.4462,-0.4266,-0.3911,-0.382,-0.3736,-0.3612,-0.358,-0.358,-0.358,-0.3488,-0.3486,-0.358,-0.3355,-0.3169,-0.3209,-0.3343,-0.3585,-0.395,-0.4163,-0.4239,-0.4239,-0.4239,-0.4237,-0.4239,-0.4237,-0.4348,-0.4517,-0.4846,-0.5062,-0.5117,-0.5498,-0.5828,-0.6209,-0.6209,-0.6209,-0.6209,-0.6209,-0.6209,-0.6209,-0.6209,-0.6152,-0.5991,-0.5934,-0.5882,-0.5716,-0.5334,-0.4897,-0.4405,-0.4239,-0.4182,-0.4072,-0.3961,-0.3738,-0.3236,-0.307,-0.2902,-0.2514,-0.2458,-0.2402,-0.218,-0.179,-0.1567,-0.1567,-0.1121,-0.0953,-0.1232,-0.0897,-0.0617,-0.0617,-0.0617,-0.0448,-0.0056,0.0336,0.0559,0.0447,0.0503,0.0447,-0.7311,-0.7132,-0.6358,-0.5894,-0.5701,-0.5282,-0.5072,-0.5159,-0.5116,-0.5125,-0.5142,-0.5004,-0.5048,-0.5447,-0.6647,-0.6985,-0.6413,-0.6395,-0.6347,-0.6161,-0.5716,-0.5407,-0.5356,-0.5356,-0.5409,-0.5517,-0.5572,-0.5519,-0.5462,-0.5169,-0.5064,-0.5124,-0.4791,-0.4629,-0.4631,-0.4519,-0.4517,-0.4351,-0.4349,-0.4052,-0.3459,-0.3322,-0.3399,-0.3534,-0.358,-0.3534,-0.3534,-0.3124,-0.3124,-0.3578,-0.2725,-0.2236,-0.2203,-0.2377,-0.2808,-0.342,-0.3614,-0.3624,-0.3626,-0.3627,-0.3627,-0.3626,-0.3626,-0.3849,-0.4237,-0.4403,-0.4403,-0.4515,-0.4513,-0.495,-0.5767,-0.5934,-0.6046,-0.6041,-0.61,-0.61,-0.61,-0.5989,-0.5882,-0.5498,-0.5279,-0.5115,-0.4682,-0.4574,-0.4236,-0.3793,-0.3627,-0.3459,-0.3071,-0.2903,-0.2624,-0.2235,-0.2014,-0.1902,-0.1847,-0.1845,-0.1567,-0.1344,-0.1232,-0.0953,-0.0953,-0.0897,-0.0841,-0.0729,-0.0336,-0.0056,0.0056,0.028,0.0615,0.0895,0.0951,0.1062,0.1174,0.1006,0.095,-0.6282,-0.5997,-0.5547,-0.5311,-0.5244,-0.5074,-0.4985,-0.4985,-0.4985,-0.4985,-0.4985,-0.4939,-0.4808,-0.4657,-0.5431,-0.5721,-0.5642,-0.5663,-0.5657,-0.5619,-0.5408,-0.5301,-0.5301,-0.5301,-0.5301,-0.5301,-0.5301,-0.5301,-0.5226,-0.4744,-0.4415,-0.4276,-0.3849,-0.3572,-0.3573,-0.4141,-0.4141,-0.3459,-0.3347,-0.3167,-0.2819,-0.2752,-0.2698,-0.2703,-0.2673,-0.2636,-0.2635,-0.25,-0.2408,-0.2365,-0.2187,-0.2008,-0.1886,-0.2191,-0.2522,-0.2856,-0.2959,-0.3014,-0.3013,-0.3015,-0.3015,-0.3015,-0.3013,-0.3124,-0.3292,-0.3349,-0.3347,-0.3347,-0.3347,-0.3622,-0.3952,-0.4615,-0.5119,-0.5117,-0.5117,-0.5115,-0.512,-0.5119,-0.5007,-0.4787,-0.4457,-0.4124,-0.3959,-0.3572,-0.3292,-0.3069,-0.3013,-0.2903,-0.2737,-0.2682,-0.2402,-0.1958,-0.179,-0.1511,-0.0672,-0.1008,-0.112,-0.0897,-0.0673,-0.0449,-0.0336,-0.0,0.0112,0.0112,0.0392,0.0616,0.0728,0.1064,0.1398,0.151,0.1622,0.179,0.2071,0.179,0.1734,-0.5746,-0.5312,-0.5141,-0.5046,-0.4987,-0.4985,-0.4895,-0.481,-0.481,-0.4764,-0.4677,-0.4633,-0.4499,-0.4325,-0.4542,-0.4751,-0.492,-0.4954,-0.4902,-0.486,-0.4801,-0.4737,-0.4739,-0.4741,-0.4741,-0.4741,-0.4739,-0.4741,-0.4673,-0.4196,-0.3872,-0.3676,-0.3239,-0.2963,-0.2906,-0.3528,-0.3473,-0.2794,-0.2344,-0.2141,-0.2179,-0.2206,-0.2028,-0.1809,-0.1693,-0.1788,-0.2054,-0.1967,-0.1833,-0.1743,-0.17,-0.1575,-0.1467,-0.1701,-0.1997,-0.2229,-0.2358,-0.2402,-0.2402,-0.2401,-0.2403,-0.2403,-0.2403,-0.2458,-0.2626,-0.2682,-0.2682,-0.2682,-0.2682,-0.2682,-0.2847,-0.3458,-0.3906,-0.3904,-0.3903,-0.3904,-0.3904,-0.3903,-0.3903,-0.3847,-0.357,-0.3347,-0.3235,-0.2959,-0.2681,-0.2457,-0.2401,-0.2402,-0.218,-0.19,-0.1733,-0.1286,-0.095,-0.0503,-0.0,-0.0056,-0.0168,-0.0,-0.0,0.0224,0.0392,0.0727,0.095,0.095,0.1062,0.1286,0.151,0.1847,0.2015,0.2127,0.2184,0.2353,0.2521,0.2578,0.2464,-0.5692,-0.528,-0.5278,-0.5101,-0.4909,-0.4895,-0.4721,-0.4453,-0.441,-0.4278,-0.4058,-0.3968,-0.3978,-0.3932,-0.4094,-0.4216,-0.4352,-0.4252,-0.4161,-0.4116,-0.39,-0.3737,-0.3735,-0.379,-0.3792,-0.3734,-0.3676,-0.3677,-0.3734,-0.3496,-0.3274,-0.3124,-0.2905,-0.2627,-0.2626,-0.2627,-0.2683,-0.2345,-0.1561,-0.1263,-0.1648,-0.17,-0.1447,-0.0964,-0.0788,-0.1133,-0.1934,-0.1615,-0.1481,-0.1576,-0.1078,-0.078,-0.0858,-0.0943,-0.113,-0.1597,-0.176,-0.1788,-0.179,-0.1791,-0.1791,-0.179,-0.1791,-0.2014,-0.2347,-0.2459,-0.2515,-0.2459,-0.2514,-0.2569,-0.2515,-0.2625,-0.2736,-0.2735,-0.2903,-0.2904,-0.2847,-0.2736,-0.2737,-0.2793,-0.2736,-0.2737,-0.2682,-0.2514,-0.2236,-0.1902,-0.179,-0.1623,-0.1232,-0.0784,-0.0224,-0.0,0.0112,0.0391,0.0671,0.0894,0.0894,0.095,0.0839,0.0895,0.0951,0.123,0.1454,0.151,0.1679,0.1903,0.2293,0.2575,0.2687,0.2744,0.2858,0.2913,0.3025,0.3079,0.2969,-0.4929,-0.489,-0.4498,-0.4284,-0.4236,-0.4234,-0.4146,-0.4058,-0.4056,-0.4012,-0.3926,-0.3926,-0.385,-0.3737,-0.3827,-0.3825,-0.3715,-0.3554,-0.3681,-0.4016,-0.3907,-0.3739,-0.3626,-0.3569,-0.3624,-0.3555,-0.3435,-0.3441,-0.3434,-0.3008,-0.2621,-0.245,-0.2016,-0.168,-0.1511,-0.1456,-0.1456,-0.14,-0.1119,-0.1001,-0.1155,-0.1118,-0.1041,-0.0823,-0.0447,-0.0292,-0.0582,-0.0786,-0.0958,-0.1075,-0.0822,-0.0742,-0.0788,-0.0821,-0.0958,-0.1098,-0.1169,-0.1177,-0.1176,-0.1177,-0.1177,-0.1177,-0.1177,-0.1233,-0.14,-0.1511,-0.1512,-0.1511,-0.1456,-0.1456,-0.1456,-0.1456,-0.1845,-0.2625,-0.2682,-0.2625,-0.257,-0.2626,-0.2682,-0.2626,-0.2347,-0.2125,-0.2014,-0.1845,-0.1456,-0.1233,-0.1176,-0.1009,-0.0841,-0.028,-0.0,-0.0,-0.0,0.1174,0.1398,0.1566,0.1622,0.1622,0.1622,0.151,0.1566,0.1679,0.1847,0.2015,0.2184,0.252,0.2912,0.3136,0.3192,0.3413,0.3523,0.3579,0.3577,0.3523,0.3412,-0.4296,-0.4426,-0.4056,-0.3926,-0.3926,-0.3926,-0.3836,-0.3706,-0.3706,-0.3615,-0.3529,-0.353,-0.3472,-0.3424,-0.3507,-0.3487,-0.3405,-0.3304,-0.3465,-0.3738,-0.3576,-0.3355,-0.3072,-0.2962,-0.2962,-0.2899,-0.2793,-0.2794,-0.2901,-0.2416,-0.2141,-0.19,-0.1514,-0.1066,-0.0729,-0.0785,-0.0729,-0.0336,-0.0224,-0.0224,-0.0222,-0.0217,-0.0213,-0.0159,0.0206,0.0407,0.0358,0.0097,-0.0095,-0.0097,-0.0095,-0.0289,-0.0756,-0.0678,-0.0649,-0.0834,-0.0897,-0.0897,-0.0897,-0.0897,-0.0897,-0.0897,-0.0897,-0.0897,-0.0897,-0.0897,-0.0897,-0.0897,-0.0897,-0.0897,-0.0897,-0.0897,-0.1289,-0.1901,-0.1957,-0.2013,-0.2012,-0.2012,-0.2012,-0.1901,-0.168,-0.1512,-0.1344,-0.0952,-0.0617,-0.0561,-0.0392,-0.0224,-0.0112,0.0336,-0.0,-0.0,-0.0,0.1791,0.2072,0.2184,0.2296,0.2296,0.2296,0.2184,0.2183,0.2296,0.241,0.2409,0.2522,0.2745,0.3136,0.3302,0.3356,0.3744,0.4065,0.391,0.3799,0.3855,0.3801,-0.388,-0.388,-0.3836,-0.3794,-0.3794,-0.3794,-0.3619,-0.3399,-0.3399,-0.3222,-0.3004,-0.2979,-0.3003,-0.3023,-0.3198,-0.3318,-0.3418,-0.353,-0.347,-0.3245,-0.3023,-0.2802,-0.2407,-0.2073,-0.1907,-0.185,-0.1847,-0.1793,-0.1794,-0.1677,-0.1628,-0.1402,-0.1234,-0.0897,-0.0393,-0.0617,-0.028,0.0503,0.0727,0.0727,0.0782,0.0816,0.0803,0.0802,0.0937,0.0985,0.0951,0.1033,0.1062,0.1009,0.0854,0.0403,-0.0306,-0.0157,-0.0218,-0.0616,-0.0729,-0.0729,-0.0785,-0.0729,-0.0785,-0.0897,-0.0897,-0.0897,-0.0897,-0.0897,-0.0897,-0.0897,-0.0841,-0.0785,-0.0785,-0.0673,-0.0729,-0.0785,-0.1009,-0.1065,-0.0953,-0.0953,-0.0953,-0.0897,-0.0841,-0.0785,-0.0673,-0.0224,-0.0,0.0112,0.0447,0.0615,0.0783,0.1007,0.1623,0.1903,0.2015,0.224,0.241,0.241,0.2521,0.28,0.2745,0.2689,0.2632,0.2746,0.2969,0.2913,0.2905,0.3074,0.3346,0.3611,0.3873,0.4184,0.4249,0.4061,0.4132,0.4299,0.4299,-0.353,-0.3485,-0.3265,-0.3179,-0.3177,-0.3141,-0.31,-0.3056,-0.301,-0.2921,-0.2895,-0.288,-0.2829,-0.2937,-0.3099,-0.3321,-0.3415,-0.3519,-0.3595,-0.3479,-0.337,-0.2917,-0.2185,-0.157,-0.1291,-0.1291,-0.1291,-0.1122,-0.0785,-0.0841,-0.0785,-0.0561,-0.0617,-0.0393,-0.0112,-0.0168,-0.0,0.0448,0.056,0.0672,0.0893,0.0943,0.0883,0.0937,0.1366,0.1529,0.16,0.2028,0.1806,0.1066,0.0933,0.1261,0.1525,0.1027,0.0553,0.039,0.0336,0.0168,-0.0168,-0.0224,-0.0393,-0.0841,-0.0785,-0.0897,-0.0897,-0.0897,-0.0897,-0.0785,-0.0561,-0.0224,-0.0168,0.0112,0.0335,0.028,-0.028,-0.0785,-0.0729,-0.0505,-0.0224,-0.0224,0.0112,0.028,0.0336,0.0503,0.0671,0.0671,0.0839,0.1006,0.1286,0.151,0.1959,0.2015,0.2183,0.2465,0.2635,0.2635,0.2802,0.3136,0.319,0.3022,0.3022,0.3022,0.3356,0.3577,0.3437,0.354,0.3957,0.4262,0.4516,0.4574,0.4738,0.4734,0.4853,0.5022,0.4967,-0.3177,-0.3174,-0.3001,-0.2911,-0.2823,-0.2424,-0.2291,-0.2246,-0.2291,-0.2271,-0.2263,-0.2265,-0.226,-0.2267,-0.2371,-0.2603,-0.2852,-0.286,-0.286,-0.2748,-0.2525,-0.2073,-0.1511,-0.1009,-0.0785,-0.0785,-0.0785,-0.0673,-0.0449,-0.0393,-0.0336,-0.0336,-0.0224,-0.0056,0.028,0.0168,0.0448,0.0896,0.0896,0.1008,0.123,0.1286,0.1285,0.1342,0.1622,0.179,0.1846,0.2127,0.2061,0.1711,0.1689,0.2003,0.2521,0.1815,0.1173,0.095,0.0894,0.0727,0.0448,0.0392,0.0224,-0.0056,-0.0168,-0.0112,-0.0112,-0.0168,-0.0168,-0.0056,0.0224,0.0336,0.0448,0.0727,0.0838,0.0783,0.028,-0.0168,-0.0112,0.0168,0.0336,0.0448,0.0671,0.0894,0.0894,0.1118,0.123,0.1342,0.1567,0.1679,0.179,0.2015,0.2295,0.2463,0.263,0.2967,0.319,0.3246,0.3301,0.358,0.3747,0.3577,0.3523,0.3522,0.3681,0.3947,0.3967,0.4044,0.4397,0.46,0.467,0.4858,0.5138,0.5287,0.5297,0.5301,0.5301,-0.2914,-0.2915,-0.2915,-0.2915,-0.2734,-0.1747,-0.1256,-0.1256,-0.1266,-0.1245,-0.128,-0.1248,-0.1256,-0.1274,-0.1283,-0.1415,-0.1623,-0.1623,-0.1792,-0.168,-0.1289,-0.0728,-0.0503,-0.0448,-0.0336,-0.0336,-0.0336,-0.028,-0.0112,-0.0168,-0.0224,-0.0112,-0.0056,0.0224,0.0561,0.0505,0.0896,0.14,0.14,0.1455,0.1622,0.1679,0.1679,0.1679,0.1734,0.179,0.179,0.1842,0.1906,0.2253,0.2551,0.2584,0.2598,0.2157,0.1731,0.1342,0.1286,0.1174,0.1006,0.1006,0.0894,0.0783,0.0783,0.0894,0.0727,0.0671,0.0671,0.0671,0.0894,0.1062,0.1174,0.1174,0.123,0.1286,0.1118,0.1062,0.1062,0.1062,0.1006,0.1006,0.1006,0.1062,0.123,0.151,0.1903,0.1903,0.2183,0.2462,0.2573,0.2797,0.302,0.3242,0.3411,0.3523,0.3745,0.391,0.3965,0.4076,0.4244,0.4244,0.419,0.4185,0.4116,0.4205,0.4395,0.4513,0.457,0.4735,0.4872,0.496,0.5225,0.5269,0.5301,0.5301,0.5301,-0.2915,-0.2879,-0.2879,-0.2879,-0.2607,-0.1076,-0.0,-0.0,-0.0,-0.0,-0.0,-0.0,-0.0,-0.0,-0.0,-0.0334,-0.0,-0.0448,-0.0841,-0.1571,-0.0392,0.0224,0.0448,0.0336,0.0112,0.0056,0.0056,0.0224,0.0505,0.0505,0.0617,0.0617,0.0617,0.0729,0.0897,0.0953,0.0953,0.1346,0.1402,0.1567,0.179,0.1845,0.1845,0.1845,0.1791,0.179,0.179,0.179,0.1777,0.1819,0.2103,0.234,0.2497,0.2508,0.2295,0.2183,0.2183,0.2015,0.1734,0.151,0.1398,0.1006,0.1006,0.0894,0.0894,0.1006,0.095,0.1006,0.1342,0.179,0.2072,0.2296,0.2184,0.2128,0.2183,0.2239,0.224,0.1847,0.1622,0.1679,0.2015,0.2296,0.2296,0.2351,0.252,0.2578,0.28,0.3189,0.3356,0.3467,0.3634,0.3856,0.3912,0.4022,0.4187,0.4353,0.441,0.4574,0.4794,0.4958,0.4904,0.486,0.4826,0.4878,0.499,0.5032,0.4974,0.5108,0.5309,0.5282,0.5315,0.542,0.5515,0.5462,0.5301,-0.2198,-0.2246,-0.27,-0.2883,-0.2574,-0.0,-0.0,-0.0,-0.0,-0.0,-0.0,-0.0,-0.0,-0.0,-0.0,-0.0,-0.0,0.1234,0.1403,0.0953,0.1402,0.1569,0.1682,0.1401,0.1065,0.0673,0.0505,0.0673,0.0841,0.0953,0.1009,0.1288,0.1345,0.1511,0.1735,0.1679,0.1733,0.1734,0.1847,0.1958,0.1955,0.2123,0.2235,0.2124,0.1958,0.179,0.179,0.179,0.1567,0.14,0.1568,0.1905,0.2128,0.224,0.2296,0.2296,0.2296,0.2183,0.1847,0.179,0.1734,0.151,0.151,0.1622,0.1679,0.1734,0.1734,0.179,0.2071,0.2409,0.2635,0.2691,0.2691,0.2691,0.2691,0.2801,0.2913,0.2576,0.224,0.2296,0.2632,0.2912,0.3025,0.3079,0.3245,0.3299,0.3356,0.369,0.3688,0.3799,0.4024,0.419,0.4299,0.441,0.4575,0.4741,0.4853,0.5071,0.5399,0.5559,0.5666,0.5584,0.5496,0.547,0.5324,0.5369,0.5395,0.5564,0.5832,0.6131,0.6227,0.5984,0.5884,0.5878,0.5614,-0.1479,-0.121,-0.1794,-0.202,-0.1762,-0.0328,-0.0,-0.0,0.025,-0.0,-0.0,0.0267,-0.0,-0.0,-0.0,-0.0,0.0841,0.2021,0.2642,0.3038,0.2524,0.2466,0.2466,0.2242,0.1848,0.1122,0.1233,0.1289,0.1288,0.1232,0.1566,0.1901,0.1957,0.2124,0.257,0.2682,0.2401,0.2121,0.2346,0.2515,0.2345,0.2569,0.2625,0.2514,0.2292,0.2013,0.2013,0.2014,0.1791,0.1233,0.1401,0.1568,0.1679,0.1679,0.179,0.1847,0.1903,0.1847,0.1847,0.1847,0.1903,0.2183,0.2183,0.2297,0.2522,0.2633,0.2633,0.2578,0.2635,0.2691,0.2802,0.2858,0.2914,0.2913,0.2914,0.308,0.3302,0.3137,0.2969,0.2968,0.3189,0.3412,0.3523,0.3634,0.3855,0.4021,0.4078,0.4078,0.4078,0.4242,0.4467,0.4634,0.4745,0.5011,0.523,0.5342,0.5454,0.5727,0.6055,0.6213,0.63,0.6226,0.605,0.5643,0.5526,0.5701,0.5838,0.5932,0.6345,0.6889,0.6836,0.639,0.6258,0.6274,0.6018,-0.1706,-0.009,0.1346,0.1929,0.1851,0.1641,0.1479,0.1496,0.1486,0.153,0.1493,0.1478,0.1499,0.151,0.1511,0.1511,0.168,0.2355,0.2862,0.3371,0.3028,0.2747,0.2747,0.2631,0.2126,0.1902,0.2069,0.2347,0.2292,0.2402,0.2346,0.2513,0.2569,0.2681,0.2792,0.2682,0.268,0.2511,0.2735,0.2904,0.3072,0.2904,0.2849,0.2849,0.2681,0.2569,0.2568,0.2569,0.2515,0.2401,0.2459,0.246,0.2347,0.2069,0.1902,0.1846,0.1846,0.179,0.179,0.179,0.1958,0.2128,0.224,0.2409,0.269,0.3022,0.308,0.2914,0.2802,0.2914,0.3246,0.3246,0.3469,0.3634,0.3688,0.3745,0.3856,0.3801,0.3747,0.3799,0.3912,0.3912,0.4022,0.4078,0.4244,0.441,0.4467,0.4522,0.4577,0.4743,0.5073,0.5132,0.5189,0.5563,0.5937,0.6048,0.6159,0.6487,0.6761,0.6866,0.6908,0.6798,0.6539,0.6428,0.624,0.6266,0.6338,0.6425,0.6654,0.7183,0.6946,0.663,0.6634,0.6652,0.6678,-0.0134,0.0807,0.1749,0.2428,0.2812,0.2536,0.2513,0.2721,0.2757,0.2743,0.2735,0.2727,0.2748,0.2748,0.2748,0.2748,0.269,0.2741,0.308,0.3477,0.3306,0.3137,0.3137,0.302,0.3018,0.3016,0.3296,0.324,0.3016,0.2738,0.2903,0.3124,0.318,0.3292,0.3572,0.3684,0.3514,0.3346,0.3512,0.3681,0.3852,0.3459,0.3293,0.3515,0.3292,0.3181,0.3181,0.318,0.3014,0.2736,0.2682,0.2682,0.2625,0.2513,0.229,0.2236,0.2014,0.179,0.179,0.179,0.1903,0.2184,0.2464,0.2799,0.3135,0.3412,0.3523,0.3413,0.3357,0.3467,0.3688,0.369,0.3801,0.391,0.4021,0.4133,0.4299,0.4356,0.4411,0.452,0.452,0.4465,0.441,0.4522,0.4634,0.4745,0.491,0.4965,0.5075,0.5295,0.557,0.5784,0.5893,0.6216,0.6532,0.664,0.6807,0.719,0.7408,0.7512,0.7561,0.7457,0.753,0.7557,0.7363,0.6996,0.7142,0.7288,0.736,0.7383,0.7458,0.741,0.7179,0.7059,0.712,0.1704,0.1704,0.1701,0.2152,0.2806,0.2912,0.3123,0.3494,0.3516,0.3479,0.3587,0.3593,0.3538,0.3595,0.3539,0.3538,0.3593,0.353,0.353,0.3585,0.3585,0.3585,0.364,0.3692,0.3631,0.3573,0.3798,0.3913,0.3634,0.3298,0.335,0.3626,0.3737,0.3961,0.4298,0.4296,0.4462,0.4462,0.4462,0.4462,0.4351,0.4072,0.4015,0.4405,0.4016,0.3792,0.3792,0.3793,0.3569,0.3292,0.3126,0.3125,0.307,0.3069,0.3069,0.2957,0.2402,0.2069,0.2013,0.2014,0.2181,0.2462,0.2852,0.3189,0.347,0.3635,0.3801,0.4022,0.3965,0.3967,0.4078,0.4132,0.4187,0.4299,0.4356,0.4413,0.4689,0.4857,0.4914,0.4967,0.5018,0.4961,0.4961,0.4908,0.5018,0.5397,0.5506,0.5782,0.5837,0.5893,0.6112,0.6431,0.6647,0.6915,0.7128,0.7233,0.7453,0.7785,0.7999,0.8103,0.8199,0.8206,0.8229,0.8163,0.8149,0.7875,0.8006,0.7911,0.7637,0.765,0.8088,0.8095,0.761,0.7545,0.765,0.27,0.27,0.2692,0.2823,0.2887,0.2948,0.3065,0.3231,0.3397,0.3471,0.3588,0.3585,0.3587,0.3587,0.3588,0.3587,0.3585,0.3585,0.3585,0.3585,0.3585,0.3585,0.3585,0.3585,0.3634,0.3685,0.3796,0.4078,0.4025,0.3968,0.4021,0.4185,0.4133,0.4247,0.441,0.4462,0.4462,0.4462,0.4462,0.4462,0.4462,0.4403,0.4405,0.446,0.4406,0.4294,0.4293,0.4239,0.4182,0.4182,0.4184,0.4239,0.4294,0.4293,0.4293,0.3959,0.3349,0.2625,0.2624,0.2625,0.2682,0.2905,0.313,0.3302,0.3637,0.3749,0.397,0.4522,0.4185,0.413,0.4465,0.4579,0.4798,0.491,0.4967,0.5022,0.5242,0.5346,0.5405,0.5677,0.5725,0.562,0.5513,0.5458,0.5458,0.5834,0.6157,0.6376,0.6596,0.6596,0.665,0.6969,0.7292,0.756,0.7723,0.7774,0.7937,0.8268,0.8427,0.853,0.8537,0.8469,0.8471,0.8408,0.8378,0.8215,0.7918,0.7718,0.7603,0.7759,0.8039,0.8053,0.7922,0.799,0.808,0.2919,0.2919,0.2915,0.2911,0.2918,0.2926,0.3051,0.3206,0.3275,0.3406,0.356,0.3585,0.3585,0.3641,0.3585,0.3585,0.3585,0.3641,0.3585,0.3641,0.364,0.3641,0.3585,0.3585,0.3583,0.3744,0.3742,0.3907,0.4079,0.4192,0.4133,0.4189,0.4192,0.4192,0.4356,0.4462,0.4462,0.4462,0.4462,0.4462,0.4462,0.4462,0.4462,0.4462,0.4462,0.4462,0.4462,0.4462,0.4462,0.4462,0.4462,0.4462,0.4462,0.4462,0.4462,0.4462,0.4072,0.357,0.3292,0.3236,0.3293,0.3459,0.3684,0.4019,0.419,0.4192,0.4301,0.4737,0.468,0.4627,0.4794,0.4965,0.502,0.5185,0.5297,0.5513,0.5673,0.5834,0.5941,0.6213,0.6487,0.6327,0.6273,0.6379,0.6379,0.6485,0.6699,0.6864,0.7079,0.7238,0.7345,0.7503,0.788,0.8206,0.8312,0.8365,0.8309,0.853,0.8537,0.8639,0.8633,0.8567,0.8514,0.8215,0.7994,0.7779,0.7632,0.7759,0.7815,0.7848,0.7926,0.7882,0.7885,0.7915,0.8016,0.2957,0.3043,0.2955,0.2911,0.2915,0.3077,0.3168,0.3207,0.361,0.3752,0.3811,0.397,0.4022,0.3967,0.4022,0.4078,0.3965,0.3965,0.4021,0.4022,0.4022,0.4076,0.4132,0.4078,0.4078,0.4022,0.4294,0.4348,0.4349,0.4351,0.4349,0.4021,0.4022,0.4079,0.4192,0.4245,0.4354,0.4354,0.4465,0.4465,0.441,0.4408,0.4408,0.441,0.441,0.4354,0.4351,0.4351,0.4351,0.4351,0.4351,0.4298,0.4298,0.4353,0.4353,0.4354,0.4244,0.4132,0.3906,0.3849,0.385,0.3961,0.4127,0.4463,0.4577,0.4689,0.4741,0.4844,0.4847,0.4847,0.4958,0.5071,0.5071,0.5124,0.5289,0.5666,0.5991,0.6157,0.632,0.6482,0.6756,0.7133,0.719,0.7405,0.7458,0.7297,0.7297,0.7351,0.7563,0.7827,0.7934,0.8043,0.82,0.8471,0.8527,0.8633,0.8633,0.8689,0.8745,0.8745,0.8685,0.8537,0.8397,0.8063,0.7708,0.7656,0.767,0.79,0.8071,0.7936,0.7864,0.7844,0.7844,0.7915,0.8066,0.3176,0.3519,0.3089,0.2961,0.3015,0.3584,0.3581,0.3488,0.4514,0.4722,0.4503,0.4842,0.4835,0.4719,0.4835,0.4891,0.4772,0.5054,0.5003,0.506,0.5169,0.5005,0.495,0.495,0.5062,0.506,0.495,0.5007,0.5117,0.495,0.4622,0.413,0.4239,0.4075,0.4018,0.4182,0.4294,0.4351,0.452,0.447,0.4413,0.4301,0.4302,0.419,0.4133,0.4021,0.4078,0.4076,0.4075,0.4075,0.4075,0.4076,0.4133,0.4132,0.4189,0.419,0.4245,0.419,0.4187,0.4239,0.4351,0.4462,0.4462,0.4574,0.4632,0.4575,0.4627,0.4844,0.4903,0.4903,0.4901,0.4956,0.523,0.5397,0.5668,0.5991,0.6317,0.6534,0.6645,0.675,0.7077,0.7509,0.778,0.794,0.8049,0.7889,0.7827,0.788,0.8156,0.8421,0.8477,0.8527,0.8521,0.8573,0.8573,0.8629,0.8629,0.8791,0.89,0.8794,0.8685,0.8524,0.8485,0.8015,0.7735,0.7697,0.7724,0.7913,0.7988,0.7875,0.7788,0.7916,0.8001,0.8092,0.8263,0.3609,0.4016,0.3978,0.3931,0.3941,0.4391,0.4508,0.4496,0.4986,0.5167,0.5009,0.5171,0.5218,0.5162,0.5273,0.5677,0.6023,0.5447,0.5445,0.5332,0.5277,0.5332,0.5332,0.5386,0.5277,0.5334,0.5334,0.5332,0.5277,0.5441,0.5224,0.4842,0.4842,0.4956,0.4899,0.439,0.4443,0.4893,0.5007,0.4899,0.4684,0.4629,0.4465,0.4078,0.4022,0.4021,0.4021,0.4021,0.4021,0.4021,0.4021,0.3965,0.4021,0.4021,0.4022,0.4078,0.4079,0.419,0.4244,0.4351,0.4462,0.4462,0.4517,0.4519,0.4575,0.4519,0.4519,0.4737,0.5067,0.5232,0.5171,0.5609,0.6048,0.5996,0.6102,0.6372,0.6642,0.6861,0.7184,0.7348,0.767,0.8099,0.8259,0.8421,0.8477,0.8477,0.8415,0.8412,0.858,0.8745,0.8798,0.8847,0.8788,0.8837,0.889,0.8784,0.8682,0.884,0.905,0.8998,0.8893,0.884,0.8711,0.8194,0.7725,0.763,0.7711,0.7905,0.7933,0.7785,0.7906,0.8077,0.8201,0.8386,0.8677,0.4094,0.4519,0.4793,0.4766,0.466,0.5082,0.5259,0.5267,0.5652,0.5792,0.5828,0.5823,0.5823,0.5825,0.588,0.6223,0.6628,0.6282,0.5993,0.5934,0.5932,0.5823,0.5825,0.588,0.5987,0.5828,0.5825,0.5932,0.5987,0.5882,0.588,0.5937,0.5941,0.5887,0.5277,0.4927,0.4867,0.5376,0.5839,0.5502,0.5236,0.5066,0.5013,0.4572,0.4515,0.446,0.4405,0.4349,0.4189,0.4133,0.4022,0.3912,0.3967,0.4021,0.4078,0.4078,0.4133,0.4135,0.4133,0.4242,0.4408,0.4462,0.4462,0.4517,0.4517,0.4627,0.4846,0.4844,0.534,0.5725,0.5607,0.6046,0.6211,0.6105,0.6482,0.6807,0.7079,0.7297,0.7619,0.7946,0.8212,0.8265,0.8318,0.8424,0.8474,0.8477,0.8474,0.8418,0.8527,0.8689,0.89,0.8949,0.8995,0.9099,0.9204,0.9152,0.9096,0.9253,0.9409,0.9357,0.9256,0.9183,0.8968,0.8524,0.8105,0.7714,0.7841,0.8271,0.807,0.7758,0.8158,0.8758,0.8958,0.9231,0.9528,0.4576,0.5016,0.5446,0.5257,0.4815,0.561,0.5735,0.5557,0.6415,0.6894,0.6864,0.6915,0.6918,0.6918,0.6753,0.6928,0.6985,0.698,0.6864,0.6807,0.6699,0.6918,0.6918,0.6861,0.6696,0.6972,0.6861,0.6753,0.6918,0.6756,0.6864,0.6864,0.6701,0.6428,0.5441,0.5332,0.5332,0.5502,0.6482,0.6251,0.5791,0.5561,0.5506,0.5285,0.5117,0.5007,0.495,0.4734,0.4572,0.4517,0.4189,0.4022,0.3965,0.4351,0.4351,0.4075,0.4465,0.4468,0.4135,0.4192,0.441,0.457,0.4625,0.468,0.468,0.4954,0.5281,0.5334,0.5882,0.6154,0.6206,0.6317,0.6428,0.6593,0.6972,0.719,0.7461,0.7571,0.7895,0.8005,0.8115,0.8168,0.8218,0.8318,0.8421,0.8474,0.8424,0.8477,0.853,0.8689,0.8952,0.9155,0.9305,0.9514,0.9614,0.9566,0.9566,0.9718,0.9769,0.9721,0.9522,0.9315,0.9077,0.881,0.8543,0.8153,0.8408,0.8775,0.8754,0.8868,0.9187,0.9632,0.9825,1.0034,1.032,0.5058,0.5481,0.5779,0.5761,0.5642,0.6386,0.6508,0.632,0.6807,0.7136,0.7136,0.7136,0.7136,0.7136,0.7136,0.7136,0.7136,0.7136,0.7136,0.7136,0.7136,0.7082,0.7136,0.7136,0.7136,0.7136,0.7136,0.7136,0.7082,0.7136,0.7136,0.7082,0.7082,0.6864,0.6591,0.6482,0.6537,0.6539,0.6833,0.6724,0.6105,0.5993,0.583,0.55,0.5443,0.5441,0.5441,0.5171,0.5064,0.5007,0.468,0.4624,0.4622,0.4952,0.4897,0.4785,0.5064,0.5067,0.5069,0.5124,0.5069,0.5009,0.495,0.5117,0.5553,0.5719,0.5882,0.5989,0.648,0.6699,0.6812,0.719,0.7354,0.741,0.7628,0.7625,0.7788,0.7791,0.7955,0.7955,0.8011,0.8118,0.8168,0.8318,0.8418,0.8527,0.853,0.8636,0.8742,0.8847,0.9057,0.9413,0.9614,0.9873,1.0028,1.0028,1.0237,1.0494,1.0395,1.0194,0.9898,0.9554,0.9346,0.9193,0.8906,0.867,0.9015,0.9411,0.9882,1.0186,1.0394,1.0425,1.0523,1.0748,1.1069,0.5412,0.5707,0.5925,0.6116,0.6307,0.6748,0.691,0.6883,0.7017,0.7136,0.7136,0.7136,0.7128,0.7125,0.713,0.7125,0.7125,0.7133,0.7136,0.7136,0.7136,0.7136,0.7136,0.7136,0.7136,0.7136,0.7136,0.7136,0.7136,0.7136,0.7136,0.7136,0.7136,0.7028,0.7028,0.7028,0.7028,0.6974,0.7036,0.6925,0.6591,0.648,0.6315,0.6098,0.5989,0.5989,0.5878,0.5771,0.5609,0.555,0.5441,0.5332,0.5332,0.5498,0.5443,0.5389,0.5332,0.5336,0.5393,0.55,0.5443,0.566,0.5492,0.5658,0.6154,0.6317,0.648,0.6696,0.7079,0.7246,0.7413,0.7845,0.7845,0.7901,0.7901,0.7845,0.7848,0.7904,0.7904,0.7904,0.7955,0.8062,0.8165,0.8265,0.8471,0.8527,0.8583,0.8794,0.9005,0.9159,0.9417,0.9777,1.0135,1.0442,1.0596,1.0545,1.0804,1.1221,1.1015,1.0659,1.0402,1.0049,0.9811,0.9525,0.92,0.9058,0.9588,1.0048,1.0644,1.1131,1.1383,1.1394,1.1223,1.1507,1.1905,0.572,0.5758,0.5919,0.6282,0.6663,0.6801,0.6974,0.712,0.7133,0.719,0.719,0.7244,0.7283,0.7205,0.7173,0.7286,0.7326,0.7289,0.7295,0.7297,0.7351,0.7297,0.7297,0.73,0.7351,0.719,0.7192,0.719,0.7136,0.7136,0.7136,0.7136,0.7136,0.7136,0.7136,0.7136,0.7136,0.7136,0.7082,0.7025,0.6918,0.6972,0.6861,0.6753,0.6807,0.6807,0.6699,0.648,0.6263,0.6046,0.5773,0.555,0.5605,0.5937,0.5719,0.5607,0.5496,0.555,0.566,0.5764,0.6039,0.6369,0.6265,0.6211,0.6428,0.6864,0.7028,0.719,0.7464,0.7684,0.7901,0.7901,0.7901,0.7904,0.7904,0.7901,0.7901,0.7904,0.7904,0.7955,0.8005,0.8162,0.8421,0.8524,0.8837,0.8886,0.9047,0.9201,0.9409,0.9566,0.9877,1.0399,1.0757,1.1065,1.1116,1.096,1.1011,1.1272,1.1272,1.104,1.076,1.0531,1.027,0.991,0.9443,0.9558,1.0187,1.0864,1.1498,1.189,1.2049,1.222,1.205,1.2542,1.2978,0.627,0.611,0.6388,0.6699,0.7085,0.7468,0.7753,0.7978,0.7729,0.767,0.8052,0.8046,0.7868,0.7682,0.7925,0.8099,0.8156,0.8159,0.8049,0.7996,0.7886,0.7993,0.7993,0.794,0.783,0.7616,0.7509,0.7405,0.7192,0.7136,0.7136,0.7136,0.7136,0.7136,0.7136,0.7136,0.7136,0.7136,0.7136,0.7136,0.7136,0.7136,0.7136,0.7136,0.7136,0.7136,0.6972,0.6918,0.6756,0.6699,0.6645,0.6588,0.6591,0.6758,0.6704,0.6647,0.6591,0.6588,0.6588,0.6586,0.675,0.7079,0.7031,0.7249,0.741,0.7467,0.7634,0.7684,0.7738,0.7848,0.7904,0.7904,0.7904,0.7904,0.7904,0.7904,0.7901,0.8005,0.8058,0.8265,0.8315,0.8626,0.8834,0.9096,0.9357,0.9406,0.9506,0.9714,0.9821,0.9976,1.0237,1.0761,1.1019,1.1272,1.1272,1.1167,1.1221,1.1272,1.1272,1.1259,1.1089,1.0853,1.0636,1.0394,1.006,1.0376,1.0912,1.1529,1.1954,1.2294,1.2517,1.273,1.2943,1.3301,1.3502,0.6553,0.6431,0.6595,0.7033,0.7587,0.8059,0.8466,0.8698,0.8256,0.8156,0.8368,0.8368,0.8355,0.8283,0.8355,0.848,0.8699,0.8424,0.8315,0.8315,0.8421,0.8315,0.8368,0.8421,0.8212,0.8046,0.7937,0.778,0.7405,0.7136,0.7136,0.7136,0.7136,0.7136,0.7136,0.7136,0.7136,0.7136,0.7136,0.7136,0.7136,0.7136,0.7136,0.7136,0.7136,0.7136,0.7136,0.7136,0.7136,0.7136,0.7136,0.7082,0.7085,0.7085,0.7085,0.7028,0.7028,0.6972,0.6972,0.7085,0.7303,0.7464,0.7518,0.7678,0.7738,0.7794,0.7848,0.7848,0.7904,0.7904,0.7904,0.7904,0.7904,0.7904,0.7904,0.7904,0.8005,0.8162,0.8368,0.8626,0.8883,0.9194,0.9454,0.9773,0.9932,1.0032,1.0237,1.0494,1.0446,1.0344,1.0655,1.107,1.1171,1.1272,1.1272,1.1272,1.1272,1.1272,1.1272,1.125,1.1203,1.1036,1.0727,1.0731,1.0778,1.1041,1.122,1.1751,1.2192,1.25,1.2804,1.3055,1.3215,1.333,1.3511,0.6768,0.6777,0.6793,0.7385,0.8233,0.8469,0.8924,0.9488,0.8834,0.8527,0.8527,0.8524,0.8676,0.8771,0.8784,0.8781,0.8893,0.8788,0.8679,0.8524,0.8682,0.8682,0.8629,0.853,0.858,0.853,0.8368,0.8153,0.767,0.7402,0.7244,0.7136,0.7136,0.7136,0.7136,0.7136,0.7136,0.7136,0.7136,0.7136,0.7136,0.7136,0.7136,0.7136,0.7136,0.7136,0.7136,0.7136,0.7136,0.7136,0.7136,0.7136,0.7136,0.7136,0.7136,0.7136,0.7136,0.7136,0.7136,0.7195,0.7303,0.7461,0.7616,0.7732,0.7845,0.7904,0.7904,0.7904,0.7904,0.7904,0.7904,0.7904,0.7904,0.7904,0.7904,0.7904,0.7955,0.8265,0.8834,0.9093,0.951,0.9821,1.0127,1.0391,1.0502,1.0604,1.071,1.1065,1.1015,1.0761,1.0913,1.1221,1.1272,1.1272,1.1272,1.1272,1.1272,1.1272,1.1272,1.1267,1.1242,1.1045,1.0805,1.0904,1.1041,1.1139,1.1362,1.1875,1.2265,1.2468,1.2847,1.3293,1.3511,1.3511,1.3511,0.7332,0.7145,0.7629,0.8135,0.8555,0.8886,0.9224,0.9607,0.9406,0.9277,0.9298,0.9295,0.9291,0.9266,0.9246,0.9302,0.9305,0.9201,0.9305,0.9253,0.9201,0.9148,0.9253,0.9152,0.9103,0.8956,0.8742,0.8471,0.7886,0.7619,0.7405,0.7136,0.7136,0.7136,0.7136,0.7136,0.7136,0.7136,0.7136,0.7136,0.7136,0.7136,0.7136,0.7136,0.7136,0.7136,0.7136,0.7136,0.7136,0.7136,0.7136,0.7136,0.7136,0.7136,0.7136,0.7136,0.7136,0.7136,0.7136,0.7139,0.7249,0.741,0.7568,0.7681,0.7794,0.7851,0.7904,0.7904,0.7904,0.7904,0.7904,0.7904,0.7904,0.7904,0.7904,0.7904,0.7955,0.8629,0.9249,0.9718,1.0138,1.0395,1.0702,1.0909,1.107,1.112,1.112,1.1272,1.1221,1.107,1.107,1.1272,1.1272,1.1272,1.1272,1.1272,1.1272,1.1272,1.1272,1.1272,1.1272,1.1148,1.1015,1.1109,1.1225,1.1297,1.1499,1.1957,1.2317,1.2548,1.2894,1.3374,1.3511,1.3511,1.3511,0.8088,0.8256,0.8429,0.8602,0.8754,0.885,0.9096,0.9403,0.9338,0.9334,0.9359,0.95,0.9552,0.9493,0.9548,0.9618,0.9618,0.9618,0.9514,0.9566,0.9618,0.9566,0.9618,0.9618,0.9465,0.9263,0.9005,0.8633,0.8103,0.7723,0.7506,0.719,0.7136,0.7136,0.7136,0.7136,0.7136,0.7136,0.7136,0.7136,0.7136,0.7136,0.7136,0.7136,0.7136,0.7136,0.7136,0.7136,0.7136,0.7136,0.7136,0.7136,0.7136,0.7136,0.7136,0.7136,0.7136,0.7136,0.7136,0.7139,0.7195,0.7357,0.7413,0.7526,0.7732,0.7788,0.7845,0.7845,0.7904,0.7904,0.7904,0.7904,0.7904,0.7904,0.8008,0.8112,0.8633,0.9409,1.0028,1.0549,1.0808,1.0858,1.1061,1.1065,1.1221,1.1221,1.1272,1.1272,1.1272,1.1272,1.1272,1.1272,1.1272,1.1272,1.1272,1.1272,1.1272,1.1272,1.1272,1.1272,1.1272,1.1272,1.1263,1.1259,1.1297,1.14,1.1666,1.2042,1.2449,1.276,1.3101,1.3502,1.3511,1.3511,1.3511,0.8872,0.9353,0.8993,0.8846,0.8802,0.8627,0.8843,0.9233,0.919,0.9097,0.9196,0.9571,0.9507,0.9358,0.9471,0.9563,0.9618,0.9618,0.9618,0.9618,0.9618,0.9618,0.9618,0.9618,0.9566,0.9465,0.9263,0.8896,0.8474,0.815,0.783,0.7297,0.7139,0.7195,0.7136,0.7136,0.7136,0.7136,0.7136,0.7136,0.7136,0.7136,0.7136,0.7136,0.7136,0.7136,0.7136,0.7136,0.7136,0.7136,0.7136,0.7136,0.7136,0.7136,0.7136,0.7136,0.7136,0.7136,0.7136,0.7136,0.7195,0.7255,0.7257,0.7416,0.7622,0.7729,0.7735,0.7788,0.7848,0.7904,0.7904,0.7901,0.7901,0.8109,0.8268,0.853,0.9361,1.0083,1.06,1.1171,1.1272,1.1267,1.1267,1.1272,1.1272,1.1272,1.1272,1.1272,1.1272,1.1272,1.1272,1.1272,1.1272,1.1272,1.1272,1.1272,1.1272,1.1272,1.1272,1.1272,1.1272,1.1272,1.1272,1.1272,1.1327,1.1413,1.1683,1.2034,1.2449,1.2864,1.322,1.3502,1.3511,1.3511,1.3511,0.9152,0.8989,0.865,0.8627,0.8763,0.8743,0.8954,0.9287,0.9581,0.9581,0.9502,0.9962,0.9977,0.9239,0.9482,0.9662,0.9773,0.9721,0.9618,0.9618,0.9721,0.9669,0.9618,0.9614,0.9618,0.9566,0.9465,0.926,0.8847,0.8689,0.8315,0.7566,0.7566,0.7405,0.7136,0.7136,0.7136,0.7136,0.7136,0.7136,0.7136,0.7136,0.7136,0.7136,0.7136,0.7136,0.7136,0.7136,0.7136,0.7136,0.7136,0.7136,0.7136,0.7136,0.7136,0.7136,0.7136,0.7136,0.7136,0.7136,0.7195,0.7252,0.7255,0.7308,0.7464,0.7574,0.7574,0.7625,0.7735,0.7848,0.7904,0.7955,0.8058,0.8626,0.8939,0.9413,1.0039,1.0344,1.0702,1.1065,1.1272,1.1272,1.1272,1.1272,1.1272,1.1272,1.1272,1.1272,1.1272,1.1272,1.1272,1.1272,1.1272,1.1272,1.1272,1.1272,1.1272,1.1272,1.1272,1.1272,1.1272,1.1272,1.1272,1.1272,1.131,1.1383,1.1691,1.2166,1.2419,1.283,1.3228,1.3489,1.3502,1.3511,1.3511]},{"header":{"parameterUnit":"m.s-1","parameterCategory":1,"la1":31.0,"la2":29.5877,"lo1":-88.7671,"lo2":-86.6584,"dy":0.0162,"dx":0.0185,"nx":115,"ny":88,"refTime":"2024-07-10T18:00:00:Z","depth":0,"parameterNumber":3,"parameterNumberName":"V-component_of_WINDS"},"data":[0.0,0.0,0.0,0.0,0.0,0.0,0.0,0.0,0.0,0.0,0.0,0.0,0.0,0.0,0.0,0.0,0.0,0.0,0.0,0.0,0.0,0.0,0.0,0.0,0.0,0.0,0.0,0.0,0.0,0.0,0.0,0.0,0.0,0.0,0.0,0.0,0.0,0.0,0.0,0.0,0.0,0.0,0.0,0.0,0.0,0.0,0.0,0.0,0.0,0.0,0.0,0.0,0.0,0.0,0.0,0.0,0.0,0.0,0.0,0.0,0.0,0.0,0.0,0.0,0.0,0.0,0.0,0.0,0.0,0.0,0.0,0.0,0.0,0.0,0.0,0.0,0.0,0.0,0.0,0.0,0.0,0.0,0.0,0.0,0.0,0.0,0.0,0.0,0.0,0.0,0.0,0.0,0.0,0.0,0.0,0.0,0.0,0.0,0.0,0.0,0.0,0.0,0.0,0.0,0.0,0.0,0.0,0.0,0.0,0.0,0.0,0.0,0.0,0.0,0.0,0.0,0.0,0.0,0.0,0.0,0.0,0.0,0.0,0.0,0.0,0.0,0.0,0.0,0.0,0.0,0.0,0.0,0.0,0.0,0.0,0.0,0.0,0.0,0.0,0.0,0.0,0.0,0.0,0.0,0.0,0.0,0.0,0.0,0.0,0.0,0.0,0.0,0.0,0.0,0.0,0.0,0.0,0.0,0.0,0.0,0.0,0.0,0.0,0.0,0.0,0.0,0.0,0.0,0.0,0.0,0.0,0.0,0.0,0.0,0.0,0.0,0.0,0.0,0.0,0.0,0.0,0.0,0.0,0.0,0.0,0.0,0.0,0.0,0.0,0.0,0.0,0.0,0.0,0.0,0.0,0.0,0.0,0.0,0.0,0.0,0.0,0.0,0.0,0.0,0.0,0.0,0.0,0.0,0.0,0.0,0.0,0.0,0.0,0.0,0.0,0.0,0.0,0.0,0.0,0.0,0.0,0.0,0.0,0.0,0.0,0.0,0.0,0.0,0.0,0.0,0.0,0.0,0.0,0.0,0.0,0.0,0.0,0.0,0.0,0.0,0.0,0.0,0.0,0.0,0.0,0.0,0.0,0.0,0.0,0.0,0.0,0.0,0.0,0.0,0.0,0.0,0.0,0.0,0.0,0.0,0.0,0.0,0.0,0.0,0.0,0.0,0.0,0.0,0.0,0.0,0.0,0.0,0.0,0.0,0.0,0.0,0.0,0.0,0.0,0.0,0.0,0.0,0.0,0.0,0.0,0.0,0.0,0.0,0.0,0.0,0.0,0.0,0.0,0.0,0.0,0.0,0.0,0.0,0.0,0.0,0.0,0.0,0.0,0.0,0.0,0.0,0.0,0.0,0.0,0.0,0.0,0.0,0.0,0.0,0.0,0.0,0.0,0.0,0.0,0.0,0.0,0.0,0.0,0.0,0.0,0.0,0.0,0.0,0.0,0.0,0.0,0.0,0.0,0.0,0.0,0.0,0.0,0.0,0.0,0.0,0.0,0.0,0.0,0.0,0.0,0.0,0.0,0.0,0.0,0.0,0.0,0.0,0.0,0.0,0.0,0.0,0.0,0.0,0.0,0.0,0.0,0.0,0.0,0.0,0.0,0.0,0.0,0.0,0.0,0.0,0.0,0.0,0.0,0.0,0.0,0.0,0.0,0.0,0.0,0.0,0.0,0.0,0.0,0.0,0.0,0.0,0.0,0.0,0.0,0.0,0.0,0.0,0.0,0.0,0.0,0.0,0.0,0.0,0.0,0.0,0.0,0.0,0.0,0.0,0.0,0.0,0.0,0.0,0.0,0.0,0.0,0.0,0.0,0.0,0.0,0.0,0.0,0.0,0.0,0.0,0.0,0.0,0.0,0.0,0.0,0.0,0.0,0.0,0.0,0.0,0.0,0.0,0.0,0.0,0.0,0.0,0.0,0.0,0.0,0.0,0.0,0.0,0.0,0.0,0.0,0.0,0.0,0.0,0.0,0.0,0.0,0.0,0.0,0.0,0.0,0.0,0.0,0.0,0.0,0.0,0.0,0.0,0.0,0.0,0.0,0.0,0.0,0.0,0.0,0.0,0.0,0.0,0.0,0.0,0.0,0.0,0.0,0.0,0.0,0.0,0.0,0.0,0.0,0.0,0.0,0.0,0.0,0.0,0.0,0.0,0.0,0.0,0.0,0.0,0.0,0.0,0.0,0.0,0.0,0.0,0.0,0.0,0.0,0.0,0.0,0.0,0.0,0.0,0.0,0.0,0.0,0.0,0.0,0.0,0.0,0.0,0.0,0.0,0.0,0.0,0.0,0.0,0.0,0.0,0.0,0.0,0.0,0.0,0.0,0.0,0.0,0.0,0.0,0.0,0.0,0.0,0.0,0.0,0.0,0.0,0.0,0.0,0.0,0.0,0.0,0.0,0.0,0.0,0.0,0.0,0.0,0.0,0.0,0.0,0.0,0.0,0.0,0.0,0.0,0.0,0.0,0.0,0.0,0.0,0.0,0.0,0.0,0.0,0.0,0.0,0.0,0.0,0.0,0.0,0.0,0.0,0.0,0.0,0.0,0.0,0.0,0.0,0.0,0.0,0.0,0.0,0.0,0.0,0.0,0.0,0.0,0.0,0.0,0.0,0.0,0.0,0.0,0.0,0.0,0.0,0.0,0.0,0.0,0.0,0.0,0.0,0.0,0.0,0.0,0.0,0.0,0.0,0.0,0.0,0.0,0.0,0.0,0.0,0.0,0.0,0.0,0.0,0.0,0.0,0.0,0.0,0.0,0.0,0.0,0.0,0.0,0.0,0.0,0.0,0.0,0.0,0.0,0.0,0.0,0.0,0.0,0.0,0.0,0.0,0.0,0.0,0.0,0.0,0.0,0.0,0.0,0.0,0.0,0.0,0.0,0.0,0.0,0.0,0.0,0.0,0.0,0.0,0.0,0.0,0.0,0.0,0.0,0.0,0.0,0.0,0.0,0.0,0.0,0.0,0.0,0.0,0.0,0.0,0.0,0.0,0.0,0.0,0.0,0.0,0.0,0.0,0.0,0.0,0.0,0.0,0.0,0.0,0.0,0.0,0.0,0.0,0.0,0.0,0.0,0.0,0.0,0.0,0.0,0.0,0.0,0.0,0.0,0.0,0.0,0.0,0.0,0.0,0.0,0.0,0.0,0.0,0.0,0.0,0.0,0.0,0.0,0.0,0.0,0.0,0.0,0.0,0.0,0.0,0.0,0.0,0.0,0.0,0.0,0.0,0.0,0.0,0.0,0.0,0.0,0.0,0.0,0.0,0.0,0.0,0.0,0.0,0.0,0.0,0.0,0.0,0.0,0.0,0.0,0.0,0.0,0.0,0.0,0.0,0.0,0.0,0.0,0.0,0.0,0.0,0.0,0.0,0.0,0.0,0.0,0.0,0.0,0.0,0.0,0.0,0.0,0.0,0.0,0.0,0.0,0.0,0.0,0.0,0.0,0.0,0.0,0.0,0.0,0.0,0.0,0.0,0.0,0.0,0.0,0.0,0.0,0.0,0.0,0.0,0.0,0.0,0.0,0.0,0.0,0.0,0.0,0.0,0.0,0.0,0.0,0.0,0.0,0.0,0.0,0.0,0.0,0.0,0.0,0.0,0.0,0.0,0.0,0.0,0.0,0.0,0.0,0.0,0.0,0.0,0.0,0.0,0.0,0.0,0.0,0.0,0.0,0.0,0.0,0.0,0.0,0.0,0.0,0.0,0.0,0.0,0.0,0.0,0.0,0.0,0.0,0.0,0.0,0.0,0.0,0.0,0.0,0.0,0.0,0.0,0.0,0.0,0.0,0.0,0.0,0.0,0.0,0.0,0.0,0.0,0.0,0.0,0.0,0.0,0.0,0.0,0.0,0.0,0.0,0.0,0.0,0.0,0.0,0.0,0.0,0.0,0.0,0.0,0.0,0.0,0.0,0.0,0.0,0.0,0.0,0.0,0.0,0.0,0.0,0.0,0.0,0.0,0.0,0.0,0.0,0.0,0.0,0.0,0.0,0.0,0.0,0.0,0.0,0.0,0.0,0.0,0.0,0.0,0.0,0.0,0.0,0.0,0.0,0.0,0.0,0.0,0.0,0.0,0.0,0.0,0.0,0.0,0.0,0.0,0.0,0.0,0.0,0.0,0.0,0.0,0.0,0.0,0.0,0.0,0.0,0.0,0.0,0.0,0.0,0.0,0.0,0.0,0.0,0.0,0.0,0.0,0.0,0.0,0.0,0.0,0.0,0.0,0.0,0.0,0.0,0.0,0.0,0.0,-1.369,0.0,0.0,0.0,0.0,0.0,0.0,0.0,0.0,0.0,0.0,0.0,0.0,0.0,0.0,0.0,0.0,0.0,0.0,0.0,0.0,0.0,0.0,0.0,0.0,0.0,0.0,0.0,0.0,0.0,0.0,0.0,0.0,0.0,0.0,0.0,0.0,0.0,0.0,0.0,0.0,0.0,0.0,0.0,0.0,0.0,0.0,0.0,0.0,0.0,0.0,0.0,0.0,0.0,0.0,0.0,0.0,0.0,0.0,0.0,0.0,0.0,0.0,0.0,0.0,0.0,0.0,0.0,0.0,0.0,0.0,0.0,0.0,0.0,0.0,0.0,0.0,0.0,0.0,0.0,0.0,0.0,0.0,0.0,0.0,0.0,0.0,0.0,0.0,0.0,0.0,0.0,0.0,0.0,0.0,0.0,0.0,0.0,0.0,0.0,0.0,0.0,0.0,0.0,0.0,0.0,0.0,0.0,0.0,0.0,0.0,-1.3797,-1.3449,-1.3479,-1.3381,-1.3155,0.0,0.0,0.0,0.0,0.0,0.0,0.0,0.0,0.0,0.0,0.0,0.0,0.0,0.0,0.0,0.0,0.0,0.0,0.0,0.0,0.0,0.0,0.0,0.0,0.0,0.0,0.0,0.0,0.0,0.0,0.0,0.0,0.0,0.0,0.0,0.0,0.0,0.0,0.0,0.0,0.0,0.0,0.0,0.0,0.0,0.0,0.0,0.0,0.0,0.0,0.0,0.0,0.0,0.0,0.0,0.0,0.0,0.0,0.0,0.0,0.0,0.0,0.0,0.0,0.0,0.0,0.0,0.0,0.0,0.0,0.0,0.0,0.0,0.0,0.0,0.0,0.0,0.0,0.0,0.0,0.0,0.0,0.0,0.0,0.0,0.0,0.0,0.0,0.0,0.0,0.0,0.0,0.0,0.0,0.0,0.0,0.0,0.0,0.0,0.0,0.0,0.0,0.0,0.0,0.0,0.0,0.0,0.0,0.0,0.0,0.0,0.0,-1.3715,-1.3613,-1.2775,0.0,0.0,0.0,0.0,0.0,0.0,0.0,0.0,0.0,0.0,0.0,0.0,0.0,0.0,0.0,0.0,0.0,0.0,0.0,0.0,0.0,0.0,0.0,0.0,0.0,0.0,0.0,0.0,0.0,0.0,0.0,0.0,0.0,0.0,0.0,0.0,0.0,0.0,0.0,0.0,0.0,0.0,0.0,0.0,0.0,0.0,0.0,0.0,0.0,0.0,0.0,0.0,0.0,0.0,0.0,0.0,0.0,0.0,0.0,0.0,0.0,0.0,0.0,0.0,0.0,0.0,0.0,0.0,0.0,0.0,0.0,0.0,0.0,0.0,0.0,0.0,0.0,0.0,0.0,0.0,0.0,0.0,0.0,0.0,0.0,0.0,0.0,0.0,0.0,0.0,0.0,0.0,0.0,0.0,0.0,0.0,0.0,0.0,0.0,0.0,0.0,0.0,0.0,0.0,0.0,0.0,0.0,0.0,0.0,0.0,-1.321,-1.4036,-1.3892,0.0,-1.3379,0.0,0.0,0.0,0.0,0.0,0.0,0.0,0.0,0.0,0.0,0.0,0.0,0.0,0.0,0.0,0.0,0.0,0.0,0.0,0.0,0.0,0.0,0.0,0.0,0.0,0.0,0.0,0.0,0.0,0.0,0.0,0.0,0.0,0.0,0.0,0.0,0.0,0.0,0.0,0.0,0.0,0.0,0.0,0.0,0.0,0.0,0.0,0.0,0.0,0.0,0.0,0.0,0.0,0.0,0.0,0.0,0.0,0.0,0.0,0.0,0.0,0.0,0.0,0.0,0.0,0.0,0.0,0.0,0.0,0.0,0.0,0.0,0.0,0.0,0.0,0.0,0.0,0.0,0.0,0.0,0.0,0.0,0.0,0.0,0.0,0.0,0.0,0.0,0.0,0.0,0.0,0.0,0.0,0.0,0.0,0.0,0.0,0.0,0.0,0.0,0.0,0.0,0.0,0.0,0.0,0.0,0.0,0.0,0.0,0.0,-1.3022,-1.3084,-1.3198,-1.3282,0.0,0.0,0.0,0.0,0.0,0.0,0.0,0.0,0.0,0.0,0.0,0.0,0.0,0.0,0.0,0.0,0.0,0.0,0.0,0.0,0.0,0.0,0.0,0.0,0.0,0.0,0.0,0.0,0.0,0.0,0.0,0.0,0.0,0.0,0.0,0.0,0.0,0.0,0.0,0.0,0.0,0.0,0.0,0.0,0.0,0.0,0.0,0.0,0.0,0.0,0.0,0.0,0.0,0.0,0.0,0.0,0.0,0.0,0.0,0.0,0.0,0.0,0.0,0.0,0.0,0.0,0.0,0.0,0.0,0.0,0.0,0.0,0.0,0.0,0.0,0.0,0.0,0.0,0.0,0.0,0.0,0.0,0.0,0.0,0.0,0.0,0.0,0.0,0.0,0.0,0.0,0.0,0.0,0.0,0.0,0.0,0.0,0.0,0.0,0.0,0.0,0.0,0.0,0.0,0.0,0.0,0.0,0.0,0.0,0.0,-1.2387,0.0,-1.2542,-1.2976,-1.3191,-1.3217,0.0,0.0,0.0,0.0,0.0,0.0,0.0,0.0,0.0,0.0,0.0,0.0,0.0,0.0,0.0,0.0,0.0,0.0,0.0,0.0,0.0,0.0,0.0,0.0,0.0,0.0,0.0,0.0,0.0,0.0,0.0,0.0,0.0,0.0,0.0,0.0,0.0,0.0,0.0,0.0,0.0,0.0,0.0,0.0,0.0,0.0,0.0,0.0,0.0,0.0,0.0,0.0,0.0,0.0,0.0,0.0,0.0,0.0,0.0,0.0,0.0,0.0,0.0,0.0,0.0,0.0,0.0,0.0,0.0,0.0,0.0,0.0,0.0,0.0,0.0,0.0,0.0,0.0,0.0,0.0,0.0,0.0,0.0,0.0,0.0,0.0,0.0,0.0,0.0,0.0,0.0,0.0,0.0,0.0,0.0,0.0,0.0,0.0,0.0,0.0,0.0,0.0,0.0,0.0,0.0,0.0,0.0,0.0,0.0,-1.1973,-1.2138,-1.3031,-1.364,-1.3712,0.0,0.0,0.0,0.0,0.0,0.0,0.0,0.0,0.0,0.0,0.0,0.0,0.0,0.0,0.0,0.0,0.0,0.0,0.0,0.0,0.0,0.0,0.0,0.0,0.0,0.0,0.0,0.0,0.0,0.0,0.0,0.0,0.0,0.0,0.0,0.0,0.0,0.0,0.0,0.0,0.0,0.0,0.0,0.0,0.0,0.0,0.0,0.0,0.0,0.0,0.0,0.0,0.0,0.0,0.0,0.0,0.0,0.0,0.0,0.0,0.0,0.0,0.0,0.0,0.0,0.0,0.0,0.0,0.0,0.0,0.0,0.0,0.0,0.0,0.0,0.0,0.0,0.0,0.0,0.0,0.0,0.0,0.0,0.0,0.0,0.0,0.0,0.0,0.0,0.0,0.0,0.0,0.0,0.0,0.0,0.0,0.0,0.0,0.0,0.0,0.0,0.0,0.0,0.0,0.0,0.0,0.0,0.0,0.0,-1.1196,-1.1533,-1.2278,-1.3359,-1.3146,-1.3204,0.0,0.0,0.0,0.0,0.0,0.0,0.0,0.0,0.0,0.0,0.0,0.0,0.0,0.0,0.0,0.0,0.0,0.0,0.0,0.0,0.0,0.0,0.0,0.0,0.0,0.0,0.0,0.0,0.0,0.0,0.0,0.0,0.0,0.0,0.0,0.0,0.0,0.0,0.0,0.0,0.0,0.0,0.0,0.0,0.0,0.0,0.0,0.0,0.0,0.0,0.0,0.0,0.0,0.0,0.0,0.0,0.0,0.0,0.0,0.0,0.0,0.0,0.0,0.0,0.0,0.0,0.0,0.0,0.0,0.0,0.0,0.0,0.0,0.0,0.0,0.0,0.0,0.0,0.0,0.0,0.0,0.0,0.0,0.0,0.0,0.0,0.0,0.0,0.0,0.0,0.0,0.0,0.0,0.0,0.0,0.0,0.0,0.0,0.0,0.0,0.0,0.0,0.0,0.0,0.0,0.0,0.0,0.0,0.0,-1.0823,0.0,-1.2475,0.0,-1.277,-1.2832,0.0,0.0,0.0,0.0,0.0,0.0,0.0,0.0,0.0,0.0,0.0,0.0,0.0,0.0,0.0,0.0,0.0,0.0,0.0,0.0,0.0,0.0,0.0,0.0,0.0,0.0,0.0,0.0,0.0,0.0,0.0,0.0,0.0,0.0,0.0,0.0,0.0,0.0,0.0,0.0,0.0,0.0,0.0,0.0,0.0,0.0,0.0,0.0,0.0,0.0,0.0,0.0,0.0,0.0,0.0,0.0,0.0,0.0,0.0,0.0,0.0,0.0,0.0,0.0,0.0,0.0,0.0,0.0,0.0,0.0,0.0,0.0,0.0,0.0,0.0,0.0,0.0,0.0,0.0,0.0,0.0,0.0,0.0,0.0,0.0,0.0,0.0,0.0,0.0,0.0,0.0,0.0,0.0,0.0,0.0,0.0,0.0,0.0,0.0,0.0,0.0,0.0,0.0,0.0,0.0,0.0,0.0,0.0,-1.0491,-1.1542,-1.2332,-1.2607,-1.234,-1.2692,-1.2647,0.0,0.0,0.0,0.0,0.0,0.0,0.0,0.0,0.0,0.0,0.0,0.0,0.0,0.0,0.0,0.0,0.0,0.0,0.0,0.0,0.0,0.0,0.0,0.0,0.0,0.0,0.0,0.0,0.0,0.0,0.0,0.0,0.0,0.0,0.0,0.0,0.0,0.0,0.0,0.0,0.0,0.0,0.0,0.0,0.0,0.0,0.0,0.0,0.0,0.0,0.0,0.0,0.0,0.0,0.0,0.0,0.0,0.0,0.0,0.0,0.0,0.0,0.0,0.0,0.0,0.0,0.0,0.0,0.0,0.0,0.0,0.0,0.0,0.0,0.0,0.0,0.0,0.0,0.0,0.0,0.0,0.0,0.0,0.0,0.0,0.0,0.0,0.0,0.0,0.0,0.0,0.0,0.0,0.0,0.0,0.0,0.0,0.0,0.0,0.0,0.0,0.0,0.0,0.0,0.0,0.0,0.0,0.0,0.0,-1.1004,-1.1792,-1.2516,-1.3002,-1.2512,-1.26,0.0,0.0,0.0,0.0,0.0,0.0,0.0,0.0,0.0,0.0,0.0,0.0,0.0,0.0,0.0,0.0,0.0,0.0,0.0,0.0,0.0,0.0,0.0,0.0,0.0,0.0,0.0,0.0,0.0,0.0,0.0,0.0,0.0,0.0,0.0,0.0,0.0,0.0,0.0,0.0,0.0,0.0,0.0,0.0,0.0,0.0,0.0,0.0,0.0,0.0,0.0,0.0,0.0,0.0,0.0,0.0,0.0,0.0,0.0,0.0,0.0,0.0,0.0,0.0,0.0,0.0,0.0,0.0,0.0,0.0,0.0,0.0,0.0,0.0,0.0,0.0,0.0,0.0,0.0,0.0,0.0,0.0,0.0,0.0,0.0,0.0,0.0,0.0,0.0,0.0,0.0,0.0,0.0,0.0,0.0,0.0,0.0,0.0,0.0,0.0,0.0,0.0,0.0,0.0,0.0,0.0,0.0,0.0,0.0,-1.1393,-1.2195,-1.2859,-1.3357,-1.2865,-1.3061,-1.4008,0.0,0.0,0.0,0.0,0.0,0.0,0.0,0.0,0.0,0.0,0.0,0.0,0.0,0.0,0.0,0.0,0.0,0.0,0.0,0.0,0.0,0.0,0.0,0.0,0.0,0.0,0.0,0.0,0.0,0.0,0.0,0.0,0.0,0.0,0.0,0.0,0.0,0.0,0.0,0.0,0.0,0.0,0.0,0.0,0.0,0.0,0.0,0.0,0.0,0.0,0.0,0.0,0.0,0.0,0.0,0.0,0.0,0.0,0.0,0.0,0.0,0.0,0.0,0.0,0.0,0.0,0.0,0.0,0.0,0.0,0.0,0.0,0.0,0.0,0.0,0.0,0.0,0.0,0.0,0.0,0.0,0.0,0.0,0.0,0.0,0.0,0.0,0.0,0.0,0.0,0.0,0.0,0.0,0.0,0.0,0.0,0.0,0.0,0.0,0.0,0.0,0.0,0.0,0.0,0.0,0.0,0.0,0.0,-1.2378,-1.3226,-1.3565,-1.3391,-1.3633,-1.3938,0.0,0.0,0.0,0.0,0.0,0.0,0.0,0.0,0.0,0.0,0.0,0.0,0.0,0.0,0.0,0.0,0.0,0.0,0.0,0.0,0.0,0.0,0.0,0.0,0.0,0.0,0.0,0.0,0.0,0.0,0.0,0.0,0.0,0.0,0.0,0.0,0.0,0.0,0.0,0.0,0.0,0.0,0.0,0.0,0.0,0.0,0.0,0.0,0.0,0.0,0.0,0.0,0.0,0.0,0.0,0.0,0.0,0.0,0.0,0.0,0.0,0.0,0.0,0.0,0.0,0.0,0.0,0.0,0.0,0.0,0.0,0.0,0.0,0.0,0.0,0.0,0.0,0.0,0.0,0.0,0.0,0.0,0.0,0.0,0.0,0.0,0.0,0.0,0.0,0.0,0.0,0.0,0.0,0.0,0.0,0.0,0.0,0.0,0.0,0.0,0.0,0.0,0.0,0.0,0.0,0.0,0.0,0.0,0.0,-1.2429,-1.3068,-1.3588,-1.4029,-1.3882,-1.4147,0.0,0.0,0.0,0.0,0.0,0.0,0.0,0.0,0.0,0.0,0.0,0.0,0.0,0.0,0.0,0.0,0.0,0.0,0.0,0.0,0.0,0.0,0.0,0.0,0.0,0.0,0.0,0.0,0.0,0.0,0.0,0.0,0.0,0.0,0.0,0.0,0.0,0.0,0.0,0.0,0.0,0.0,0.0,0.0,0.0,0.0,0.0,0.0,0.0,0.0,0.0,0.0,0.0,0.0,0.0,0.0,0.0,0.0,0.0,0.0,0.0,0.0,0.0,0.0,0.0,0.0,0.0,0.0,0.0,0.0,0.0,0.0,0.0,0.0,0.0,0.0,0.0,0.0,0.0,0.0,0.0,0.0,0.0,0.0,0.0,0.0,0.0,0.0,0.0,0.0,0.0,0.0,0.0,0.0,0.0,0.0,0.0,0.0,0.0,0.0,0.0,0.0,0.0,0.0,0.0,0.0,0.0,0.0,-1.2508,-1.271,-1.2775,-1.3162,-1.3893,-1.3724,-1.4255,0.0,0.0,0.0,0.0,0.0,0.0,0.0,0.0,0.0,0.0,0.0,0.0,0.0,0.0,0.0,0.0,0.0,0.0,0.0,0.0,0.0,0.0,0.0,0.0,0.0,0.0,0.0,0.0,0.0,0.0,0.0,0.0,0.0,0.0,0.0,0.0,0.0,0.0,0.0,0.0,0.0,0.0,0.0,0.0,0.0,0.0,0.0,0.0,0.0,0.0,0.0,0.0,0.0,0.0,0.0,0.0,0.0,0.0,0.0,0.0,0.0,0.0,0.0,0.0,0.0,0.0,0.0,0.0,0.0,0.0,0.0,0.0,0.0,0.0,0.0,0.0,0.0,0.0,0.0,0.0,0.0,0.0,0.0,0.0,0.0,0.0,0.0,0.0,0.0,0.0,0.0,0.0,0.0,0.0,0.0,0.0,0.0,0.0,0.0,0.0,0.0,0.0,0.0,0.0,0.0,0.0,0.0,0.0,-1.2673,-1.3085,-1.2534,-1.2574,-1.3288,-1.3444,-1.4339,0.0,0.0,0.0,0.0,0.0,0.0,0.0,0.0,0.0,0.0,0.0,0.0,0.0,0.0,0.0,0.0,0.0,0.0,0.0,0.0,0.0,0.0,0.0,0.0,0.0,0.0,0.0,0.0,0.0,0.0,0.0,0.0,0.0,0.0,0.0,0.0,0.0,0.0,0.0,0.0,0.0,0.0,0.0,0.0,0.0,0.0,0.0,0.0,0.0,0.0,0.0,0.0,0.0,0.0,0.0,0.0,0.0,0.0,0.0,0.0,0.0,0.0,0.0,0.0,0.0,0.0,0.0,0.0,0.0,0.0,0.0,0.0,0.0,0.0,0.0,0.0,0.0,0.0,0.0,0.0,0.0,0.0,0.0,0.0,0.0,0.0,0.0,0.0,0.0,0.0,0.0,0.0,0.0,0.0,0.0,0.0,0.0,0.0,0.0,0.0,0.0,0.0,0.0,0.0,0.0,0.0,0.0,0.0,-1.2776,-1.2448,-1.2814,-1.2946,-1.2786,-1.3698,-1.4805,0.0,0.0,0.0,0.0,0.0,0.0,0.0,0.0,0.0,0.0,0.0,0.0,0.0,0.0,0.0,0.0,0.0,0.0,0.0,0.0,0.0,0.0,0.0,0.0,0.0,0.0,0.0,0.0,0.0,0.0,0.0,0.0,0.0,0.0,0.0,0.0,0.0,0.0,0.0,0.0,0.0,0.0,0.0,0.0,0.0,0.0,0.0,0.0,-1.9141,0.0,0.0,0.0,0.0,0.0,0.0,0.0,0.0,0.0,0.0,0.0,0.0,0.0,0.0,0.0,0.0,0.0,0.0,0.0,0.0,0.0,0.0,0.0,0.0,0.0,0.0,0.0,0.0,0.0,0.0,0.0,0.0,0.0,0.0,0.0,0.0,0.0,0.0,0.0,0.0,0.0,0.0,0.0,0.0,0.0,0.0,0.0,0.0,0.0,0.0,0.0,0.0,0.0,0.0,0.0,0.0,0.0,0.0,0.0,-1.2728,-1.2774,-1.2742,-1.2729,-1.281,-1.3651,-1.478,0.0,0.0,0.0,0.0,0.0,0.0,0.0,0.0,0.0,0.0,0.0,0.0,0.0,0.0,0.0,0.0,0.0,0.0,0.0,0.0,0.0,0.0,0.0,0.0,0.0,0.0,0.0,0.0,0.0,0.0,0.0,0.0,0.0,0.0,0.0,0.0,0.0,0.0,0.0,0.0,0.0,0.0,0.0,0.0,0.0,0.0,0.0,0.0,0.0,0.0,0.0,0.0,0.0,0.0,0.0,0.0,0.0,0.0,0.0,0.0,0.0,0.0,0.0,0.0,0.0,0.0,0.0,0.0,0.0,0.0,0.0,0.0,0.0,0.0,0.0,0.0,0.0,0.0,0.0,0.0,0.0,0.0,0.0,0.0,0.0,0.0,0.0,0.0,0.0,0.0,0.0,0.0,0.0,0.0,0.0,0.0,0.0,0.0,0.0,0.0,0.0,0.0,0.0,0.0,0.0,0.0,0.0,-1.3186,-1.281,-1.338,-1.2843,-1.2741,-1.3176,-1.3602,-1.4582,-1.6138,0.0,0.0,0.0,0.0,0.0,0.0,0.0,0.0,0.0,0.0,0.0,0.0,0.0,0.0,0.0,0.0,0.0,0.0,0.0,0.0,0.0,0.0,0.0,0.0,0.0,0.0,0.0,0.0,0.0,0.0,0.0,0.0,0.0,0.0,0.0,0.0,0.0,0.0,-1.5952,-1.7526,0.0,0.0,0.0,0.0,0.0,0.0,0.0,0.0,-1.9295,0.0,0.0,0.0,0.0,0.0,0.0,0.0,0.0,0.0,0.0,0.0,0.0,0.0,0.0,0.0,0.0,0.0,0.0,0.0,0.0,0.0,0.0,0.0,0.0,0.0,0.0,0.0,0.0,0.0,0.0,0.0,0.0,0.0,0.0,0.0,0.0,0.0,0.0,0.0,0.0,0.0,0.0,0.0,0.0,0.0,0.0,0.0,0.0,0.0,0.0,0.0,0.0,0.0,0.0,0.0,0.0,-1.3995,-1.3617,-1.3441,-1.3594,-1.4083,-1.4246,-1.4005,-1.3946,-1.4664,-1.6184,0.0,0.0,0.0,0.0,0.0,0.0,0.0,0.0,0.0,0.0,0.0,0.0,0.0,0.0,0.0,0.0,0.0,0.0,0.0,0.0,0.0,0.0,0.0,0.0,0.0,0.0,0.0,0.0,0.0,0.0,0.0,0.0,0.0,0.0,0.0,0.0,0.0,0.0,0.0,-1.7547,-1.8191,0.0,0.0,0.0,0.0,0.0,0.0,0.0,0.0,-1.9528,0.0,0.0,0.0,0.0,0.0,0.0,0.0,0.0,0.0,0.0,0.0,0.0,0.0,0.0,0.0,0.0,0.0,0.0,0.0,0.0,0.0,0.0,0.0,0.0,0.0,0.0,0.0,0.0,0.0,0.0,0.0,0.0,0.0,0.0,0.0,0.0,0.0,0.0,0.0,0.0,0.0,0.0,0.0,0.0,0.0,0.0,0.0,0.0,0.0,0.0,0.0,0.0,0.0,0.0,0.0,-1.4542,-1.4101,-1.4037,-1.446,-1.4662,-1.4658,-1.4495,-1.4483,-1.5152,0.0,0.0,0.0,0.0,0.0,0.0,0.0,0.0,0.0,0.0,0.0,0.0,0.0,0.0,0.0,0.0,0.0,0.0,0.0,0.0,0.0,0.0,0.0,0.0,0.0,0.0,0.0,0.0,0.0,0.0,0.0,0.0,0.0,0.0,0.0,0.0,0.0,0.0,0.0,0.0,-1.7432,-1.7717,-1.8191,0.0,0.0,0.0,0.0,0.0,0.0,-1.9042,-1.9447,0.0,0.0,0.0,0.0,0.0,0.0,0.0,0.0,0.0,0.0,0.0,0.0,0.0,0.0,0.0,0.0,0.0,0.0,0.0,0.0,0.0,0.0,0.0,0.0,0.0,0.0,0.0,0.0,0.0,0.0,0.0,0.0,0.0,0.0,0.0,0.0,0.0,0.0,0.0,0.0,0.0,0.0,0.0,0.0,0.0,0.0,0.0,0.0,0.0,0.0,0.0,0.0,0.0,0.0,0.0,-1.5088,-1.4523,-1.4553,-1.5297,-1.5057,-1.4911,-1.4957,-1.4984,-1.551,0.0,0.0,0.0,0.0,0.0,0.0,0.0,0.0,0.0,0.0,0.0,0.0,0.0,0.0,0.0,0.0,0.0,0.0,0.0,0.0,0.0,0.0,0.0,0.0,0.0,0.0,0.0,0.0,0.0,0.0,0.0,0.0,0.0,0.0,0.0,0.0,0.0,0.0,0.0,0.0,0.0,-1.7442,-1.8359,-1.8553,0.0,0.0,0.0,0.0,-1.8751,-1.886,0.0,0.0,0.0,0.0,0.0,0.0,0.0,0.0,0.0,0.0,0.0,0.0,0.0,0.0,0.0,0.0,0.0,0.0,0.0,0.0,0.0,0.0,0.0,0.0,0.0,0.0,0.0,0.0,0.0,0.0,0.0,0.0,0.0,0.0,0.0,0.0,0.0,0.0,0.0,0.0,0.0,0.0,0.0,0.0,0.0,0.0,0.0,0.0,0.0,0.0,0.0,0.0,0.0,0.0,0.0,0.0,-1.4446,-1.463,-1.4965,-1.5533,-1.5574,-1.5659,-1.5839,-1.5032,-1.536,0.0,0.0,0.0,0.0,0.0,0.0,0.0,0.0,0.0,0.0,0.0,0.0,0.0,0.0,0.0,0.0,0.0,0.0,0.0,0.0,0.0,0.0,0.0,0.0,0.0,0.0,0.0,0.0,0.0,0.0,0.0,0.0,0.0,0.0,0.0,0.0,0.0,0.0,0.0,0.0,0.0,-1.7694,-1.841,-1.8162,-1.7984,0.0,0.0,-1.8489,-1.8533,-1.8706,0.0,0.0,0.0,0.0,0.0,0.0,0.0,0.0,0.0,0.0,0.0,0.0,0.0,0.0,0.0,0.0,0.0,0.0,0.0,0.0,0.0,0.0,0.0,0.0,0.0,0.0,0.0,0.0,0.0,0.0,0.0,0.0,0.0,0.0,0.0,0.0,0.0,0.0,0.0,0.0,0.0,0.0,0.0,0.0,0.0,0.0,0.0,0.0,0.0,0.0,0.0,0.0,0.0,0.0,0.0,-1.3661,-1.5597,-1.5192,-1.5429,-1.6388,-1.5931,-1.5587,-1.5438,-1.523,-1.5376,0.0,0.0,0.0,0.0,0.0,0.0,0.0,0.0,0.0,0.0,0.0,0.0,0.0,0.0,0.0,0.0,0.0,0.0,0.0,0.0,0.0,0.0,0.0,0.0,0.0,0.0,0.0,0.0,0.0,0.0,0.0,0.0,0.0,0.0,0.0,0.0,0.0,0.0,0.0,0.0,0.0,0.0,-1.8064,-1.8162,0.0,0.0,0.0,-1.8489,-1.8399,0.0,0.0,0.0,0.0,0.0,0.0,0.0,0.0,0.0,0.0,0.0,0.0,0.0,0.0,0.0,0.0,0.0,0.0,0.0,0.0,0.0,0.0,0.0,0.0,0.0,0.0,0.0,0.0,0.0,0.0,0.0,0.0,0.0,0.0,0.0,0.0,0.0,0.0,0.0,0.0,0.0,0.0,0.0,0.0,0.0,0.0,0.0,0.0,0.0,0.0,0.0,0.0,0.0,0.0,0.0,0.0,0.0,-1.6564,-1.5758,-1.593,-1.7098,-1.6054,-1.5362,-1.5168,-1.5223,0.0,0.0,0.0,0.0,0.0,0.0,0.0,0.0,0.0,0.0,0.0,0.0,0.0,0.0,0.0,0.0,0.0,0.0,0.0,0.0,0.0,0.0,0.0,0.0,0.0,0.0,0.0,-1.4105,0.0,0.0,0.0,0.0,0.0,0.0,0.0,0.0,0.0,0.0,0.0,0.0,0.0,0.0,-1.8066,-1.8304,-1.8499,-1.8534,0.0,0.0,-1.8489,-1.8359,-1.8441,-1.8797,0.0,0.0,0.0,0.0,0.0,0.0,0.0,0.0,0.0,0.0,0.0,0.0,0.0,0.0,0.0,0.0,0.0,0.0,0.0,0.0,0.0,0.0,0.0,0.0,0.0,0.0,0.0,0.0,0.0,0.0,0.0,0.0,0.0,0.0,0.0,0.0,0.0,0.0,0.0,0.0,0.0,0.0,0.0,0.0,0.0,0.0,0.0,0.0,0.0,0.0,0.0,0.0,0.0,0.0,0.0,-1.634,-1.6227,-1.6561,-1.7397,-1.5943,-1.5273,-1.5537,-1.4681,-1.4574,0.0,0.0,0.0,0.0,0.0,0.0,0.0,0.0,0.0,0.0,0.0,0.0,0.0,0.0,0.0,0.0,0.0,0.0,0.0,0.0,0.0,0.0,0.0,0.0,0.0,0.0,0.0,0.0,0.0,0.0,0.0,0.0,0.0,0.0,0.0,0.0,0.0,0.0,0.0,0.0,0.0,-1.8801,-1.9723,-1.9291,-1.8782,0.0,0.0,-1.8351,-1.8465,-1.8408,-1.8419,-1.8749,0.0,0.0,0.0,0.0,0.0,0.0,0.0,0.0,0.0,0.0,0.0,0.0,0.0,0.0,0.0,0.0,0.0,0.0,0.0,0.0,0.0,0.0,0.0,0.0,0.0,0.0,0.0,0.0,0.0,0.0,0.0,0.0,0.0,0.0,0.0,0.0,0.0,0.0,0.0,0.0,0.0,0.0,0.0,0.0,0.0,0.0,0.0,0.0,0.0,0.0,0.0,0.0,0.0,-1.4873,-1.6251,-1.638,-1.6635,-1.6955,-1.5967,-1.5292,-1.5058,-1.4425,-1.435,0.0,0.0,0.0,0.0,0.0,0.0,0.0,0.0,0.0,0.0,0.0,0.0,0.0,0.0,0.0,0.0,0.0,0.0,0.0,0.0,0.0,0.0,0.0,0.0,0.0,0.0,0.0,0.0,-1.4827,-1.4856,-1.4943,0.0,0.0,0.0,0.0,0.0,0.0,0.0,0.0,0.0,0.0,-1.9925,-1.9386,-1.9321,0.0,0.0,-1.9239,-1.9326,-1.9245,-1.9299,-1.9409,-1.9605,-2.021,0.0,0.0,0.0,0.0,0.0,0.0,0.0,0.0,0.0,0.0,0.0,0.0,0.0,0.0,0.0,0.0,0.0,0.0,0.0,0.0,0.0,0.0,0.0,0.0,0.0,0.0,0.0,0.0,0.0,0.0,0.0,0.0,0.0,0.0,0.0,0.0,0.0,0.0,0.0,0.0,0.0,0.0,0.0,0.0,0.0,0.0,0.0,0.0,0.0,0.0,0.0,0.0,-1.5418,-1.6332,-1.6814,-1.7045,-1.6954,-1.6075,-1.5352,-1.4831,-1.4382,-1.4174,0.0,0.0,0.0,0.0,0.0,0.0,0.0,0.0,0.0,0.0,0.0,0.0,0.0,0.0,0.0,0.0,0.0,0.0,0.0,0.0,0.0,0.0,0.0,0.0,0.0,0.0,0.0,0.0,-1.5584,-1.5742,-1.6189,0.0,0.0,0.0,0.0,0.0,0.0,0.0,0.0,0.0,0.0,-2.0789,-1.991,-2.0086,-2.0218,-1.9998,-2.0185,-2.0254,-2.0121,-2.0245,-2.0393,-2.0497,0.0,0.0,0.0,0.0,0.0,0.0,0.0,0.0,0.0,0.0,0.0,0.0,0.0,0.0,0.0,0.0,0.0,0.0,0.0,0.0,0.0,0.0,0.0,0.0,0.0,0.0,0.0,0.0,0.0,0.0,-1.3727,0.0,0.0,0.0,0.0,0.0,0.0,0.0,0.0,0.0,0.0,0.0,0.0,0.0,0.0,0.0,0.0,0.0,0.0,0.0,0.0,0.0,0.0,-1.669,-1.6681,-1.7631,-1.7959,-1.755,-1.6271,-1.5431,-1.5091,-1.4571,-1.4023,-1.3489,0.0,0.0,0.0,0.0,0.0,0.0,0.0,0.0,0.0,0.0,0.0,0.0,0.0,0.0,0.0,0.0,0.0,0.0,0.0,0.0,0.0,0.0,0.0,0.0,0.0,0.0,-1.6388,-1.625,-1.6466,0.0,0.0,0.0,0.0,0.0,0.0,0.0,0.0,0.0,0.0,-2.1284,-2.1302,-2.1735,-2.1823,-2.1599,-2.1147,-2.109,-2.1069,-2.0992,-2.1096,-2.1196,0.0,0.0,0.0,0.0,0.0,0.0,0.0,0.0,0.0,0.0,0.0,0.0,0.0,0.0,0.0,0.0,0.0,0.0,0.0,0.0,0.0,0.0,0.0,0.0,0.0,0.0,0.0,-1.6496,-1.6432,0.0,0.0,0.0,0.0,0.0,0.0,0.0,0.0,0.0,0.0,0.0,-1.6373,-1.5848,0.0,0.0,0.0,0.0,0.0,0.0,0.0,0.0,0.0,0.0,0.0,0.0,-1.6852,-1.6441,-1.7742,-1.7979,-1.6959,-1.637,-1.5801,-1.5247,-1.4754,-1.4511,-1.4538,0.0,0.0,0.0,0.0,0.0,0.0,0.0,0.0,0.0,0.0,0.0,0.0,0.0,0.0,0.0,0.0,0.0,0.0,0.0,0.0,0.0,0.0,0.0,0.0,0.0,-1.778,0.0,0.0,0.0,0.0,0.0,0.0,0.0,0.0,0.0,0.0,0.0,-2.1585,-2.2246,-2.2366,-2.2301,-2.1955,-2.2046,-2.2083,0.0,0.0,0.0,0.0,0.0,0.0,0.0,0.0,0.0,0.0,0.0,0.0,0.0,0.0,-2.3364,-2.2024,-2.1785,-2.1977,-2.2501,0.0,0.0,0.0,0.0,0.0,0.0,0.0,0.0,0.0,0.0,0.0,0.0,0.0,0.0,-1.7554,0.0,-1.7546,0.0,0.0,0.0,0.0,0.0,0.0,0.0,0.0,-1.7124,-1.7632,-1.8097,-1.7644,-1.7466,0.0,-1.7677,-1.6978,0.0,0.0,0.0,0.0,0.0,0.0,0.0,0.0,-1.742,-1.6809,-1.8095,-1.8203,-1.6984,-1.6741,-1.6285,-1.5488,-1.5034,-1.4905,-1.5168,-1.5894,-1.621,0.0,0.0,0.0,0.0,0.0,0.0,0.0,0.0,0.0,0.0,0.0,0.0,0.0,0.0,0.0,0.0,0.0,0.0,0.0,0.0,0.0,0.0,0.0,-1.852,0.0,0.0,0.0,0.0,0.0,0.0,0.0,0.0,0.0,-2.1284,-2.179,-2.2402,-2.2901,-2.3052,-2.2942,-2.2526,0.0,0.0,0.0,0.0,0.0,0.0,0.0,-2.328,-2.3373,-2.3437,-2.363,-2.4127,-2.4659,-2.486,-2.43,0.0,0.0,-2.2886,-2.2638,-2.2786,-2.3309,-2.3648,-2.3749,-2.3474,-2.4043,-2.4226,0.0,0.0,0.0,0.0,0.0,0.0,0.0,0.0,-1.8284,-1.83,0.0,-1.8292,0.0,0.0,0.0,0.0,0.0,-1.8433,0.0,0.0,-1.8708,-1.9096,-1.9265,-1.8905,-1.8938,-1.9284,-1.9106,-1.88,-1.8422,-1.8354,0.0,0.0,0.0,0.0,0.0,0.0,-1.8456,-1.7736,-1.8704,-1.8657,-1.7524,-1.7365,-1.6823,-1.5841,-1.5313,-1.5135,-1.5371,-1.6055,-1.6586,-1.6867,-1.6757,0.0,0.0,0.0,0.0,0.0,0.0,0.0,0.0,0.0,0.0,0.0,0.0,0.0,0.0,0.0,0.0,0.0,0.0,0.0,0.0,-1.8582,0.0,0.0,0.0,0.0,0.0,0.0,0.0,0.0,0.0,0.0,-2.1709,-2.202,-2.252,-2.3383,0.0,0.0,0.0,0.0,-2.3476,-2.349,-2.3611,-2.3692,-2.3705,-2.3912,-2.4089,-2.4098,0.0,0.0,-2.42,-2.5456,-2.5963,-2.4503,-2.4835,-2.5138,-2.4329,-2.4127,-2.4135,-2.4172,-2.4733,-2.5035,-2.4448,-2.4705,-2.5017,-1.9108,0.0,0.0,0.0,0.0,-1.8694,-1.9139,-2.0034,-1.9788,-1.9703,-1.9703,-1.9703,0.0,0.0,0.0,0.0,0.0,0.0,-1.9129,-1.904,-1.9602,-1.9935,-2.0007,-1.9611,-1.9459,-1.9594,-1.9806,-1.9872,-1.9781,-2.0199,-1.9511,-1.7793,0.0,0.0,0.0,0.0,-1.9233,-1.8115,-1.8927,-1.8752,-1.739,-1.7659,-1.7228,-1.6053,-1.4911,-1.4902,-1.6117,-1.5919,-1.6132,-1.6862,-1.6872,0.0,0.0,0.0,0.0,0.0,0.0,0.0,0.0,0.0,0.0,0.0,0.0,0.0,0.0,0.0,0.0,0.0,0.0,0.0,-1.8705,-1.9258,-1.9811,0.0,0.0,0.0,0.0,0.0,0.0,0.0,0.0,0.0,-2.2767,-2.2788,-2.301,0.0,0.0,-2.3424,-2.3494,-2.3494,-2.3535,-2.3624,-2.3689,0.0,-2.4019,-2.4125,-2.421,-2.4284,-2.4238,-2.422,-2.432,-2.4718,-2.4939,-2.4586,-2.475,-2.4799,-2.4622,-2.4436,-2.4347,-2.4366,-2.4542,-2.4634,-2.4422,-2.4478,-2.4483,-2.0192,-1.9272,-1.9224,-1.9577,-2.0067,-1.9827,-2.0231,-2.0967,-2.0778,-2.07,-2.0691,-2.0691,-2.0308,-1.9634,-1.9444,0.0,0.0,0.0,-2.005,-2.0138,-2.0366,-2.0569,-2.0671,-2.04,-2.0344,-2.05,-2.0754,-2.0896,-2.0993,-2.1374,-2.067,-1.8993,0.0,0.0,-1.9532,-2.0111,-1.9868,-1.8863,-1.9364,-1.9035,-1.7689,-1.77,-1.7357,-1.6641,-1.5876,-1.5977,-1.7056,-1.7089,-1.7344,-1.79,-1.7583,-1.6989,0.0,0.0,0.0,0.0,0.0,0.0,0.0,0.0,0.0,0.0,0.0,-1.804,-1.8435,0.0,0.0,0.0,-1.8883,-1.8734,-1.9034,-1.9571,0.0,0.0,0.0,0.0,0.0,0.0,0.0,-2.4376,-2.42,-2.3919,-2.3733,-2.3459,-2.3313,-2.3485,-2.3494,-2.3494,-2.3494,0.0,-2.3589,-2.3671,-2.3807,-2.397,-2.4164,-2.4248,-2.4321,-2.4385,-2.4393,-2.4383,-2.4416,-2.4476,-2.4568,-2.4657,-2.4682,-2.4682,-2.4682,-2.4639,-2.4563,-2.4508,-2.4526,-2.451,-2.4526,-2.4462,-2.4411,-2.1071,-2.1331,-2.1354,-2.1323,-2.1291,-2.1339,-2.1331,-2.1339,-2.1362,-2.1378,-2.1385,-2.137,-2.102,-2.0435,-2.0461,0.0,-2.1477,-2.1228,-2.1205,-2.1386,-2.1015,-2.1023,-2.1309,-2.1222,-2.134,-2.1678,-2.17,-2.1819,-2.199,-2.1998,-2.1683,-2.108,-2.0656,-2.0842,-2.1568,-2.0999,-2.0461,-1.9916,-1.9984,-1.9438,-1.8242,-1.7635,-1.7364,-1.7409,-1.7564,-1.7724,-1.8009,-1.8825,-1.9326,-1.9363,-1.8587,-1.8075,-1.7964,0.0,0.0,0.0,0.0,0.0,0.0,0.0,0.0,0.0,0.0,0.0,0.0,0.0,0.0,0.0,-1.9078,0.0,-1.9464,-1.9831,0.0,0.0,0.0,-2.2825,-2.3615,-2.3618,-2.3891,-2.4614,0.0,0.0,-2.4531,-2.3977,-2.3539,-2.3562,-2.353,-2.353,-2.3499,-2.3642,-2.3714,-2.3765,-2.399,-2.4201,-2.4238,-2.4366,-2.4465,-2.4403,-2.4498,-2.4564,-2.4528,-2.4635,-2.4698,-2.4759,-2.4738,-2.4763,-2.4763,-2.4851,-2.4874,-2.4774,-2.4738,-2.4713,-2.4713,-2.4682,-2.4676,-2.1593,-2.1683,-2.1953,-2.1789,-2.1331,-2.1554,-2.1691,-2.1691,-2.1953,-2.2049,-2.2065,-2.2049,-2.1832,-2.1444,-2.1474,-2.1437,-2.1339,-2.1291,-2.1308,-2.1394,-2.1316,-2.1316,-2.1471,-2.1562,-2.1678,-2.1768,-2.1882,-2.194,-2.1998,-2.1998,-2.1898,-2.1764,-2.1653,-2.1458,-2.1172,-2.1506,-2.1379,-2.0816,-2.0431,-1.9659,-1.8536,-1.7924,-1.7619,-1.7618,-1.7279,-1.7369,-1.7966,-1.7725,-1.7867,-1.8458,-1.7729,-1.7008,-1.6399,-1.6636,0.0,0.0,0.0,0.0,0.0,0.0,0.0,0.0,0.0,-2.1005,-2.0276,0.0,-2.0108,0.0,-2.0056,-1.9875,-1.983,-2.1675,0.0,0.0,-2.3749,-2.4535,-2.5167,-2.4775,-2.4498,-2.4676,-2.4633,-2.4397,-2.3997,-2.3898,-2.3882,-2.3873,-2.3741,-2.3646,-2.3655,-2.3813,-2.3958,-2.4067,-2.4145,-2.4266,-2.4403,-2.4482,-2.4474,-2.433,-2.4489,-2.4606,-2.4654,-2.477,-2.4898,-2.5051,-2.5076,-2.5076,-2.5063,-2.5122,-2.5113,-2.5066,-2.4966,-2.4847,-2.4856,-2.4779,-2.4698,-2.1886,-2.2049,-2.2209,-2.2086,-2.1751,-2.1945,-2.2028,-2.2049,-2.2217,-2.2319,-2.2319,-2.2319,-2.2217,-2.2061,-2.2061,-2.1986,-2.1882,-2.1794,-2.1781,-2.1857,-2.1713,-2.1697,-2.1726,-2.1823,-2.1957,-2.2069,-2.2147,-2.2223,-2.2326,-2.2318,-2.2318,-2.2318,-2.2411,-2.2303,-2.1961,-2.2103,-2.1894,-2.1326,-2.0498,-1.985,-1.9362,-1.8644,-1.8315,-1.8353,-1.8085,-1.817,-1.8682,-1.8361,-1.836,-1.8772,-1.8023,-1.7709,-1.7958,-1.7727,-1.7718,0.0,0.0,0.0,0.0,0.0,0.0,0.0,0.0,0.0,0.0,0.0,-2.0359,-2.036,-2.0608,-2.0841,-2.1039,-2.2429,-2.3515,-2.401,-2.4298,-2.4774,-2.5465,-2.4847,-2.4379,-2.4401,-2.4458,-2.4333,-2.39,-2.3937,-2.3978,-2.3987,-2.3958,-2.389,-2.3858,-2.3978,-2.4115,-2.4201,-2.4275,-2.4357,-2.45,-2.4509,-2.449,-2.4497,-2.4619,-2.4744,-2.4823,-2.4961,-2.5082,-2.517,-2.521,-2.521,-2.521,-2.521,-2.521,-2.5189,-2.5113,-2.5044,-2.5022,-2.497,-2.4935,-2.2098,-2.2358,-2.2369,-2.2413,-2.2405,-2.2405,-2.2394,-2.2358,-2.231,-2.2319,-2.2319,-2.231,-2.2338,-2.2394,-2.2413,-2.2496,-2.2569,-2.2388,-2.2369,-2.2405,-2.2195,-2.2076,-2.2084,-2.2076,-2.2223,-2.2424,-2.2432,-2.2533,-2.2738,-2.2738,-2.2747,-2.2808,-2.301,-2.3151,-2.3126,-2.2738,-2.2279,-2.1704,-2.0709,-2.0228,-2.029,-1.9574,-1.9197,-1.9218,-1.9249,-1.9353,-1.9569,-1.9694,-1.9741,-1.9713,-1.9035,-1.9254,-2.0591,-1.9313,-1.9174,0.0,-2.015,0.0,0.0,0.0,0.0,0.0,0.0,0.0,0.0,-2.0734,-2.065,-2.0489,-2.1068,-2.174,-2.245,-2.2781,-2.3492,-2.4655,-2.4465,-2.4417,-2.4944,-2.4424,-2.3978,-2.3978,-2.4007,-2.4018,-2.4027,-2.4047,-2.4056,-2.4104,-2.4163,-2.4192,-2.4105,-2.4154,-2.4257,-2.4229,-2.4402,-2.4524,-2.4541,-2.4568,-2.4606,-2.4689,-2.4818,-2.494,-2.4981,-2.5099,-2.5206,-2.5212,-2.5201,-2.521,-2.521,-2.521,-2.521,-2.521,-2.5189,-2.5189,-2.518,-2.5177,-2.521,-2.257,-2.2632,-2.2867,-2.2969,-2.296,-2.296,-2.2816,-2.2614,-2.2377,-2.2319,-2.2319,-2.2366,-2.2392,-2.2417,-2.2458,-2.2496,-2.2513,-2.2496,-2.2515,-2.2552,-2.2516,-2.2508,-2.257,-2.257,-2.2597,-2.2632,-2.2649,-2.2782,-2.3011,-2.3036,-2.31,-2.3262,-2.3318,-2.3341,-2.3341,0.0,0.0,0.0,-2.2255,-2.1637,-2.0449,-2.0314,-1.9993,-1.9393,-1.9464,0.0,-1.9546,-2.0196,-2.0533,-2.0491,-2.0385,0.0,0.0,0.0,0.0,0.0,0.0,0.0,0.0,0.0,0.0,0.0,-2.1277,-2.1638,-2.1608,-2.2141,-2.2207,-2.1523,-2.2235,-2.2713,-2.2699,-2.4059,-2.4701,-2.4109,-2.4682,-2.4901,-2.4335,-2.4087,-2.3978,-2.3987,-2.4095,-2.4154,-2.4182,-2.4303,-2.4393,-2.4393,-2.4438,-2.4429,-2.4393,-2.4402,-2.4447,-2.4456,-2.4566,-2.4645,-2.466,-2.4749,-2.4799,-2.4828,-2.4947,-2.5044,-2.5028,-2.512,-2.5206,-2.5206,-2.5203,-2.521,-2.521,-2.521,-2.521,-2.521,-2.521,-2.521,-2.521,-2.521,-2.521,-2.2773,0.0,-2.3035,-2.31,0.0,-2.31,-2.3075,-2.3068,-2.2807,-2.2694,-2.2694,-2.2712,-2.2755,-2.2743,-2.2799,-2.2834,-2.2886,-2.2902,-2.2935,-2.3,-2.2984,-2.3033,-2.3058,-2.3025,-2.3058,-2.3058,-2.304,-2.3116,-2.3259,-2.3259,-2.3303,-2.3401,-2.3522,-2.3597,-2.3597,-2.3789,-2.3671,-2.3242,-2.2942,-2.2275,-2.1228,-2.0877,-2.0311,-1.9549,-1.9564,0.0,0.0,0.0,0.0,0.0,0.0,0.0,0.0,0.0,0.0,-2.274,-2.3118,-2.3191,-2.2909,-2.2763,-2.2471,-2.2037,-2.2293,-2.2459,-2.2409,-2.2758,-2.2813,-2.2419,-2.3125,-2.3612,-2.3538,-2.4348,-2.4709,-2.4227,-2.4616,-2.4746,-2.434,-2.4229,-2.4247,-2.4257,-2.4321,-2.4348,-2.4348,-2.4419,-2.45,-2.4509,-2.4509,-2.4524,-2.4573,-2.4541,-2.4517,-2.4573,-2.4654,-2.4719,-2.4794,-2.4856,-2.4919,-2.4952,-2.5034,-2.5101,-2.5143,-2.5168,-2.5209,-2.5208,-2.5214,-2.521,-2.521,-2.521,-2.5203,-2.5239,-2.525,-2.5272,-2.5293,-2.5273,-2.5252,-2.289,-2.2955,-2.3003,-2.3026,-2.3035,-2.3026,-2.3229,-2.3531,0.0,0.0,0.0,-2.31,-2.3139,-2.3127,-2.3146,-2.3214,-2.3304,-2.3324,-2.3359,-2.3401,-2.3401,-2.3401,-2.3401,-2.3401,-2.3401,-2.3401,-2.3401,-2.3414,-2.3459,-2.3477,-2.35,-2.3544,-2.3765,-2.3858,-2.3899,-2.4144,-2.4247,-2.4081,-2.3445,-2.2737,-2.2015,-2.1377,-2.0601,-1.9643,-1.9642,-1.9963,-2.0616,-2.1033,-2.1553,-2.219,-2.251,-2.2966,-2.3609,-2.3656,-2.3956,-2.4644,-2.4752,-2.4756,-2.4632,-2.4501,-2.4132,-2.3363,-2.3314,-2.3233,-2.3033,-2.3144,-2.3244,-2.3263,-2.3879,-2.4275,-2.4339,-2.4321,-2.4375,-2.4482,-2.4509,-2.4518,-2.45,-2.4509,-2.4482,-2.4509,-2.4482,-2.4509,-2.45,-2.45,-2.4507,-2.4524,-2.4517,-2.4558,-2.466,-2.4629,-2.4629,-2.4704,-2.4779,-2.4828,-2.4925,-2.4971,-2.5009,-2.5117,-2.5147,-2.518,-2.5242,-2.5252,-2.5221,-2.5239,-2.5217,-2.5219,-2.5208,-2.524,-2.5262,-2.5303,-2.5303,-2.534,-2.5397,-2.5374,-2.5358,-2.2998,-2.2407,-2.2659,-2.2761,-2.2751,-2.2751,-2.3133,-2.3732,-2.3522,-2.3333,-2.31,-2.3175,-2.3203,-2.3283,-2.3321,-2.3379,-2.3373,-2.3374,-2.3401,-2.3401,-2.3401,-2.3401,-2.3401,-2.3401,-2.3401,-2.3401,-2.3401,-2.3522,-2.3723,-2.3735,-2.3876,-2.4065,-2.4122,-2.4171,-2.4238,-2.4284,-2.4394,-2.4594,-2.4357,-2.3509,-2.2042,-2.2006,-2.1255,-1.9798,-1.9795,-1.9919,-2.0032,-2.1427,-2.2253,-2.2404,-2.3748,-2.4581,-2.4676,-2.4596,-2.4723,-2.5,-2.4892,-2.4561,-2.3983,-2.3869,-2.369,-2.3461,-2.3843,-2.3832,-2.3185,-2.3785,-2.421,-2.42,-2.4347,-2.4465,-2.4492,-2.4465,-2.4456,-2.4509,-2.4509,-2.4509,-2.4509,-2.4509,-2.4509,-2.4509,-2.4509,-2.4509,-2.4509,-2.45,-2.4549,-2.4613,-2.4606,-2.4575,-2.4698,-2.4794,-2.4856,-2.4888,-2.4971,-2.5037,-2.5091,-2.5171,-2.5233,-2.5264,-2.5264,-2.5283,-2.5303,-2.5293,-2.5293,-2.5282,-2.5293,-2.5274,-2.5283,-2.5325,-2.536,-2.5383,-2.5387,-2.5403,-2.5464,-2.5473,-2.5463,-2.2717,-2.2473,-2.2198,-2.2057,-2.2048,-2.2048,-2.2238,-2.2526,-2.2463,-2.2835,-2.3455,-2.3513,-2.354,-2.3576,-2.3598,-2.3654,-2.3725,-2.3716,-2.3765,-2.3837,-2.3837,-2.3846,-2.3846,-2.3816,-2.3846,-2.3825,-2.3846,-2.3887,-2.4025,-2.4025,-2.4083,-2.4199,-2.4303,-2.4393,-2.4417,-2.4506,-2.4612,-2.4751,-2.4659,-2.3821,-2.2281,-2.2279,-2.1507,-1.9866,-1.9866,-2.0124,-2.0539,-2.1386,-2.2056,-2.2494,-2.3234,-2.3843,-2.4274,-2.429,-2.4514,-2.5041,-2.5082,-2.4954,-2.4626,-2.4519,-2.4388,-2.4257,-2.445,-2.4479,-2.411,-2.4239,-2.4339,-2.433,-2.4385,-2.4412,-2.4447,-2.4438,-2.4465,-2.4509,-2.4509,-2.4509,-2.4509,-2.4509,-2.4509,-2.4509,-2.4509,-2.4509,-2.4509,-2.4584,-2.4631,-2.4701,-2.4749,-2.4837,-2.4906,-2.5031,-2.5091,-2.5024,-2.5061,-2.5138,-2.5202,-2.5244,-2.5293,-2.5303,-2.5312,-2.5358,-2.5358,-2.5385,-2.54,-2.54,-2.5385,-2.5364,-2.5345,-2.5372,-2.5417,-2.546,-2.5457,-2.5496,-2.5571,-2.5605,-2.56,-2.2132,-2.2102,-2.1495,-2.1251,-2.1289,-2.1489,-2.1589,-2.1589,-2.1598,-2.2263,-2.33,-2.3501,-2.3641,-2.3825,-2.3834,-2.391,-2.4013,-2.4069,-2.4162,-2.4247,-2.4284,-2.4312,-2.4303,-2.4312,-2.4312,-2.4312,-2.4312,-2.4312,-2.4303,-2.4303,-2.4312,-2.4339,-2.4497,-2.4575,-2.457,-2.4735,-2.4832,-2.4864,-2.4825,-2.4015,-2.2476,-2.2434,-2.1639,-2.0092,-1.998,-2.0285,-2.0883,-2.1234,-2.1713,-2.2315,-2.2545,-2.2927,-2.3531,-2.377,-2.4162,-2.4806,-2.5147,-2.5303,-2.5293,-2.5171,-2.5049,-2.4949,-2.4906,-2.4902,-2.4879,-2.4623,-2.4426,-2.4383,-2.4384,-2.4385,-2.443,-2.443,-2.4447,-2.45,-2.4509,-2.4509,-2.4509,-2.4509,-2.4517,-2.4541,-2.4541,-2.4575,-2.4596,-2.4682,-2.4744,-2.4779,-2.4962,-2.5128,-2.5117,-2.5203,-2.5253,-2.5203,-2.5161,-2.5183,-2.5303,-2.5312,-2.534,-2.534,-2.5398,-2.542,-2.5425,-2.547,-2.5489,-2.5499,-2.5466,-2.5453,-2.5444,-2.5469,-2.5496,-2.5537,-2.5566,-2.5591,-2.5666,-2.5683,-2.5693,-2.1178,-2.0563,-2.0472,-2.047,-2.0669,-2.1454,-2.178,-2.1798,-2.1851,-2.1907,-2.2135,-2.2591,-2.318,-2.3825,-2.3928,-2.397,-2.4048,-2.4284,-2.4345,-2.4371,-2.4587,-2.4651,-2.4635,-2.4635,-2.4651,-2.4645,-2.4635,-2.4629,-2.4619,-2.4619,-2.4626,-2.4657,-2.4749,-2.4766,-2.4775,-2.4794,-2.4893,-2.5051,-2.5076,-2.42,-2.2538,-2.2513,-2.1777,-2.0136,-2.0199,-2.0288,-2.0415,-2.1093,-2.1526,-2.1652,-2.2315,-2.2784,-2.2937,-2.363,-2.4101,-2.4236,-2.4889,-2.5303,-2.5303,-2.518,-2.5094,-2.5082,-2.4962,-2.4915,-2.4915,-2.4865,-2.4799,-2.4664,-2.4566,-2.4507,-2.4473,-2.449,-2.4534,-2.4515,-2.4524,-2.4509,-2.4517,-2.4509,-2.4541,-2.4676,-2.4667,-2.4719,-2.4813,-2.4851,-2.4898,-2.4892,-2.5103,-2.5214,-2.5158,-2.5213,-2.5322,-2.533,-2.5312,-2.5312,-2.5364,-2.5379,-2.5412,-2.545,-2.5486,-2.5492,-2.5498,-2.5508,-2.5514,-2.5547,-2.5547,-2.556,-2.5588,-2.5622,-2.5655,-2.5639,-2.5658,-2.5675,-2.5697,-2.57,-2.5697,-2.0764,-2.0487,-2.0025,-1.9853,-1.9974,-2.0315,-2.0483,-2.0474,-2.0474,-2.0752,-2.1177,-2.1438,-2.1963,-2.2751,-2.3281,-2.3321,-2.3,-2.4011,-2.4244,-2.3905,-2.4414,-2.4682,-2.4682,-2.4682,-2.4682,-2.4682,-2.4682,-2.4682,-2.4682,-2.4698,-2.4729,-2.4779,-2.4874,-2.4923,-2.4975,-2.5068,-2.5138,-2.5203,-2.5216,-2.437,-2.2862,-2.269,-2.1914,-2.0427,-2.0259,-2.0302,-2.0321,-2.0639,-2.0783,-2.0813,-2.1158,-2.1551,-2.202,-2.2359,-2.3033,-2.4004,-2.4851,-2.5303,-2.5303,-2.5253,-2.5213,-2.5213,-2.516,-2.5138,-2.5136,-2.5058,-2.4987,-2.4932,-2.4828,-2.4725,-2.4734,-2.4725,-2.4734,-2.4734,-2.4725,-2.4725,-2.4749,-2.4734,-2.4746,-2.4813,-2.4828,-2.4842,-2.4902,-2.4971,-2.5046,-2.5115,-2.5253,-2.5254,-2.5223,-2.5273,-2.5322,-2.5372,-2.5374,-2.5398,-2.5456,-2.547,-2.548,-2.5504,-2.5532,-2.5552,-2.5556,-2.5588,-2.5622,-2.5609,-2.5623,-2.5641,-2.5651,-2.5666,-2.5693,-2.5691,-2.5662,-2.5643,-2.5633,-2.5643,-2.5661,-2.0553,-2.0569,-2.0099,-1.9777,-1.9563,-1.9612,-1.9634,-1.9634,-1.9625,-1.9967,-2.0485,-2.0508,-2.0813,-2.1506,-2.265,-2.2914,-2.2675,-2.4003,-2.4375,-2.3921,-2.4539,-2.4842,-2.4842,-2.4842,-2.4842,-2.4832,-2.4842,-2.4842,-2.4842,-2.4837,-2.4861,-2.4915,-2.5041,-2.5103,-2.5158,-2.5253,-2.5303,-2.5293,-2.5303,-2.4504,-2.3059,-2.2827,-2.2029,-2.0485,-2.0302,-2.0302,-2.0302,-2.0298,-2.0289,-2.0302,-2.0321,-2.0588,-2.1154,-2.141,-2.2321,-2.3924,-2.4879,-2.5331,-2.5331,-2.5331,-2.5322,-2.5331,-2.5322,-2.5303,-2.5293,-2.5222,-2.516,-2.5149,-2.5058,-2.4994,-2.4902,-2.4902,-2.4902,-2.4902,-2.4902,-2.4902,-2.4902,-2.4902,-2.4906,-2.4955,-2.4958,-2.4981,-2.5009,-2.5094,-2.5192,-2.5303,-2.5331,-2.5331,-2.5349,-2.5366,-2.539,-2.5439,-2.546,-2.547,-2.5521,-2.5526,-2.5532,-2.5561,-2.5592,-2.5626,-2.5626,-2.5679,-2.5695,-2.5654,-2.5687,-2.5696,-2.5686,-2.5696,-2.567,-2.5664,-2.5642,-2.5609,-2.5611,-2.56,-2.5621,-2.0503,-2.0566,-2.0798,-2.0386,-1.972,-1.9887,-1.9971,-1.9949,-1.996,-1.9998,-2.0064,-2.0069,-2.0058,-2.0328,-2.2261,-2.321,-2.3324,-2.4289,-2.4766,-2.4712,-2.5009,-2.5168,-2.5199,-2.5199,-2.5177,-2.5144,-2.5132,-2.5154,-2.5156,-2.5128,-2.5169,-2.5187,-2.5233,-2.5283,-2.5292,-2.5303,-2.5293,-2.5322,-2.5313,-2.4541,-2.3141,-2.2915,-2.2084,-2.0568,-2.0302,-2.03,-2.03,-2.0298,-2.0298,-2.0292,-2.0355,-2.0415,-2.0527,-2.1274,-2.2462,-2.3956,-2.4925,-2.5387,-2.5397,-2.5406,-2.5406,-2.5397,-2.5397,-2.5374,-2.5322,-2.5293,-2.5293,-2.5284,-2.5274,-2.5172,-2.4978,-2.4958,-2.4942,-2.4923,-2.4929,-2.4929,-2.4929,-2.4945,-2.4981,-2.5058,-2.5105,-2.5139,-2.5263,-2.5293,-2.5312,-2.5382,-2.5406,-2.542,-2.547,-2.548,-2.55,-2.5547,-2.5585,-2.5593,-2.5607,-2.5588,-2.5616,-2.5639,-2.5654,-2.5695,-2.5695,-2.5697,-2.5689,-2.5693,-2.5681,-2.5683,-2.5693,-2.5672,-2.5637,-2.5619,-2.5617,-2.5603,-2.5608,-2.5605,-2.5607,-2.0872,-2.0915,-2.0523,-2.0172,-1.9917,-1.9981,-1.9993,-1.9993,-1.9993,-1.9993,-1.9993,-1.9995,-2.0027,-2.0172,-2.1986,-2.2527,-2.2215,-2.3588,-2.4261,-2.434,-2.4908,-2.521,-2.521,-2.521,-2.521,-2.521,-2.521,-2.521,-2.5126,-2.4695,-2.4726,-2.5216,-2.5374,-2.5414,-2.5424,-2.5427,-2.5427,-2.542,-2.5425,-2.4897,-2.3818,-2.3256,-2.2377,-2.1245,-2.0648,-2.0367,-2.0357,-2.0365,-2.0346,-2.0361,-2.0381,-2.039,-2.0529,-2.1755,-2.3026,-2.4128,-2.5001,-2.5467,-2.5457,-2.5476,-2.5476,-2.5476,-2.5457,-2.5444,-2.5432,-2.5435,-2.5425,-2.5425,-2.5425,-2.5368,-2.5308,-2.5206,-2.5158,-2.5149,-2.5149,-2.5139,-2.5168,-2.5158,-2.5171,-2.5214,-2.5274,-2.5321,-2.5357,-2.5414,-2.5432,-2.545,-2.5457,-2.548,-2.5508,-2.5514,-2.5532,-2.5589,-2.5601,-2.5619,-2.5655,-2.5654,-2.5659,-2.5678,-2.5694,-2.5699,-2.5701,-2.5654,-2.5644,-2.5644,-2.5641,-2.5647,-2.5654,-2.5642,-2.5606,-2.561,-2.5603,-2.5601,-2.56,-2.5601,-2.5605,-2.1076,-2.1109,-2.0619,-2.024,-2.0003,-1.9993,-2.0005,-2.0036,-2.0036,-2.0037,-2.0058,-2.0068,-2.0088,-2.0346,-2.1598,-2.2113,-2.1965,-2.3557,-2.4365,-2.4433,-2.4992,-2.5253,-2.5262,-2.5272,-2.5272,-2.5272,-2.5262,-2.5272,-2.5215,-2.4744,-2.4797,-2.535,-2.5459,-2.5512,-2.5509,-2.5509,-2.5517,-2.5511,-2.5508,-2.5104,-2.4297,-2.3451,-2.2614,-2.1771,-2.0928,-2.0439,-2.0395,-2.0423,-2.0436,-2.0434,-2.0457,-2.0584,-2.0984,-2.223,-2.3411,-2.4263,-2.5065,-2.5532,-2.5532,-2.5522,-2.5541,-2.5541,-2.5541,-2.5526,-2.5519,-2.5514,-2.5514,-2.5514,-2.5514,-2.5514,-2.5486,-2.541,-2.5375,-2.5365,-2.5356,-2.5365,-2.5365,-2.5356,-2.5356,-2.5364,-2.5405,-2.5425,-2.543,-2.5473,-2.5504,-2.5517,-2.5522,-2.5532,-2.5561,-2.5564,-2.5586,-2.5602,-2.5607,-2.562,-2.5644,-2.5635,-2.5644,-2.5654,-2.5664,-2.5673,-2.5671,-2.5624,-2.5607,-2.5607,-2.5603,-2.5602,-2.56,-2.5607,-2.5604,-2.5595,-2.561,-2.5605,-2.5599,-2.5603,-2.5594,-2.1061,-2.1178,-2.1168,-2.0649,-2.0062,-2.0005,-2.0047,-2.0088,-2.0098,-2.0126,-2.0172,-2.018,-2.0228,-2.0466,-2.1309,-2.1942,-2.2921,-2.4428,-2.5206,-2.5272,-2.5336,-2.5381,-2.5371,-2.5363,-2.5372,-2.5361,-2.535,-2.536,-2.5361,-2.5277,-2.5297,-2.5444,-2.5499,-2.5529,-2.5519,-2.5529,-2.5523,-2.5517,-2.5528,-2.5144,-2.4329,-2.3572,-2.2835,-2.2079,-2.1235,-2.076,-2.0554,-2.0522,-2.0533,-2.0594,-2.0577,-2.1011,-2.1829,-2.2734,-2.3518,-2.4371,-2.5163,-2.5563,-2.5601,-2.5611,-2.5611,-2.5601,-2.5611,-2.5585,-2.5537,-2.5536,-2.5531,-2.5536,-2.5521,-2.5515,-2.5531,-2.551,-2.5498,-2.5488,-2.548,-2.5489,-2.5486,-2.5498,-2.5508,-2.5502,-2.5498,-2.5508,-2.5514,-2.5521,-2.5557,-2.5593,-2.5592,-2.5613,-2.5654,-2.5652,-2.5692,-2.5674,-2.5634,-2.5622,-2.5616,-2.5609,-2.5609,-2.5607,-2.5621,-2.5629,-2.5637,-2.5605,-2.5603,-2.56,-2.5609,-2.5603,-2.5571,-2.5574,-2.5562,-2.5566,-2.5583,-2.5567,-2.5554,-2.5538,-2.5561,-2.0731,-2.1181,-2.0718,-2.0375,-2.0145,-2.0136,-2.0154,-2.0172,-2.0162,-2.0171,-2.0198,-2.0198,-2.0521,-2.1196,-2.1984,-2.2856,-2.3794,-2.4894,-2.5389,-2.5358,-2.5385,-2.54,-2.5397,-2.5395,-2.5387,-2.5298,-2.4832,-2.488,-2.5236,-2.4946,-2.4941,-2.5449,-2.5614,-2.5629,-2.5629,-2.5632,-2.5642,-2.5645,-2.563,-2.5488,-2.5198,-2.4388,-2.3844,-2.356,-2.2769,-2.2293,-2.2209,-2.1177,-2.0896,-2.1399,-2.0912,-2.1247,-2.2555,-2.3521,-2.4376,-2.5142,-2.5491,-2.5666,-2.5657,-2.5666,-2.5666,-2.5666,-2.5666,-2.5664,-2.5645,-2.5619,-2.5639,-2.5619,-2.5632,-2.5642,-2.5642,-2.5642,-2.5588,-2.551,-2.5514,-2.551,-2.5525,-2.5519,-2.5514,-2.5519,-2.5547,-2.5576,-2.5585,-2.5588,-2.5632,-2.5664,-2.5657,-2.5673,-2.5689,-2.5692,-2.5693,-2.5684,-2.5644,-2.5608,-2.5606,-2.5606,-2.5603,-2.5603,-2.5603,-2.561,-2.5606,-2.5609,-2.5607,-2.5604,-2.561,-2.5589,-2.5557,-2.5541,-2.5534,-2.5495,-2.547,-2.5463,-2.5453,-2.547,-2.5485,-2.0432,-2.0824,-2.0391,-2.0198,-2.0198,-2.0198,-2.0205,-2.024,-2.024,-2.0246,-2.0271,-2.0281,-2.0747,-2.1615,-2.2462,-2.3335,-2.4225,-2.5096,-2.5459,-2.539,-2.5443,-2.5483,-2.5479,-2.5502,-2.5502,-2.5441,-2.5001,-2.501,-2.546,-2.5089,-2.5104,-2.5564,-2.5678,-2.5691,-2.5693,-2.5701,-2.5693,-2.5662,-2.5663,-2.5663,-2.5487,-2.4823,-2.4413,-2.4277,-2.3554,-2.3317,-2.3425,-2.2236,-2.1777,-2.2148,-2.1797,-2.2107,-2.3083,-2.3906,-2.4786,-2.5484,-2.5697,-2.5697,-2.5697,-2.5697,-2.5697,-2.5697,-2.5697,-2.5697,-2.5697,-2.5697,-2.5697,-2.5697,-2.5697,-2.5697,-2.5697,-2.5697,-2.5661,-2.5584,-2.5579,-2.5575,-2.5565,-2.5565,-2.5565,-2.5584,-2.5629,-2.5639,-2.5648,-2.5666,-2.5696,-2.5697,-2.5681,-2.5673,-2.5674,-2.5672,-2.5664,-2.5654,-2.5625,-2.5611,-2.561,-2.561,-2.56,-2.56,-2.56,-2.561,-2.56,-2.56,-2.5609,-2.56,-2.5608,-2.5576,-2.5541,-2.551,-2.5493,-2.5429,-2.531,-2.5404,-2.5421,-2.5412,-2.543,-2.0197,-2.0197,-2.0205,-2.0223,-2.0223,-2.0223,-2.0265,-2.0313,-2.0313,-2.0342,-2.0405,-2.0547,-2.1037,-2.1852,-2.2755,-2.3606,-2.4321,-2.5114,-2.5497,-2.5507,-2.5544,-2.5589,-2.558,-2.5629,-2.5662,-2.5656,-2.5617,-2.564,-2.566,-2.558,-2.57,-2.5684,-2.5693,-2.5697,-2.57,-2.5696,-2.5672,-2.563,-2.5615,-2.5615,-2.5584,-2.4918,-2.4538,-2.4508,-2.3849,-2.3759,-2.421,-2.3669,-2.3169,-2.3113,-2.3021,-2.3112,-2.3357,-2.4003,-2.4931,-2.5647,-2.5693,-2.5693,-2.5701,-2.5693,-2.5701,-2.5697,-2.5697,-2.5697,-2.5697,-2.5697,-2.5697,-2.5697,-2.5699,-2.5701,-2.5701,-2.5684,-2.5683,-2.5691,-2.5673,-2.5671,-2.5695,-2.5695,-2.5676,-2.5678,-2.5699,-2.5691,-2.5684,-2.5683,-2.5684,-2.5674,-2.5631,-2.5627,-2.5623,-2.5625,-2.5613,-2.5603,-2.5604,-2.5605,-2.5609,-2.5609,-2.5599,-2.557,-2.5576,-2.5582,-2.5578,-2.5585,-2.5561,-2.5567,-2.5499,-2.5499,-2.5415,-2.529,-2.5163,-2.5004,-2.5052,-2.5281,-2.5369,-2.5351,-2.5351,-2.0281,-2.0279,-2.0325,-2.0359,-2.0349,-2.0404,-2.044,-2.0447,-2.0444,-2.0457,-2.0598,-2.1162,-2.1859,-2.2692,-2.3537,-2.4404,-2.5091,-2.5441,-2.5579,-2.5565,-2.5599,-2.5606,-2.562,-2.5665,-2.57,-2.57,-2.57,-2.5698,-2.5701,-2.5699,-2.5701,-2.5697,-2.5696,-2.57,-2.5693,-2.5693,-2.5693,-2.568,-2.5668,-2.5645,-2.557,-2.5402,-2.5297,-2.5266,-2.5012,-2.5002,-2.5262,-2.5074,-2.4298,-2.3247,-2.3751,-2.4059,-2.4073,-2.4774,-2.5355,-2.5554,-2.5642,-2.5644,-2.5683,-2.5692,-2.57,-2.5699,-2.5691,-2.5697,-2.5697,-2.5697,-2.5697,-2.5701,-2.5697,-2.5692,-2.5693,-2.5654,-2.5623,-2.5643,-2.5672,-2.5691,-2.5693,-2.5698,-2.5692,-2.5692,-2.5664,-2.5633,-2.5633,-2.563,-2.5626,-2.5636,-2.5621,-2.5605,-2.5602,-2.56,-2.5609,-2.5604,-2.56,-2.5604,-2.5607,-2.5607,-2.5589,-2.5541,-2.5524,-2.5535,-2.5535,-2.5535,-2.5493,-2.5453,-2.5255,-2.5192,-2.4982,-2.4802,-2.4668,-2.4677,-2.4955,-2.5234,-2.5261,-2.5248,-2.5258,-2.0349,-2.033,-2.0386,-2.0389,-2.0411,-2.0482,-2.0507,-2.0512,-2.0507,-2.0735,-2.109,-2.1551,-2.2445,-2.3543,-2.4073,-2.4766,-2.5525,-2.5602,-2.5602,-2.5605,-2.5638,-2.5629,-2.5619,-2.5673,-2.5701,-2.5701,-2.5701,-2.5694,-2.5699,-2.57,-2.5701,-2.5701,-2.5692,-2.5693,-2.5702,-2.5693,-2.5689,-2.5668,-2.5658,-2.5644,-2.5605,-2.5602,-2.5593,-2.56,-2.5603,-2.5601,-2.5598,-2.5595,-2.4807,-2.3718,-2.416,-2.4763,-2.4499,-2.5169,-2.5588,-2.5607,-2.5609,-2.5615,-2.5641,-2.5651,-2.5663,-2.5664,-2.5654,-2.5664,-2.5664,-2.5654,-2.5663,-2.5654,-2.5663,-2.5652,-2.565,-2.5615,-2.5601,-2.5613,-2.5643,-2.5654,-2.5664,-2.5644,-2.5662,-2.565,-2.5626,-2.5609,-2.5609,-2.5601,-2.5605,-2.5609,-2.5616,-2.5609,-2.5601,-2.5604,-2.5591,-2.5575,-2.5558,-2.5541,-2.5524,-2.5517,-2.55,-2.5472,-2.5448,-2.5453,-2.547,-2.5461,-2.5389,-2.528,-2.5049,-2.4829,-2.462,-2.4523,-2.46,-2.4703,-2.4975,-2.5143,-2.5191,-2.521,-2.521,-2.0408,-2.0418,-2.0418,-2.0418,-2.0423,-2.0482,-2.0528,-2.0528,-2.0694,-2.1116,-2.171,-2.1976,-2.3013,-2.4312,-2.4488,-2.4911,-2.5613,-2.5622,-2.5631,-2.5638,-2.5671,-2.5673,-2.563,-2.568,-2.5701,-2.5701,-2.5701,-2.5702,-2.5693,-2.5693,-2.5692,-2.5693,-2.5693,-2.5692,-2.5697,-2.5698,-2.5668,-2.5645,-2.5636,-2.5623,-2.5603,-2.5609,-2.5609,-2.5609,-2.5605,-2.5601,-2.5601,-2.5539,-2.4908,-2.3398,-2.4791,-2.5111,-2.4717,-2.5289,-2.5557,-2.5609,-2.5602,-2.5608,-2.5605,-2.5605,-2.5609,-2.5613,-2.5613,-2.5609,-2.5615,-2.5616,-2.5616,-2.5616,-2.5609,-2.5603,-2.5608,-2.5608,-2.5605,-2.5602,-2.561,-2.5603,-2.5603,-2.5603,-2.5605,-2.5605,-2.5605,-2.5603,-2.5605,-2.56,-2.5603,-2.5603,-2.56,-2.5565,-2.5554,-2.5541,-2.5515,-2.5488,-2.5476,-2.547,-2.5439,-2.5404,-2.5395,-2.5378,-2.536,-2.536,-2.5379,-2.535,-2.5272,-2.5129,-2.4928,-2.4649,-2.436,-2.4358,-2.4491,-2.4652,-2.4847,-2.5057,-2.521,-2.521,-2.521,-2.0418,-2.0482,-2.0482,-2.0482,-2.0489,-2.0538,-2.0586,-2.0654,-2.1318,-2.1748,-2.2158,-2.3232,-2.3994,-2.4453,-2.5039,-2.5535,-2.5654,-2.567,-2.568,-2.5684,-2.569,-2.5692,-2.568,-2.5701,-2.5693,-2.5693,-2.5693,-2.5692,-2.5698,-2.5698,-2.5696,-2.5696,-2.5686,-2.5693,-2.5697,-2.5676,-2.5695,-2.5687,-2.5675,-2.5626,-2.5592,-2.5588,-2.5588,-2.5588,-2.5611,-2.5601,-2.5601,-2.5601,-2.5407,-2.5227,-2.5313,-2.5469,-2.5356,-2.5463,-2.5591,-2.56,-2.56,-2.5604,-2.5605,-2.561,-2.5606,-2.5605,-2.5605,-2.5609,-2.5609,-2.5605,-2.5607,-2.5605,-2.56,-2.5601,-2.561,-2.56,-2.561,-2.5605,-2.56,-2.5596,-2.5605,-2.5607,-2.5603,-2.5609,-2.5604,-2.56,-2.56,-2.5586,-2.5589,-2.5603,-2.557,-2.5514,-2.5493,-2.5478,-2.5455,-2.5422,-2.5414,-2.5396,-2.536,-2.5332,-2.5332,-2.5293,-2.5252,-2.521,-2.5231,-2.5001,-2.4828,-2.4808,-2.4806,-2.4458,-2.3912,-2.4293,-2.445,-2.4585,-2.4738,-2.4965,-2.5134,-2.5156,-2.521,-2.0478,-2.0512,-2.0507,-2.0511,-2.0592,-2.0986,-2.1221,-2.1387,-2.2139,-2.2725,-2.3184,-2.4092,-2.4619,-2.5029,-2.5469,-2.5693,-2.5693,-2.5693,-2.5694,-2.5685,-2.5675,-2.5655,-2.5658,-2.5665,-2.5671,-2.5684,-2.5698,-2.5694,-2.5699,-2.5685,-2.5673,-2.5651,-2.5658,-2.5629,-2.5615,-2.5619,-2.5586,-2.5596,-2.5607,-2.5589,-2.555,-2.5547,-2.5547,-2.5556,-2.5589,-2.5601,-2.5601,-2.5601,-2.5626,-2.5636,-2.5636,-2.5632,-2.5605,-2.5605,-2.56,-2.56,-2.56,-2.56,-2.5607,-2.5601,-2.5605,-2.561,-2.56,-2.5603,-2.5609,-2.5605,-2.5605,-2.5601,-2.56,-2.56,-2.5607,-2.5601,-2.5601,-2.5601,-2.5601,-2.5579,-2.5567,-2.5583,-2.5605,-2.56,-2.5578,-2.5557,-2.5554,-2.5538,-2.5507,-2.549,-2.5493,-2.5447,-2.5437,-2.5421,-2.5406,-2.5379,-2.5351,-2.5332,-2.5302,-2.5272,-2.5261,-2.5208,-2.513,-2.5075,-2.5041,-2.4679,-2.4288,-2.4174,-2.4016,-2.3726,-2.337,-2.3862,-2.429,-2.4589,-2.4746,-2.4926,-2.499,-2.4962,-2.5063,-2.0503,-2.0511,-2.0508,-2.0506,-2.0657,-2.1453,-2.1836,-2.1992,-2.2948,-2.3652,-2.4326,-2.4491,-2.5049,-2.5527,-2.5635,-2.5684,-2.568,-2.5682,-2.5675,-2.567,-2.5628,-2.5614,-2.5614,-2.5625,-2.5627,-2.5688,-2.5664,-2.5661,-2.5651,-2.5654,-2.5606,-2.5584,-2.5579,-2.5566,-2.5525,-2.5514,-2.5522,-2.5527,-2.5527,-2.5531,-2.5517,-2.5515,-2.551,-2.5521,-2.5552,-2.5575,-2.5575,-2.5585,-2.5611,-2.5664,-2.5655,-2.5636,-2.5609,-2.5609,-2.5601,-2.5607,-2.5603,-2.5607,-2.5607,-2.5607,-2.5603,-2.56,-2.56,-2.561,-2.5608,-2.5587,-2.5587,-2.5603,-2.5607,-2.5601,-2.5589,-2.5583,-2.5577,-2.5567,-2.5577,-2.5547,-2.551,-2.555,-2.5561,-2.5551,-2.5514,-2.5485,-2.547,-2.5455,-2.5412,-2.5387,-2.5387,-2.5387,-2.5387,-2.5351,-2.5332,-2.5312,-2.5291,-2.519,-2.5145,-2.5132,-2.5118,-2.5057,-2.498,-2.4921,-2.4808,-2.4293,-2.3824,-2.3281,-2.3018,-2.2864,-2.2779,-2.2937,-2.3474,-2.4225,-2.4443,-2.4271,-2.4416,-2.4704,-2.4828,-2.0535,-2.0566,-2.0532,-2.0505,-2.064,-2.1451,-2.1835,-2.2088,-2.3449,-2.4151,-2.4417,-2.5064,-2.5425,-2.56,-2.5619,-2.5629,-2.5629,-2.5624,-2.5612,-2.5609,-2.5583,-2.5595,-2.5595,-2.5568,-2.5586,-2.5593,-2.5571,-2.5547,-2.5552,-2.5532,-2.5527,-2.5511,-2.5515,-2.5504,-2.5492,-2.5514,-2.5494,-2.5492,-2.5488,-2.5489,-2.5479,-2.5489,-2.5496,-2.5496,-2.5504,-2.5515,-2.5506,-2.5515,-2.5531,-2.5522,-2.5536,-2.5546,-2.5537,-2.5571,-2.5593,-2.5598,-2.5598,-2.5601,-2.5601,-2.5601,-2.5599,-2.5605,-2.5605,-2.56,-2.5591,-2.5535,-2.5547,-2.5577,-2.5589,-2.5577,-2.5517,-2.5517,-2.5488,-2.5455,-2.5437,-2.5439,-2.5422,-2.543,-2.5448,-2.5421,-2.5414,-2.5414,-2.5396,-2.5387,-2.536,-2.5332,-2.5332,-2.5322,-2.5312,-2.5282,-2.5217,-2.5225,-2.5224,-2.5094,-2.4968,-2.4951,-2.4934,-2.4861,-2.4798,-2.4759,-2.4494,-2.3906,-2.338,-2.2985,-2.2693,-2.2594,-2.2473,-2.2407,-2.2829,-2.368,-2.3639,-2.3507,-2.3719,-2.3987,-2.4284,-2.0517,-2.0541,-2.0511,-2.0511,-2.0659,-2.1423,-2.2055,-2.2571,-2.3737,-2.4554,-2.4978,-2.5411,-2.5605,-2.5605,-2.5605,-2.5605,-2.5591,-2.5547,-2.5547,-2.5546,-2.5539,-2.555,-2.555,-2.5515,-2.5496,-2.5486,-2.5461,-2.5469,-2.5486,-2.5517,-2.548,-2.5444,-2.5437,-2.5432,-2.5414,-2.5408,-2.5403,-2.5415,-2.5393,-2.5389,-2.5393,-2.542,-2.5442,-2.5412,-2.5432,-2.5446,-2.5446,-2.5437,-2.5467,-2.5498,-2.5514,-2.5514,-2.551,-2.5511,-2.5532,-2.5557,-2.5585,-2.5601,-2.5601,-2.5601,-2.5603,-2.561,-2.5585,-2.556,-2.5531,-2.5485,-2.547,-2.5495,-2.5503,-2.5478,-2.5437,-2.5447,-2.543,-2.5404,-2.5387,-2.5378,-2.5351,-2.5351,-2.5341,-2.5312,-2.5312,-2.5322,-2.5332,-2.5322,-2.5312,-2.5291,-2.526,-2.5249,-2.5227,-2.5182,-2.5122,-2.5054,-2.5028,-2.493,-2.4809,-2.478,-2.4755,-2.4667,-2.4613,-2.4571,-2.4351,-2.3831,-2.3347,-2.2917,-2.2662,-2.2706,-2.2651,-2.2768,-2.2991,-2.3066,-2.3124,-2.3149,-2.312,-2.3269,-2.3659,-2.0505,-2.0505,-2.0476,-2.0473,-2.062,-2.1395,-2.2223,-2.3037,-2.3883,-2.4757,-2.5521,-2.5569,-2.5577,-2.5579,-2.5586,-2.5577,-2.5569,-2.5519,-2.5519,-2.5511,-2.5511,-2.5511,-2.5493,-2.5466,-2.5435,-2.5424,-2.5411,-2.5423,-2.5455,-2.5481,-2.5444,-2.5397,-2.5381,-2.5366,-2.5341,-2.5332,-2.5303,-2.5303,-2.5303,-2.5303,-2.5322,-2.5349,-2.5348,-2.5303,-2.5358,-2.5372,-2.5372,-2.5382,-2.5395,-2.5432,-2.5463,-2.5453,-2.546,-2.545,-2.545,-2.5464,-2.5532,-2.5571,-2.5575,-2.5585,-2.5571,-2.5565,-2.5525,-2.5514,-2.5497,-2.5464,-2.543,-2.5396,-2.5395,-2.5405,-2.5387,-2.5369,-2.536,-2.5351,-2.5351,-2.5351,-2.5301,-2.528,-2.5279,-2.5258,-2.5228,-2.523,-2.523,-2.525,-2.5228,-2.512,-2.5096,-2.5044,-2.5032,-2.5028,-2.4976,-2.4865,-2.4808,-2.4725,-2.4654,-2.4614,-2.4568,-2.4506,-2.4437,-2.4393,-2.4154,-2.3832,-2.34,-2.305,-2.3335,-2.3367,-2.325,-2.2653,-2.2179,-2.2061,-2.2528,-2.2701,-2.258,-2.288,-2.337,-2.0507,-2.0507,-2.0449,-2.0411,-2.054,-2.1311,-2.2162,-2.2987,-2.3792,-2.4699,-2.553,-2.5511,-2.5521,-2.5521,-2.553,-2.5521,-2.5511,-2.5511,-2.5511,-2.5511,-2.5511,-2.5511,-2.5511,-2.5511,-2.5455,-2.5418,-2.5401,-2.5387,-2.5416,-2.5415,-2.5387,-2.535,-2.5378,-2.5379,-2.5332,-2.5303,-2.5303,-2.5303,-2.5303,-2.5303,-2.5303,-2.5293,-2.5303,-2.5293,-2.5313,-2.5322,-2.5312,-2.5331,-2.5331,-2.5331,-2.534,-2.5331,-2.5322,-2.5312,-2.5312,-2.5357,-2.5435,-2.551,-2.55,-2.551,-2.5514,-2.5499,-2.5492,-2.551,-2.5474,-2.5468,-2.5424,-2.5322,-2.535,-2.5359,-2.5322,-2.5322,-2.5271,-2.526,-2.5258,-2.5248,-2.5203,-2.5151,-2.5158,-2.5088,-2.5047,-2.5091,-2.5125,-2.5137,-2.5137,-2.5022,-2.4925,-2.4879,-2.4832,-2.4832,-2.4818,-2.471,-2.4617,-2.4536,-2.4495,-2.4469,-2.4426,-2.4358,-2.4303,-2.4257,-2.4109,-2.3916,-2.3594,-2.3419,-2.3658,-2.3198,-2.236,-2.1644,-2.1031,-2.1317,-2.2088,-2.2125,-2.1913,-2.2407,-2.2976,-2.0447,-2.0447,-2.0418,-2.0389,-2.0437,-2.0821,-2.171,-2.2813,-2.3306,-2.4234,-2.5327,-2.5511,-2.5511,-2.5503,-2.5511,-2.5511,-2.5511,-2.5503,-2.5511,-2.5503,-2.5493,-2.5503,-2.5511,-2.5511,-2.5492,-2.5429,-2.5419,-2.5385,-2.5397,-2.5389,-2.5378,-2.5369,-2.5389,-2.5389,-2.5351,-2.5303,-2.5303,-2.5303,-2.5303,-2.5303,-2.5303,-2.5303,-2.5303,-2.5303,-2.5303,-2.5303,-2.5303,-2.5303,-2.5303,-2.5303,-2.5303,-2.5303,-2.5303,-2.5303,-2.5303,-2.5303,-2.5349,-2.5405,-2.5432,-2.5439,-2.5442,-2.542,-2.5408,-2.5377,-2.5379,-2.5389,-2.5361,-2.5253,-2.5253,-2.5273,-2.5252,-2.5249,-2.5238,-2.5205,-2.5191,-2.5125,-2.5069,-2.5022,-2.4987,-2.4921,-2.4861,-2.4912,-2.4926,-2.4889,-2.4889,-2.4851,-2.4784,-2.4749,-2.4689,-2.4632,-2.4601,-2.4543,-2.4434,-2.4348,-2.4312,-2.4293,-2.4302,-2.4257,-2.4275,-2.4228,-2.421,-2.4026,-2.3713,-2.3198,-2.2892,-2.2275,-2.1405,-2.1463,-2.1619,-2.1711,-2.1776,-2.1803,-2.1812,-2.1894,-2.2481,-2.0392,-2.036,-2.0383,-2.0389,-2.0418,-2.0592,-2.1516,-2.2823,-2.3118,-2.4025,-2.5123,-2.5424,-2.5396,-2.5405,-2.5396,-2.5387,-2.5395,-2.5395,-2.5387,-2.5396,-2.5396,-2.5378,-2.5369,-2.5387,-2.5387,-2.5396,-2.5322,-2.5303,-2.5313,-2.5322,-2.5313,-2.5387,-2.5396,-2.5397,-2.5389,-2.537,-2.5341,-2.5341,-2.5322,-2.5322,-2.5332,-2.5322,-2.5322,-2.5332,-2.5332,-2.5341,-2.5322,-2.5322,-2.5322,-2.5322,-2.5322,-2.5341,-2.5341,-2.5332,-2.5332,-2.5341,-2.536,-2.5369,-2.5375,-2.5374,-2.5383,-2.5366,-2.534,-2.5313,-2.5312,-2.5301,-2.5272,-2.5213,-2.5232,-2.5232,-2.521,-2.5208,-2.5208,-2.5187,-2.5153,-2.5041,-2.4955,-2.4925,-2.4884,-2.4842,-2.4779,-2.4673,-2.4667,-2.4603,-2.4587,-2.4635,-2.4635,-2.4619,-2.4545,-2.4452,-2.4417,-2.4392,-2.4329,-2.4257,-2.4247,-2.421,-2.421,-2.42,-2.419,-2.419,-2.4191,-2.4109,-2.3879,-2.3251,-2.2547,-2.2079,-2.166,-2.2004,-2.2326,-2.2105,-2.1903,-2.1847,-2.1847,-2.1894,-2.2162,-2.0339,-2.0214,-2.0363,-2.0421,-2.0482,-2.1134,-2.1986,-2.2999,-2.3496,-2.4291,-2.5216,-2.5203,-2.5165,-2.5157,-2.5165,-2.5164,-2.5137,-2.5122,-2.5152,-2.515,-2.5128,-2.5161,-2.5172,-2.5172,-2.516,-2.515,-2.5172,-2.5171,-2.5149,-2.5172,-2.5244,-2.5359,-2.5331,-2.5368,-2.5367,-2.5331,-2.5322,-2.5322,-2.5312,-2.5351,-2.5351,-2.5361,-2.537,-2.5379,-2.5378,-2.5387,-2.5387,-2.5378,-2.5368,-2.5368,-2.5368,-2.5378,-2.5378,-2.5369,-2.5369,-2.5379,-2.537,-2.5379,-2.536,-2.5331,-2.5322,-2.5303,-2.5303,-2.5293,-2.5302,-2.5302,-2.5273,-2.5213,-2.5221,-2.5221,-2.5212,-2.5201,-2.5145,-2.512,-2.505,-2.4955,-2.4874,-2.4818,-2.4799,-2.476,-2.4679,-2.4561,-2.4487,-2.4436,-2.441,-2.4462,-2.4452,-2.4434,-2.4375,-2.4284,-2.4275,-2.4247,-2.4229,-2.421,-2.421,-2.4201,-2.4201,-2.4153,-2.4124,-2.4162,-2.4191,-2.4072,-2.3962,-2.3443,-2.2785,-2.2354,-2.1963,-2.204,-2.2097,-2.2085,-2.1992,-2.1749,-2.2133,-2.2537,-2.2703,-2.0208,-2.019,-2.0705,-2.0953,-2.101,-2.1828,-2.2661,-2.34,-2.371,-2.431,-2.518,-2.5138,-2.5088,-2.509,-2.5077,-2.5088,-2.5088,-2.5089,-2.508,-2.5084,-2.5096,-2.5084,-2.5084,-2.5072,-2.5096,-2.5094,-2.5094,-2.5084,-2.5096,-2.5061,-2.5117,-2.5203,-2.5203,-2.5201,-2.5202,-2.5216,-2.5197,-2.5173,-2.5171,-2.5202,-2.5273,-2.5283,-2.5322,-2.5387,-2.5396,-2.5387,-2.5387,-2.5387,-2.5387,-2.5387,-2.5387,-2.5395,-2.5387,-2.5387,-2.5396,-2.5387,-2.5397,-2.5379,-2.536,-2.5322,-2.5303,-2.5303,-2.5293,-2.5303,-2.5302,-2.5303,-2.5303,-2.5253,-2.5189,-2.5155,-2.5138,-2.5043,-2.4951,-2.4974,-2.4938,-2.4861,-2.479,-2.474,-2.4648,-2.461,-2.4512,-2.4383,-2.433,-2.4284,-2.4275,-2.4275,-2.4266,-2.4257,-2.4229,-2.419,-2.4171,-2.4143,-2.4144,-2.4115,-2.4096,-2.4135,-2.4182,-2.4125,-2.4047,-2.4066,-2.4105,-2.4125,-2.3933,-2.3464,-2.2923,-2.2316,-2.1926,-2.1867,-2.1795,-2.1682,-2.1575,-2.146,-2.2081,-2.3199,-2.3363,-2.0125,-2.0174,-2.1183,-2.1499,-2.1463,-2.2459,-2.3241,-2.3759,-2.4002,-2.436,-2.4994,-2.4975,-2.4975,-2.4984,-2.4971,-2.4959,-2.4955,-2.4964,-2.4964,-2.4958,-2.4949,-2.4975,-2.4984,-2.4971,-2.4936,-2.4994,-2.4984,-2.4949,-2.4936,-2.4981,-2.4971,-2.4968,-2.4987,-2.5,-2.5096,-2.5057,-2.5039,-2.5025,-2.5041,-2.5077,-2.5174,-2.5179,-2.52,-2.5283,-2.5284,-2.5293,-2.5303,-2.5313,-2.5369,-2.5378,-2.5396,-2.5414,-2.5405,-2.5387,-2.5387,-2.5387,-2.5378,-2.5388,-2.5378,-2.5351,-2.5322,-2.5303,-2.5303,-2.5293,-2.5293,-2.5273,-2.5222,-2.5213,-2.5122,-2.5047,-2.5034,-2.4942,-2.4911,-2.4947,-2.4842,-2.4755,-2.4689,-2.4635,-2.4538,-2.4454,-2.4366,-2.4348,-2.433,-2.4294,-2.4266,-2.4275,-2.4266,-2.4275,-2.4247,-2.42,-2.4124,-2.4095,-2.4057,-2.4018,-2.3978,-2.3998,-2.4008,-2.3948,-2.3887,-2.3908,-2.3958,-2.3923,-2.3671,-2.3107,-2.2573,-2.209,-2.1838,-2.1689,-2.1442,-2.1172,-2.1534,-2.2234,-2.3643,-2.4688,-2.4187,-2.0021,-2.0117,-2.164,-2.1897,-2.1499,-2.2927,-2.3661,-2.3833,-2.4365,-2.465,-2.4749,-2.4725,-2.4734,-2.4734,-2.477,-2.4772,-2.4766,-2.4747,-2.4749,-2.4755,-2.4784,-2.4734,-2.4734,-2.474,-2.4775,-2.4719,-2.474,-2.477,-2.4734,-2.4779,-2.4749,-2.4749,-2.4794,-2.4856,-2.5061,-2.5084,-2.5084,-2.5077,-2.5064,-2.5072,-2.5082,-2.5084,-2.5096,-2.5134,-2.5149,-2.5171,-2.5172,-2.5234,-2.5283,-2.5293,-2.5369,-2.5396,-2.5395,-2.5322,-2.5322,-2.5368,-2.5322,-2.5341,-2.5388,-2.5389,-2.5332,-2.5274,-2.5264,-2.5253,-2.5253,-2.5191,-2.5115,-2.5094,-2.4981,-2.4915,-2.4892,-2.4874,-2.4856,-2.4823,-2.4719,-2.4667,-2.4596,-2.4573,-2.4481,-2.4456,-2.443,-2.4412,-2.4385,-2.433,-2.4284,-2.4266,-2.4294,-2.4275,-2.4257,-2.42,-2.4104,-2.4007,-2.3928,-2.3846,-2.3795,-2.3825,-2.3825,-2.3753,-2.3732,-2.3762,-2.3569,-2.3347,-2.3042,-2.2654,-2.2401,-2.2099,-2.1762,-2.1448,-2.1531,-2.1811,-2.2883,-2.3841,-2.5266,-2.5971,-2.5384,-1.9915,-1.9934,-2.1017,-2.1315,-2.1428,-2.3422,-2.4077,-2.3794,-2.4339,-2.4682,-2.4682,-2.4682,-2.4682,-2.4682,-2.4682,-2.4682,-2.4682,-2.4682,-2.4682,-2.4682,-2.4682,-2.4698,-2.4682,-2.4682,-2.4682,-2.4682,-2.4682,-2.4682,-2.4698,-2.4682,-2.4682,-2.4698,-2.4698,-2.4749,-2.4813,-2.4842,-2.4828,-2.4837,-2.4849,-2.4879,-2.4947,-2.4964,-2.5003,-2.5068,-2.507,-2.5061,-2.5061,-2.5138,-2.5169,-2.5171,-2.5253,-2.5254,-2.5244,-2.5182,-2.5192,-2.5204,-2.5169,-2.5189,-2.5198,-2.5187,-2.5198,-2.518,-2.5172,-2.5149,-2.5046,-2.5019,-2.4981,-2.4945,-2.4832,-2.4784,-2.4774,-2.4667,-2.4629,-2.4622,-2.4566,-2.4556,-2.4515,-2.4524,-2.4482,-2.4482,-2.4474,-2.4439,-2.4412,-2.433,-2.4275,-2.4247,-2.4257,-2.4219,-2.4181,-2.4143,-2.4065,-2.3896,-2.3795,-2.3689,-2.3624,-2.3624,-2.3544,-2.3431,-2.3486,-2.3585,-2.3318,-2.2923,-2.2702,-2.247,-2.2322,-2.2153,-2.1899,-2.1774,-2.2196,-2.2745,-2.3764,-2.5014,-2.6377,-2.6771,-2.6396,-1.9852,-1.9901,-2.0661,-2.0982,-2.1292,-2.3341,-2.4097,-2.4003,-2.4473,-2.4682,-2.4682,-2.4682,-2.4654,-2.4645,-2.4664,-2.4645,-2.4645,-2.4673,-2.4682,-2.4682,-2.4682,-2.4682,-2.4682,-2.4682,-2.4682,-2.4682,-2.4682,-2.4682,-2.4682,-2.4682,-2.4682,-2.4682,-2.4682,-2.4713,-2.4713,-2.4713,-2.4713,-2.4729,-2.4742,-2.4763,-2.4813,-2.4832,-2.4865,-2.4919,-2.4945,-2.4945,-2.4962,-2.4997,-2.5043,-2.5037,-2.5061,-2.5084,-2.5084,-2.5058,-2.507,-2.5082,-2.5084,-2.5103,-2.5101,-2.5068,-2.507,-2.5012,-2.503,-2.5003,-2.4915,-2.4874,-2.4832,-2.4775,-2.4689,-2.466,-2.4631,-2.4507,-2.4507,-2.45,-2.45,-2.4507,-2.4517,-2.4509,-2.4509,-2.4509,-2.4482,-2.4447,-2.4403,-2.4348,-2.4257,-2.4247,-2.4238,-2.4162,-2.4084,-2.4016,-2.3905,-2.375,-2.3589,-2.3454,-2.3385,-2.3408,-2.3301,-2.3135,-2.3223,-2.3389,-2.2958,-2.2571,-2.243,-2.2171,-2.1673,-2.1468,-2.192,-2.2176,-2.2826,-2.3601,-2.455,-2.5895,-2.7432,-2.7441,-2.7057,-1.9785,-1.9917,-2.0643,-2.0872,-2.1133,-2.2776,-2.3926,-2.4626,-2.4673,-2.4667,-2.4667,-2.4651,-2.4588,-2.452,-2.4611,-2.4598,-2.4535,-2.4607,-2.4626,-2.4635,-2.4619,-2.4635,-2.4635,-2.4645,-2.4619,-2.4667,-2.4676,-2.4667,-2.4682,-2.4682,-2.4682,-2.4682,-2.4682,-2.4682,-2.4682,-2.4682,-2.4682,-2.4682,-2.4698,-2.4704,-2.4734,-2.4719,-2.474,-2.477,-2.4755,-2.4755,-2.4784,-2.4832,-2.4888,-2.4942,-2.5006,-2.5037,-2.5024,-2.4968,-2.5019,-2.5034,-2.5049,-2.5037,-2.5012,-2.4968,-2.4913,-2.4851,-2.4898,-2.4911,-2.4856,-2.4749,-2.4713,-2.4667,-2.4606,-2.4558,-2.45,-2.45,-2.45,-2.4509,-2.4509,-2.45,-2.45,-2.4509,-2.4509,-2.4482,-2.4456,-2.4393,-2.4284,-2.4238,-2.4115,-2.4087,-2.4037,-2.3969,-2.3887,-2.3825,-2.3698,-2.3495,-2.3333,-2.3199,-2.3175,-2.3238,-2.3214,-2.3111,-2.3111,-2.3146,-2.2685,-2.2329,-2.2149,-2.1745,-2.0841,-2.0853,-2.1972,-2.2906,-2.3706,-2.4515,-2.5262,-2.6207,-2.7548,-2.7682,-2.7361,-1.9587,-1.9679,-1.9806,-2.0166,-2.0871,-2.2483,-2.3685,-2.4372,-2.4513,-2.4512,-2.4419,-2.4401,-2.4397,-2.4364,-2.4389,-2.4383,-2.4375,-2.4384,-2.441,-2.4428,-2.4453,-2.4418,-2.4418,-2.4436,-2.4461,-2.4528,-2.4561,-2.4603,-2.4676,-2.4682,-2.4682,-2.4682,-2.4682,-2.4682,-2.4682,-2.4682,-2.4682,-2.4682,-2.4682,-2.4682,-2.4682,-2.4682,-2.4682,-2.4682,-2.4682,-2.4682,-2.4719,-2.4734,-2.4779,-2.4784,-2.4799,-2.4804,-2.4813,-2.4789,-2.4803,-2.4808,-2.4813,-2.4804,-2.4804,-2.4795,-2.476,-2.4689,-2.4723,-2.467,-2.4622,-2.4615,-2.4584,-2.4558,-2.4541,-2.4517,-2.4509,-2.4509,-2.4509,-2.4509,-2.4509,-2.4509,-2.45,-2.4456,-2.4438,-2.4348,-2.4321,-2.4192,-2.4106,-2.4008,-2.3908,-2.3878,-2.3828,-2.3744,-2.371,-2.3646,-2.3544,-2.3342,-2.3232,-2.3111,-2.3111,-2.3151,-2.3135,-2.3111,-2.3111,-2.3084,-2.2863,-2.25,-2.2051,-2.1669,-2.1331,-2.1754,-2.2623,-2.3507,-2.4375,-2.5067,-2.5806,-2.669,-2.7443,-2.7575,-2.7683,-1.9443,-1.9504,-1.9429,-2.0,-2.113,-2.2445,-2.3419,-2.4062,-2.4321,-2.4375,-2.4303,-2.4303,-2.4266,-2.4229,-2.4266,-2.4284,-2.4228,-2.4294,-2.4321,-2.4321,-2.4284,-2.4321,-2.4303,-2.4284,-2.4366,-2.4401,-2.4426,-2.4487,-2.4603,-2.4682,-2.4682,-2.4682,-2.4682,-2.4682,-2.4682,-2.4682,-2.4682,-2.4682,-2.4682,-2.4682,-2.4682,-2.4682,-2.4682,-2.4682,-2.4682,-2.4682,-2.4682,-2.4682,-2.4682,-2.4682,-2.4682,-2.4698,-2.4707,-2.4707,-2.4707,-2.4713,-2.4713,-2.4719,-2.4719,-2.4707,-2.4654,-2.4606,-2.4589,-2.454,-2.4541,-2.4534,-2.4517,-2.4517,-2.4509,-2.4509,-2.4509,-2.4509,-2.4509,-2.4509,-2.4509,-2.4509,-2.4456,-2.4393,-2.4303,-2.4192,-2.4078,-2.395,-2.3849,-2.3741,-2.3685,-2.3633,-2.3544,-2.3431,-2.3463,-2.3508,-2.338,-2.3208,-2.316,-2.3111,-2.3111,-2.3111,-2.3111,-2.3111,-2.3111,-2.3067,-2.297,-2.2628,-2.2116,-2.2125,-2.2221,-2.2637,-2.3005,-2.4094,-2.4998,-2.563,-2.6253,-2.7065,-2.7551,-2.7637,-2.7701,-1.938,-1.9407,-1.9453,-2.029,-2.1589,-2.2502,-2.3248,-2.3783,-2.4106,-2.4247,-2.4247,-2.4238,-2.4164,-2.4098,-2.4135,-2.4125,-2.4105,-2.4144,-2.4173,-2.4238,-2.4182,-2.4182,-2.4201,-2.4257,-2.4229,-2.4257,-2.4303,-2.4366,-2.4512,-2.4594,-2.4651,-2.4682,-2.4682,-2.4682,-2.4682,-2.4682,-2.4682,-2.4682,-2.4682,-2.4682,-2.4682,-2.4682,-2.4682,-2.4682,-2.4682,-2.4682,-2.4682,-2.4682,-2.4682,-2.4682,-2.4682,-2.4682,-2.4682,-2.4682,-2.4682,-2.4682,-2.4682,-2.4682,-2.4682,-2.4686,-2.4654,-2.4596,-2.4528,-2.4523,-2.4507,-2.4509,-2.4509,-2.4509,-2.4509,-2.4509,-2.4509,-2.4509,-2.4509,-2.4509,-2.4509,-2.4509,-2.4482,-2.4348,-2.4106,-2.3999,-2.3837,-2.371,-2.3571,-2.3477,-2.3449,-2.3403,-2.3365,-2.3199,-2.3223,-2.3342,-2.3271,-2.3135,-2.3111,-2.3111,-2.3111,-2.3111,-2.3111,-2.3111,-2.3111,-2.3102,-2.3049,-2.2645,-2.2154,-2.2356,-2.2637,-2.2838,-2.3295,-2.4348,-2.5288,-2.5993,-2.6634,-2.7405,-2.7701,-2.7701,-2.7701,-1.9226,-1.9368,-1.9875,-2.0653,-2.1579,-2.2414,-2.312,-2.3777,-2.3878,-2.3855,-2.391,-2.3901,-2.3892,-2.3828,-2.393,-2.3919,-2.3928,-2.3969,-2.3928,-2.3948,-2.3969,-2.3989,-2.3948,-2.3998,-2.4027,-2.4113,-2.4181,-2.4257,-2.4453,-2.4538,-2.4603,-2.4682,-2.4682,-2.4682,-2.4682,-2.4682,-2.4682,-2.4682,-2.4682,-2.4682,-2.4682,-2.4682,-2.4682,-2.4682,-2.4682,-2.4682,-2.4682,-2.4682,-2.4682,-2.4682,-2.4682,-2.4682,-2.4682,-2.4682,-2.4682,-2.4682,-2.4682,-2.4682,-2.4682,-2.4692,-2.467,-2.4622,-2.4564,-2.4549,-2.4534,-2.4526,-2.4509,-2.4509,-2.4509,-2.4509,-2.4509,-2.4509,-2.4509,-2.4509,-2.4509,-2.4509,-2.4482,-2.4201,-2.3939,-2.3753,-2.3598,-2.3486,-2.3348,-2.3262,-2.3208,-2.3184,-2.3184,-2.3111,-2.3135,-2.3208,-2.3208,-2.3111,-2.3111,-2.3111,-2.3111,-2.3111,-2.3111,-2.3111,-2.3111,-2.3111,-2.3111,-2.2856,-2.2584,-2.2777,-2.3014,-2.3163,-2.3576,-2.4515,-2.5393,-2.616,-2.6882,-2.7572,-2.7701,-2.7701,-2.7701,-1.9407,-2.0056,-2.0101,-2.0389,-2.0876,-2.1365,-2.196,-2.2562,-2.2684,-2.2675,-2.2876,-2.3367,-2.3641,-2.3496,-2.3632,-2.3804,-2.3804,-2.3804,-2.3846,-2.3825,-2.3804,-2.3825,-2.3804,-2.3804,-2.3876,-2.3976,-2.4084,-2.421,-2.4393,-2.4495,-2.4552,-2.4667,-2.4682,-2.4682,-2.4682,-2.4682,-2.4682,-2.4682,-2.4682,-2.4682,-2.4682,-2.4682,-2.4682,-2.4682,-2.4682,-2.4682,-2.4682,-2.4682,-2.4682,-2.4682,-2.4682,-2.4682,-2.4682,-2.4682,-2.4682,-2.4682,-2.4682,-2.4682,-2.4682,-2.4692,-2.4686,-2.4638,-2.4631,-2.4617,-2.4523,-2.4515,-2.4507,-2.4507,-2.4509,-2.4509,-2.4509,-2.4509,-2.4509,-2.4509,-2.4465,-2.442,-2.421,-2.3887,-2.3624,-2.3417,-2.331,-2.3286,-2.319,-2.3199,-2.3135,-2.3135,-2.3111,-2.3111,-2.3111,-2.3111,-2.3111,-2.3111,-2.3111,-2.3111,-2.3111,-2.3111,-2.3111,-2.3111,-2.3111,-2.3111,-2.3111,-2.3111,-2.3093,-2.3084,-2.3163,-2.3374,-2.3918,-2.469,-2.5524,-2.6307,-2.701,-2.7683,-2.7701,-2.7701,-2.7701,-1.9695,-2.0764,-2.008,-1.9868,-2.0005,-2.0081,-2.0583,-2.1234,-2.1391,-2.143,-2.1664,-2.3106,-2.3238,-2.3161,-2.3442,-2.3668,-2.3804,-2.3804,-2.3804,-2.3804,-2.3804,-2.3804,-2.3804,-2.3804,-2.3825,-2.3876,-2.3976,-2.4114,-2.4266,-2.4356,-2.4461,-2.4635,-2.4692,-2.4686,-2.4682,-2.4682,-2.4682,-2.4682,-2.4682,-2.4682,-2.4682,-2.4682,-2.4682,-2.4682,-2.4682,-2.4682,-2.4682,-2.4682,-2.4682,-2.4682,-2.4682,-2.4682,-2.4682,-2.4682,-2.4682,-2.4682,-2.4682,-2.4682,-2.4682,-2.4682,-2.4686,-2.4689,-2.4698,-2.4641,-2.4547,-2.4513,-2.4532,-2.4515,-2.4517,-2.4509,-2.4509,-2.45,-2.45,-2.4411,-2.4358,-2.4257,-2.3917,-2.3611,-2.3394,-2.316,-2.3111,-2.3102,-2.3102,-2.3111,-2.3111,-2.3111,-2.3111,-2.3111,-2.3111,-2.3111,-2.3111,-2.3111,-2.3111,-2.3111,-2.3111,-2.3111,-2.3111,-2.3111,-2.3111,-2.3111,-2.3111,-2.3111,-2.3111,-2.3111,-2.3225,-2.34,-2.3953,-2.4673,-2.5524,-2.6376,-2.7104,-2.7683,-2.7701,-2.7701,-2.7701,-1.9739,-2.0071,-1.9314,-1.9377,-1.9915,-1.9988,-2.0471,-2.1232,-2.1774,-2.1774,-2.1596,-2.2641,-2.3221,-2.2725,-2.3469,-2.3765,-2.3741,-2.3762,-2.3804,-2.3804,-2.3762,-2.3783,-2.3804,-2.3795,-2.3804,-2.3825,-2.3876,-2.3967,-2.4143,-2.42,-2.4321,-2.4554,-2.4554,-2.4603,-2.4682,-2.4682,-2.4682,-2.4682,-2.4682,-2.4682,-2.4682,-2.4682,-2.4682,-2.4682,-2.4682,-2.4682,-2.4682,-2.4682,-2.4682,-2.4682,-2.4682,-2.4682,-2.4682,-2.4682,-2.4682,-2.4682,-2.4682,-2.4682,-2.4682,-2.4682,-2.4686,-2.4679,-2.4689,-2.4673,-2.4606,-2.4582,-2.4582,-2.4556,-2.4532,-2.4517,-2.4509,-2.4482,-2.4438,-2.4192,-2.4067,-2.3896,-2.3651,-2.3508,-2.3348,-2.3199,-2.3111,-2.3111,-2.3111,-2.3111,-2.3111,-2.3111,-2.3111,-2.3111,-2.3111,-2.3111,-2.3111,-2.3111,-2.3111,-2.3111,-2.3111,-2.3111,-2.3111,-2.3111,-2.3111,-2.3111,-2.3111,-2.3111,-2.3111,-2.3111,-2.319,-2.3339,-2.3971,-2.4945,-2.5463,-2.6305,-2.7122,-2.7657,-2.7683,-2.7701,-2.7701]}]]